<?xml version='1.0' encoding='UTF-8'?><gpx version="1.1" creator="JPX - https://github.com/jenetics/jpx" xmlns="http://www.topografix.com/GPX/1/1"><trk><trkseg><trkpt lat="45.666166235968674" lon="10.94721652742373"><ele>1185.6666666666665</ele><time>2026-04-22T07:20:43.999Z</time></trkpt><trkpt lat="45.66600143215317" lon="10.947128579796198"><ele>1170.3333333333333</ele><time>2026-04-22T07:20:44.999Z</time></trkpt><trkpt lat="45.66583660383516" lon="10.947046671892869"><ele>1155.0</ele><time>2026-04-22T07:20:46.999Z</time></trkpt><trkpt lat="45.665890725752135" lon="10.94717173193425"><ele>1155.0</ele><time>2026-04-22T07:23:45Z</time></trkpt><trkpt lat="45.66595737470529" lon="10.947260960122218"><ele>1155.0</ele><time>2026-04-22T07:23:47Z</time></trkpt><trkpt lat="45.666006408708135" lon="10.947367589213425"><ele>1155.0</ele><time>2026-04-22T07:24:30Z</time></trkpt><trkpt lat="45.66605358912313" lon="10.947453616949426"><ele>1155.0</ele><time>2026-04-22T07:24:32Z</time></trkpt><trkpt lat="45.66609813110062" lon="10.94754285065378"><ele>1155.0</ele><time>2026-04-22T07:24:34Z</time></trkpt><trkpt lat="45.666137561740065" lon="10.947637349440939"><ele>1155.0</ele><time>2026-04-22T07:24:36Z</time></trkpt><trkpt lat="45.66616583350608" lon="10.947736683929653"><ele>1155.0</ele><time>2026-04-22T07:24:38Z</time></trkpt><trkpt lat="45.66617021967307" lon="10.947832404792868"><ele>1155.0</ele><time>2026-04-22T07:24:40Z</time></trkpt><trkpt lat="45.666127916994576" lon="10.947941523178118"><ele>1155.0</ele><time>2026-04-22T07:24:43Z</time></trkpt><trkpt lat="45.666089106480776" lon="10.948018040441209"><ele>1155.0</ele><time>2026-04-22T07:24:46Z</time></trkpt><trkpt lat="45.66604691865895" lon="10.948113303337832"><ele>1155.0</ele><time>2026-04-22T07:24:49Z</time></trkpt><trkpt lat="45.666025726439706" lon="10.948203785834908"><ele>1155.0</ele><time>2026-04-22T07:25:09Z</time></trkpt><trkpt lat="45.66604818267948" lon="10.948353218525627"><ele>1154.3333333333333</ele><time>2026-04-22T07:25:11Z</time></trkpt><trkpt lat="45.666083783628174" lon="10.948434731132686"><ele>1153.6666666666667</ele><time>2026-04-22T07:25:12Z</time></trkpt><trkpt lat="45.6661231562978" lon="10.948514027177819"><ele>1153.0</ele><time>2026-04-22T07:25:13Z</time></trkpt><trkpt lat="45.66616576371224" lon="10.948583146150536"><ele>1152.3333333333335</ele><time>2026-04-22T07:25:14Z</time></trkpt><trkpt lat="45.66621469141783" lon="10.948650365244905"><ele>1151.6666666666667</ele><time>2026-04-22T07:25:15Z</time></trkpt><trkpt lat="45.66630618031757" lon="10.948793104618039"><ele>1151.0</ele><time>2026-04-22T07:25:17Z</time></trkpt><trkpt lat="45.66636044173876" lon="10.948875432796141"><ele>1152.8333333333335</ele><time>2026-04-22T07:25:18Z</time></trkpt><trkpt lat="45.66641366767039" lon="10.948958066260055"><ele>1154.6666666666667</ele><time>2026-04-22T07:25:19Z</time></trkpt><trkpt lat="45.66646537327975" lon="10.949037133133004"><ele>1156.5</ele><time>2026-04-22T07:25:20Z</time></trkpt><trkpt lat="45.666512074158085" lon="10.949099271951352"><ele>1158.3333333333333</ele><time>2026-04-22T07:25:21Z</time></trkpt><trkpt lat="45.66657305721356" lon="10.949195610974524"><ele>1160.1666666666665</ele><time>2026-04-22T07:25:23Z</time></trkpt><trkpt lat="45.66663245472046" lon="10.949283631169637"><ele>1162.0</ele><time>2026-04-22T07:25:25Z</time></trkpt><trkpt lat="45.666704865400554" lon="10.94938030273824"><ele>1162.0</ele><time>2026-04-22T07:25:27Z</time></trkpt><trkpt lat="45.666790127971275" lon="10.94948364608096"><ele>1162.0</ele><time>2026-04-22T07:25:29Z</time></trkpt><trkpt lat="45.66687897958966" lon="10.949597850028647"><ele>1162.0</ele><time>2026-04-22T07:25:31Z</time></trkpt><trkpt lat="45.66696807443788" lon="10.949712162578013"><ele>1162.0</ele><time>2026-04-22T07:25:33Z</time></trkpt><trkpt lat="45.66702334632033" lon="10.949767717078144"><ele>1162.0</ele><time>2026-04-22T07:25:34Z</time></trkpt><trkpt lat="45.66709139860658" lon="10.949886637383544"><ele>1164.2</ele><time>2026-04-22T07:25:36Z</time></trkpt><trkpt lat="45.6671557476371" lon="10.950015498451378"><ele>1166.4</ele><time>2026-04-22T07:25:38Z</time></trkpt><trkpt lat="45.66721204912813" lon="10.950104546322397"><ele>1168.6</ele><time>2026-04-22T07:25:39Z</time></trkpt><trkpt lat="45.667283588621125" lon="10.950252505635193"><ele>1170.8</ele><time>2026-04-22T07:25:41Z</time></trkpt><trkpt lat="45.66733708043564" lon="10.950365986860694"><ele>1173.0</ele><time>2026-04-22T07:25:43Z</time></trkpt><trkpt lat="45.6674019949202" lon="10.950445745148137"><ele>1173.0</ele><time>2026-04-22T07:25:45Z</time></trkpt><trkpt lat="45.66752028439672" lon="10.950532844031637"><ele>1173.0</ele><time>2026-04-22T07:25:47Z</time></trkpt><trkpt lat="45.66758154244427" lon="10.950565789489538"><ele>1173.0</ele><time>2026-04-22T07:25:48Z</time></trkpt><trkpt lat="45.667655223798675" lon="10.950611595237579"><ele>1173.0</ele><time>2026-04-22T07:25:49Z</time></trkpt><trkpt lat="45.667723691714" lon="10.950643845438305"><ele>1173.0</ele><time>2026-04-22T07:25:51Z</time></trkpt><trkpt lat="45.66778556372227" lon="10.950667317188941"><ele>1173.0</ele><time>2026-04-22T07:25:52Z</time></trkpt><trkpt lat="45.66784818659522" lon="10.950683291244033"><ele>1177.0</ele><time>2026-04-22T07:25:53Z</time></trkpt><trkpt lat="45.667954362420176" lon="10.950753160310159"><ele>1181.0</ele><time>2026-04-22T07:25:55Z</time></trkpt><trkpt lat="45.66805969945088" lon="10.95083286992297"><ele>1185.0</ele><time>2026-04-22T07:25:57Z</time></trkpt><trkpt lat="45.66817362960553" lon="10.950906253757301"><ele>1189.0</ele><time>2026-04-22T07:25:59Z</time></trkpt><trkpt lat="45.6682621460529" lon="10.951008091258668"><ele>1189.0</ele><time>2026-04-22T07:26:01Z</time></trkpt><trkpt lat="45.66831938167331" lon="10.951063784115206"><ele>1189.0</ele><time>2026-04-22T07:26:03Z</time></trkpt><trkpt lat="45.66837771902294" lon="10.951128819088094"><ele>1189.0</ele><time>2026-04-22T07:26:43Z</time></trkpt><trkpt lat="45.66845141285605" lon="10.951216383932286"><ele>1189.0</ele><time>2026-04-22T07:26:46Z</time></trkpt><trkpt lat="45.66851056336946" lon="10.95127816545384"><ele>1189.0</ele><time>2026-04-22T07:26:48Z</time></trkpt><trkpt lat="45.668571640435204" lon="10.95134705424189"><ele>1189.0</ele><time>2026-04-22T07:26:50Z</time></trkpt><trkpt lat="45.66863644727716" lon="10.951410900863095"><ele>1193.8333333333333</ele><time>2026-04-22T07:26:52Z</time></trkpt><trkpt lat="45.66870202973875" lon="10.951472239330078"><ele>1198.6666666666665</ele><time>2026-04-22T07:26:54Z</time></trkpt><trkpt lat="45.668776760985715" lon="10.951512225603661"><ele>1203.5</ele><time>2026-04-22T07:26:56Z</time></trkpt><trkpt lat="45.6688579466924" lon="10.951530591631895"><ele>1208.3333333333333</ele><time>2026-04-22T07:26:58Z</time></trkpt><trkpt lat="45.668927392123194" lon="10.951553664822901"><ele>1213.1666666666667</ele><time>2026-04-22T07:27:00Z</time></trkpt><trkpt lat="45.66897479839349" lon="10.9516351901089"><ele>1218.0</ele><time>2026-04-22T07:27:02Z</time></trkpt><trkpt lat="45.66900307720904" lon="10.951718955496707"><ele>1219.8333333333333</ele><time>2026-04-22T07:27:04Z</time></trkpt><trkpt lat="45.66899804434695" lon="10.951811766614373"><ele>1221.6666666666667</ele><time>2026-04-22T07:27:06Z</time></trkpt><trkpt lat="45.668964262701124" lon="10.951932921234288"><ele>1223.5</ele><time>2026-04-22T07:27:08Z</time></trkpt><trkpt lat="45.66886098673517" lon="10.952018291545222"><ele>1225.3333333333335</ele><time>2026-04-22T07:27:10Z</time></trkpt><trkpt lat="45.66880180970874" lon="10.95208533018507"><ele>1227.1666666666667</ele><time>2026-04-22T07:27:11Z</time></trkpt><trkpt lat="45.66876228157149" lon="10.952170815245752"><ele>1229.0</ele><time>2026-04-22T07:27:12Z</time></trkpt><trkpt lat="45.6687076862859" lon="10.952245809455018"><ele>1229.0</ele><time>2026-04-22T07:27:13Z</time></trkpt><trkpt lat="45.66864731075615" lon="10.952318810513582"><ele>1229.0</ele><time>2026-04-22T07:27:14Z</time></trkpt><trkpt lat="45.668572023090256" lon="10.952398173740367"><ele>1229.0</ele><time>2026-04-22T07:27:15Z</time></trkpt><trkpt lat="45.66848721524937" lon="10.952471413707606"><ele>1229.0</ele><time>2026-04-22T07:27:16Z</time></trkpt><trkpt lat="45.668390089005825" lon="10.952546022133983"><ele>1229.0</ele><time>2026-04-22T07:27:17Z</time></trkpt><trkpt lat="45.668286964048065" lon="10.952623943511409"><ele>1232.5</ele><time>2026-04-22T07:27:18Z</time></trkpt><trkpt lat="45.66818535584089" lon="10.952700482555592"><ele>1236.0</ele><time>2026-04-22T07:27:19Z</time></trkpt><trkpt lat="45.66807811982606" lon="10.952781848957587"><ele>1239.5</ele><time>2026-04-22T07:27:20Z</time></trkpt><trkpt lat="45.667969765516034" lon="10.952867600936926"><ele>1243.0</ele><time>2026-04-22T07:27:21Z</time></trkpt><trkpt lat="45.66785348345862" lon="10.952941754059502"><ele>1237.25</ele><time>2026-04-22T07:27:22Z</time></trkpt><trkpt lat="45.667744308254825" lon="10.953030546101877"><ele>1231.5</ele><time>2026-04-22T07:27:23Z</time></trkpt><trkpt lat="45.66763459465559" lon="10.953122185776422"><ele>1225.75</ele><time>2026-04-22T07:27:24Z</time></trkpt><trkpt lat="45.66752334920427" lon="10.953207370906691"><ele>1220.0</ele><time>2026-04-22T07:27:25Z</time></trkpt><trkpt lat="45.66741709879307" lon="10.953285991098683"><ele>1220.0</ele><time>2026-04-22T07:27:26Z</time></trkpt><trkpt lat="45.66731101355548" lon="10.953363068999387"><ele>1220.0</ele><time>2026-04-22T07:27:27Z</time></trkpt><trkpt lat="45.66721839480004" lon="10.953436488679419"><ele>1220.0</ele><time>2026-04-22T07:27:28Z</time></trkpt><trkpt lat="45.66712194131743" lon="10.953503086176534"><ele>1220.0</ele><time>2026-04-22T07:27:29Z</time></trkpt><trkpt lat="45.66704680768402" lon="10.9535516323556"><ele>1220.0</ele><time>2026-04-22T07:27:30Z</time></trkpt><trkpt lat="45.666979234101724" lon="10.953612364754518"><ele>1222.6666666666667</ele><time>2026-04-22T07:27:31Z</time></trkpt><trkpt lat="45.66691342633896" lon="10.953676415248523"><ele>1225.3333333333335</ele><time>2026-04-22T07:27:32Z</time></trkpt><trkpt lat="45.666850317876616" lon="10.953740551113325"><ele>1228.0</ele><time>2026-04-22T07:27:33Z</time></trkpt><trkpt lat="45.66679233654373" lon="10.953829607745739"><ele>1230.6666666666667</ele><time>2026-04-22T07:27:34Z</time></trkpt><trkpt lat="45.666739476393204" lon="10.953931863452437"><ele>1233.3333333333333</ele><time>2026-04-22T07:27:35Z</time></trkpt><trkpt lat="45.666652962588834" lon="10.954028384743737"><ele>1236.0</ele><time>2026-04-22T07:27:36Z</time></trkpt><trkpt lat="45.666573941422854" lon="10.954165013198873"><ele>1246.6666666666667</ele><time>2026-04-22T07:27:37Z</time></trkpt><trkpt lat="45.6665300788485" lon="10.954256133620108"><ele>1257.3333333333335</ele><time>2026-04-22T07:27:38Z</time></trkpt><trkpt lat="45.66635337961177" lon="10.954579036805505"><ele>1268.0</ele><time>2026-04-22T07:27:39Z</time></trkpt><trkpt lat="45.66628679876864" lon="10.954720262841523"><ele>1268.0</ele><time>2026-04-22T07:27:40Z</time></trkpt><trkpt lat="45.666220841242186" lon="10.954854153358495"><ele>1268.0</ele><time>2026-04-22T07:27:41Z</time></trkpt><trkpt lat="45.66615298645313" lon="10.954976883033435"><ele>1268.0</ele><time>2026-04-22T07:27:42Z</time></trkpt><trkpt lat="45.666088835917385" lon="10.955104957200529"><ele>1268.0</ele><time>2026-04-22T07:27:43Z</time></trkpt><trkpt lat="45.666030947229565" lon="10.955245988643323"><ele>1268.0</ele><time>2026-04-22T07:27:44Z</time></trkpt><trkpt lat="45.66597825202807" lon="10.955387491297632"><ele>1267.4</ele><time>2026-04-22T07:27:45Z</time></trkpt><trkpt lat="45.665928256515734" lon="10.955525789488249"><ele>1266.8</ele><time>2026-04-22T07:27:46Z</time></trkpt><trkpt lat="45.665884289220614" lon="10.95567243257174"><ele>1266.2</ele><time>2026-04-22T07:27:47Z</time></trkpt><trkpt lat="45.66584582496672" lon="10.955825867379973"><ele>1265.6</ele><time>2026-04-22T07:27:48Z</time></trkpt><trkpt lat="45.665810274761796" lon="10.955979866853221"><ele>1265.0</ele><time>2026-04-22T07:27:49Z</time></trkpt><trkpt lat="45.66577594476556" lon="10.956136205086565"><ele>1265.0</ele><time>2026-04-22T07:27:50Z</time></trkpt><trkpt lat="45.66574163275243" lon="10.956295928758397"><ele>1265.0</ele><time>2026-04-22T07:27:51Z</time></trkpt><trkpt lat="45.66571376260405" lon="10.956462882021167"><ele>1265.0</ele><time>2026-04-22T07:27:52Z</time></trkpt><trkpt lat="45.66568398617193" lon="10.956618811023468"><ele>1265.0</ele><time>2026-04-22T07:27:53Z</time></trkpt><trkpt lat="45.66565145553251" lon="10.956772158682766"><ele>1268.4</ele><time>2026-04-22T07:27:54Z</time></trkpt><trkpt lat="45.66562074712987" lon="10.956923476326889"><ele>1271.8</ele><time>2026-04-22T07:27:55Z</time></trkpt><trkpt lat="45.66558567393747" lon="10.957069640394627"><ele>1275.1999999999998</ele><time>2026-04-22T07:27:56Z</time></trkpt><trkpt lat="45.6655331237922" lon="10.957199800998888"><ele>1278.6</ele><time>2026-04-22T07:27:57Z</time></trkpt><trkpt lat="45.6654893887358" lon="10.957342532655124"><ele>1282.0</ele><time>2026-04-22T07:27:58Z</time></trkpt><trkpt lat="45.66540803513632" lon="10.957455703082301"><ele>1287.1999999999998</ele><time>2026-04-22T07:27:59Z</time></trkpt><trkpt lat="45.665345054727105" lon="10.957559033526296"><ele>1292.4</ele><time>2026-04-22T07:28:00Z</time></trkpt><trkpt lat="45.665339286110765" lon="10.957700111139525"><ele>1297.6</ele><time>2026-04-22T07:28:01Z</time></trkpt><trkpt lat="45.665316292865285" lon="10.957831539500827"><ele>1302.8000000000002</ele><time>2026-04-22T07:28:02Z</time></trkpt><trkpt lat="45.66530264404366" lon="10.95795595549445"><ele>1308.0</ele><time>2026-04-22T07:28:03Z</time></trkpt><trkpt lat="45.665283613125276" lon="10.958080854312229"><ele>1311.0</ele><time>2026-04-22T07:28:04Z</time></trkpt><trkpt lat="45.66526214353833" lon="10.958202906032138"><ele>1314.0</ele><time>2026-04-22T07:28:05Z</time></trkpt><trkpt lat="45.66524599678551" lon="10.958311376528385"><ele>1317.0</ele><time>2026-04-22T07:28:06Z</time></trkpt><trkpt lat="45.665213075423246" lon="10.958451401589713"><ele>1320.0</ele><time>2026-04-22T07:28:08Z</time></trkpt><trkpt lat="45.665221112627485" lon="10.958543024580102"><ele>1323.0</ele><time>2026-04-22T07:28:10Z</time></trkpt><trkpt lat="45.665287696870024" lon="10.958591213964922"><ele>1326.0</ele><time>2026-04-22T07:28:13Z</time></trkpt><trkpt lat="45.66535197417339" lon="10.958505807058003"><ele>1323.0</ele><time>2026-04-22T07:28:15Z</time></trkpt><trkpt lat="45.66537463910942" lon="10.958365015975252"><ele>1320.0</ele><time>2026-04-22T07:28:17Z</time></trkpt><trkpt lat="45.66540259114445" lon="10.95826379822105"><ele>1317.0</ele><time>2026-04-22T07:28:19Z</time></trkpt><trkpt lat="45.66542521012251" lon="10.958156715408176"><ele>1314.0</ele><time>2026-04-22T07:28:21Z</time></trkpt><trkpt lat="45.66547033853562" lon="10.958054083269937"><ele>1311.0</ele><time>2026-04-22T07:28:23Z</time></trkpt><trkpt lat="45.66551266502864" lon="10.957947289053225"><ele>1308.0</ele><time>2026-04-22T07:28:25Z</time></trkpt><trkpt lat="45.665563793364726" lon="10.957857259372362"><ele>1308.0</ele><time>2026-04-22T07:28:27Z</time></trkpt><trkpt lat="45.66560918624672" lon="10.957760407907715"><ele>1308.0</ele><time>2026-04-22T07:28:29Z</time></trkpt><trkpt lat="45.665655379535785" lon="10.957695760867201"><ele>1308.0</ele><time>2026-04-22T07:28:31Z</time></trkpt><trkpt lat="45.66571625339801" lon="10.957611292825021"><ele>1308.0</ele><time>2026-04-22T07:28:33Z</time></trkpt><trkpt lat="45.66579066203123" lon="10.957540764645623"><ele>1308.0</ele><time>2026-04-22T07:28:35Z</time></trkpt><trkpt lat="45.66587451779573" lon="10.957447547939958"><ele>1308.0</ele><time>2026-04-22T07:28:37Z</time></trkpt><trkpt lat="45.665967845341825" lon="10.957360004510676"><ele>1303.6666666666667</ele><time>2026-04-22T07:28:39Z</time></trkpt><trkpt lat="45.666030001300946" lon="10.957253943730317"><ele>1299.3333333333333</ele><time>2026-04-22T07:28:41Z</time></trkpt><trkpt lat="45.66609300457797" lon="10.957204151345051"><ele>1295.0</ele><time>2026-04-22T07:28:42Z</time></trkpt><trkpt lat="45.66617166748212" lon="10.957071541690874"><ele>1290.6666666666665</ele><time>2026-04-22T07:28:44Z</time></trkpt><trkpt lat="45.66620553250191" lon="10.956992861472758"><ele>1286.3333333333333</ele><time>2026-04-22T07:28:45Z</time></trkpt><trkpt lat="45.6662363000583" lon="10.956907453212267"><ele>1282.0</ele><time>2026-04-22T07:28:46Z</time></trkpt><trkpt lat="45.666248087293305" lon="10.956815504464585"><ele>1288.6</ele><time>2026-04-22T07:28:47Z</time></trkpt><trkpt lat="45.666297888452746" lon="10.956668709705903"><ele>1295.1999999999998</ele><time>2026-04-22T07:28:49Z</time></trkpt><trkpt lat="45.66635719606094" lon="10.956547202971674"><ele>1301.8</ele><time>2026-04-22T07:28:51Z</time></trkpt><trkpt lat="45.66640297796227" lon="10.956425539793136"><ele>1308.4</ele><time>2026-04-22T07:28:53Z</time></trkpt><trkpt lat="45.66646122337799" lon="10.956313914675933"><ele>1315.0</ele><time>2026-04-22T07:28:55Z</time></trkpt><trkpt lat="45.66651846750778" lon="10.956196506260953"><ele>1315.0</ele><time>2026-04-22T07:28:57Z</time></trkpt><trkpt lat="45.666586661986045" lon="10.956074845795415"><ele>1315.0</ele><time>2026-04-22T07:28:59Z</time></trkpt><trkpt lat="45.66666086421361" lon="10.955953854243553"><ele>1315.0</ele><time>2026-04-22T07:29:01Z</time></trkpt><trkpt lat="45.6667402855588" lon="10.955828819870478"><ele>1315.0</ele><time>2026-04-22T07:29:03Z</time></trkpt><trkpt lat="45.66683203095838" lon="10.955725012034478"><ele>1320.25</ele><time>2026-04-22T07:29:05Z</time></trkpt><trkpt lat="45.66692839856641" lon="10.955639746656615"><ele>1325.5</ele><time>2026-04-22T07:29:07Z</time></trkpt><trkpt lat="45.66703736594491" lon="10.955587205103013"><ele>1330.75</ele><time>2026-04-22T07:29:09Z</time></trkpt><trkpt lat="45.66713734758751" lon="10.95549013527044"><ele>1336.0</ele><time>2026-04-22T07:29:11Z</time></trkpt><trkpt lat="45.66720991557216" lon="10.955375757415458"><ele>1336.0</ele><time>2026-04-22T07:29:13Z</time></trkpt><trkpt lat="45.66728932840601" lon="10.955282877830467"><ele>1336.0</ele><time>2026-04-22T07:29:15Z</time></trkpt><trkpt lat="45.66736864119755" lon="10.955189416554045"><ele>1336.0</ele><time>2026-04-22T07:29:17Z</time></trkpt><trkpt lat="45.66745746242507" lon="10.955120708784298"><ele>1336.0</ele><time>2026-04-22T07:29:19Z</time></trkpt><trkpt lat="45.66753203531623" lon="10.955052320403892"><ele>1336.0</ele><time>2026-04-22T07:29:21Z</time></trkpt><trkpt lat="45.6676088260029" lon="10.955056361266555"><ele>1336.0</ele><time>2026-04-22T07:29:23Z</time></trkpt><trkpt lat="45.66768964520643" lon="10.95507669827115"><ele>1336.0</ele><time>2026-04-22T07:29:25Z</time></trkpt><trkpt lat="45.66778107049164" lon="10.95510020176689"><ele>1336.0</ele><time>2026-04-22T07:29:27Z</time></trkpt><trkpt lat="45.667884888925656" lon="10.955131808085515"><ele>1336.0</ele><time>2026-04-22T07:29:29Z</time></trkpt><trkpt lat="45.668005265329924" lon="10.955135237289493"><ele>1336.0</ele><time>2026-04-22T07:29:31Z</time></trkpt><trkpt lat="45.668132742517614" lon="10.955089501823998"><ele>1333.3333333333333</ele><time>2026-04-22T07:29:33Z</time></trkpt><trkpt lat="45.6681956786684" lon="10.955025768676112"><ele>1330.6666666666665</ele><time>2026-04-22T07:29:34Z</time></trkpt><trkpt lat="45.66826450019586" lon="10.954966753762392"><ele>1328.0</ele><time>2026-04-22T07:29:35Z</time></trkpt><trkpt lat="45.66834688805701" lon="10.95492713986094"><ele>1325.3333333333333</ele><time>2026-04-22T07:29:36Z</time></trkpt><trkpt lat="45.668421938759934" lon="10.954906653168727"><ele>1322.6666666666667</ele><time>2026-04-22T07:29:37Z</time></trkpt><trkpt lat="45.66848387420397" lon="10.95488984792197"><ele>1320.0</ele><time>2026-04-22T07:29:38Z</time></trkpt><trkpt lat="45.66857037096233" lon="10.954866378335991"><ele>1323.0</ele><time>2026-04-22T07:29:40Z</time></trkpt><trkpt lat="45.6686884347986" lon="10.954834292228817"><ele>1326.0</ele><time>2026-04-22T07:29:43Z</time></trkpt><trkpt lat="45.668780511157124" lon="10.954812080380261"><ele>1329.0</ele><time>2026-04-22T07:29:45Z</time></trkpt><trkpt lat="45.66886299140714" lon="10.95479635866075"><ele>1332.0</ele><time>2026-04-22T07:29:47Z</time></trkpt><trkpt lat="45.66894660862837" lon="10.954780119708326"><ele>1335.0</ele><time>2026-04-22T07:29:49Z</time></trkpt><trkpt lat="45.669069427155655" lon="10.954789464843552"><ele>1335.0</ele><time>2026-04-22T07:29:51Z</time></trkpt><trkpt lat="45.66913890940338" lon="10.95480799479356"><ele>1335.0</ele><time>2026-04-22T07:29:53Z</time></trkpt><trkpt lat="45.66923929208922" lon="10.954825719421782"><ele>1335.0</ele><time>2026-04-22T07:29:55Z</time></trkpt><trkpt lat="45.6693285831341" lon="10.95485328187054"><ele>1335.0</ele><time>2026-04-22T07:29:57Z</time></trkpt><trkpt lat="45.66939871318329" lon="10.954907449956385"><ele>1335.0</ele><time>2026-04-22T07:29:59Z</time></trkpt><trkpt lat="45.66948867027228" lon="10.954926989847415"><ele>1335.0</ele><time>2026-04-22T07:30:01Z</time></trkpt><trkpt lat="45.669663905205965" lon="10.954860793269612"><ele>1338.0</ele><time>2026-04-22T07:30:04Z</time></trkpt><trkpt lat="45.669761468474" lon="10.954804611820224"><ele>1341.0</ele><time>2026-04-22T07:30:06Z</time></trkpt><trkpt lat="45.669813868542604" lon="10.954754497951127"><ele>1344.0</ele><time>2026-04-22T07:30:07Z</time></trkpt><trkpt lat="45.6698941397963" lon="10.954712101098405"><ele>1347.0</ele><time>2026-04-22T07:30:09Z</time></trkpt><trkpt lat="45.66997206341348" lon="10.954658578472896"><ele>1350.0</ele><time>2026-04-22T07:30:11Z</time></trkpt><trkpt lat="45.67006571196327" lon="10.954601890809478"><ele>1353.0</ele><time>2026-04-22T07:30:13Z</time></trkpt><trkpt lat="45.670128918587864" lon="10.954596318767576"><ele>1353.0</ele><time>2026-04-22T07:30:14Z</time></trkpt><trkpt lat="45.67021886867256" lon="10.954578847675638"><ele>1353.0</ele><time>2026-04-22T07:30:16Z</time></trkpt><trkpt lat="45.67032904438051" lon="10.954577681229015"><ele>1353.0</ele><time>2026-04-22T07:30:18Z</time></trkpt><trkpt lat="45.67044878402726" lon="10.954546321112904"><ele>1353.0</ele><time>2026-04-22T07:30:20Z</time></trkpt><trkpt lat="45.6705615436976" lon="10.954538418011495"><ele>1353.0</ele><time>2026-04-22T07:30:22Z</time></trkpt><trkpt lat="45.67068431347644" lon="10.954518364559947"><ele>1355.3333333333333</ele><time>2026-04-22T07:30:24Z</time></trkpt><trkpt lat="45.67074776563335" lon="10.954506506291295"><ele>1357.6666666666667</ele><time>2026-04-22T07:30:25Z</time></trkpt><trkpt lat="45.67081056343139" lon="10.954486496664883"><ele>1360.0</ele><time>2026-04-22T07:30:26Z</time></trkpt><trkpt lat="45.67092384797551" lon="10.95445381854606"><ele>1362.3333333333335</ele><time>2026-04-22T07:30:28Z</time></trkpt><trkpt lat="45.671011371044536" lon="10.954454902414911"><ele>1364.6666666666667</ele><time>2026-04-22T07:30:30Z</time></trkpt><trkpt lat="45.67109569038298" lon="10.954442084279478"><ele>1367.0</ele><time>2026-04-22T07:30:32Z</time></trkpt><trkpt lat="45.67118477573282" lon="10.954440335559188"><ele>1369.0</ele><time>2026-04-22T07:30:34Z</time></trkpt><trkpt lat="45.67127981988625" lon="10.954450495913479"><ele>1371.0</ele><time>2026-04-22T07:30:36Z</time></trkpt><trkpt lat="45.67135426079396" lon="10.954457290695068"><ele>1373.0</ele><time>2026-04-22T07:30:38Z</time></trkpt><trkpt lat="45.67144132674802" lon="10.954469795863222"><ele>1375.0</ele><time>2026-04-22T07:30:40Z</time></trkpt><trkpt lat="45.671532503019876" lon="10.954498258047105"><ele>1377.0</ele><time>2026-04-22T07:30:42Z</time></trkpt><trkpt lat="45.6716334410141" lon="10.954544809259708"><ele>1377.0</ele><time>2026-04-22T07:30:44Z</time></trkpt><trkpt lat="45.67173874536379" lon="10.95456125883348"><ele>1377.0</ele><time>2026-04-22T07:30:46Z</time></trkpt><trkpt lat="45.671848868805625" lon="10.954587154854737"><ele>1377.0</ele><time>2026-04-22T07:30:48Z</time></trkpt><trkpt lat="45.67196037466546" lon="10.954636875795142"><ele>1377.0</ele><time>2026-04-22T07:30:50Z</time></trkpt><trkpt lat="45.672053534799105" lon="10.954656411923494"><ele>1377.0</ele><time>2026-04-22T07:30:52Z</time></trkpt><trkpt lat="45.67215845749887" lon="10.954695139631825"><ele>1376.6</ele><time>2026-04-22T07:30:54Z</time></trkpt><trkpt lat="45.67225907505385" lon="10.954721776835479"><ele>1376.1999999999998</ele><time>2026-04-22T07:30:56Z</time></trkpt><trkpt lat="45.67231882344401" lon="10.954765859895872"><ele>1375.8</ele><time>2026-04-22T07:30:57Z</time></trkpt><trkpt lat="45.67244016378156" lon="10.954754284451615"><ele>1375.4</ele><time>2026-04-22T07:30:59Z</time></trkpt><trkpt lat="45.67254901333812" lon="10.954738918970923"><ele>1375.0</ele><time>2026-04-22T07:31:01Z</time></trkpt><trkpt lat="45.672662018126374" lon="10.954741673212828"><ele>1375.0</ele><time>2026-04-22T07:31:03Z</time></trkpt><trkpt lat="45.67277157175557" lon="10.954737311993343"><ele>1375.0</ele><time>2026-04-22T07:31:05Z</time></trkpt><trkpt lat="45.67288507159769" lon="10.954757546639842"><ele>1375.0</ele><time>2026-04-22T07:31:07Z</time></trkpt><trkpt lat="45.67300751533438" lon="10.954778717275934"><ele>1375.0</ele><time>2026-04-22T07:31:09Z</time></trkpt><trkpt lat="45.67310960007617" lon="10.95479299989748"><ele>1375.0</ele><time>2026-04-22T07:31:11Z</time></trkpt><trkpt lat="45.67320099936775" lon="10.954801220120686"><ele>1375.0</ele><time>2026-04-22T07:31:13Z</time></trkpt><trkpt lat="45.67329303347204" lon="10.95484033245171"><ele>1375.0</ele><time>2026-04-22T07:31:15Z</time></trkpt><trkpt lat="45.6733846627367" lon="10.954896105369864"><ele>1375.0</ele><time>2026-04-22T07:31:17Z</time></trkpt><trkpt lat="45.673466301992384" lon="10.954958972784189"><ele>1375.0</ele><time>2026-04-22T07:31:19Z</time></trkpt><trkpt lat="45.67355307347357" lon="10.955016184935772"><ele>1378.2</ele><time>2026-04-22T07:31:21Z</time></trkpt><trkpt lat="45.673645010816436" lon="10.955066894850054"><ele>1381.4</ele><time>2026-04-22T07:31:23Z</time></trkpt><trkpt lat="45.673721431777466" lon="10.955128403869876"><ele>1384.6</ele><time>2026-04-22T07:31:25Z</time></trkpt><trkpt lat="45.67379503733136" lon="10.955204976047478"><ele>1387.8</ele><time>2026-04-22T07:31:27Z</time></trkpt><trkpt lat="45.67386252537228" lon="10.9552960692496"><ele>1391.0</ele><time>2026-04-22T07:31:29Z</time></trkpt><trkpt lat="45.673922226535346" lon="10.955419059101478"><ele>1391.0</ele><time>2026-04-22T07:31:31Z</time></trkpt><trkpt lat="45.6739615185443" lon="10.955495203153426"><ele>1391.0</ele><time>2026-04-22T07:31:32Z</time></trkpt><trkpt lat="45.67403698997401" lon="10.955642804726722"><ele>1391.0</ele><time>2026-04-22T07:31:34Z</time></trkpt><trkpt lat="45.674078278471804" lon="10.955717476498762"><ele>1391.0</ele><time>2026-04-22T07:31:35Z</time></trkpt><trkpt lat="45.67415367492819" lon="10.955849846716768"><ele>1391.0</ele><time>2026-04-22T07:31:37Z</time></trkpt><trkpt lat="45.67422946540662" lon="10.955989425348934"><ele>1393.0</ele><time>2026-04-22T07:31:39Z</time></trkpt><trkpt lat="45.67429861026733" lon="10.956131499532374"><ele>1395.0</ele><time>2026-04-22T07:31:41Z</time></trkpt><trkpt lat="45.67437694988862" lon="10.956248123881783"><ele>1397.0</ele><time>2026-04-22T07:31:43Z</time></trkpt><trkpt lat="45.67444587310377" lon="10.956335968849238"><ele>1399.0</ele><time>2026-04-22T07:31:45Z</time></trkpt><trkpt lat="45.6745215481162" lon="10.956407860324772"><ele>1401.0</ele><time>2026-04-22T07:31:47Z</time></trkpt><trkpt lat="45.67458673030012" lon="10.956481108410358"><ele>1401.0</ele><time>2026-04-22T07:31:49Z</time></trkpt><trkpt lat="45.67463779111625" lon="10.956602561925394"><ele>1401.0</ele><time>2026-04-22T07:31:51Z</time></trkpt><trkpt lat="45.674679012209715" lon="10.95677507193759"><ele>1401.0</ele><time>2026-04-22T07:31:53Z</time></trkpt><trkpt lat="45.67469395881501" lon="10.95686336587933"><ele>1401.0</ele><time>2026-04-22T07:31:54Z</time></trkpt><trkpt lat="45.67474520306945" lon="10.957013555682206"><ele>1401.0</ele><time>2026-04-22T07:31:56Z</time></trkpt><trkpt lat="45.67478469154071" lon="10.957095889439694"><ele>1402.1666666666667</ele><time>2026-04-22T07:31:57Z</time></trkpt><trkpt lat="45.67483031713022" lon="10.957180045664039"><ele>1403.3333333333333</ele><time>2026-04-22T07:31:58Z</time></trkpt><trkpt lat="45.67486486382124" lon="10.957265567072712"><ele>1404.5</ele><time>2026-04-22T07:31:59Z</time></trkpt><trkpt lat="45.67490180961064" lon="10.9573424143221"><ele>1405.6666666666665</ele><time>2026-04-22T07:32:00Z</time></trkpt><trkpt lat="45.67498743316055" lon="10.95747851706944"><ele>1406.8333333333333</ele><time>2026-04-22T07:32:02Z</time></trkpt><trkpt lat="45.675049686755465" lon="10.957540118500692"><ele>1408.0</ele><time>2026-04-22T07:32:03Z</time></trkpt><trkpt lat="45.67509386022356" lon="10.95760517697886"><ele>1409.6000000000001</ele><time>2026-04-22T07:32:04Z</time></trkpt><trkpt lat="45.675154910913115" lon="10.957669549490802"><ele>1411.2</ele><time>2026-04-22T07:32:05Z</time></trkpt><trkpt lat="45.67521115535154" lon="10.957734182434146"><ele>1412.8</ele><time>2026-04-22T07:32:06Z</time></trkpt><trkpt lat="45.6752682295872" lon="10.957785107661863"><ele>1414.4</ele><time>2026-04-22T07:32:07Z</time></trkpt><trkpt lat="45.6753697388576" lon="10.957868808740525"><ele>1416.0</ele><time>2026-04-22T07:32:09Z</time></trkpt><trkpt lat="45.675489478610174" lon="10.95792896462966"><ele>1416.0</ele><time>2026-04-22T07:32:11Z</time></trkpt><trkpt lat="45.6755517546385" lon="10.95796726740075"><ele>1416.0</ele><time>2026-04-22T07:32:12Z</time></trkpt><trkpt lat="45.67560879488998" lon="10.958015559603833"><ele>1416.0</ele><time>2026-04-22T07:32:13Z</time></trkpt><trkpt lat="45.67570812221679" lon="10.95808528810701"><ele>1416.0</ele><time>2026-04-22T07:32:15Z</time></trkpt><trkpt lat="45.675790992657795" lon="10.958161790908454"><ele>1416.0</ele><time>2026-04-22T07:32:17Z</time></trkpt><trkpt lat="45.675868534443524" lon="10.958312338411309"><ele>1416.3333333333333</ele><time>2026-04-22T07:32:19Z</time></trkpt><trkpt lat="45.6759090757614" lon="10.958397112698927"><ele>1416.6666666666667</ele><time>2026-04-22T07:32:20Z</time></trkpt><trkpt lat="45.67594640758538" lon="10.958479940928072"><ele>1417.0</ele><time>2026-04-22T07:32:21Z</time></trkpt><trkpt lat="45.67598026095173" lon="10.958569137038277"><ele>1417.3333333333335</ele><time>2026-04-22T07:32:22Z</time></trkpt><trkpt lat="45.67601653481821" lon="10.958662259205298"><ele>1417.6666666666667</ele><time>2026-04-22T07:32:23Z</time></trkpt><trkpt lat="45.67605854077869" lon="10.958767958044"><ele>1418.0</ele><time>2026-04-22T07:32:24Z</time></trkpt><trkpt lat="45.67610095852466" lon="10.95888756042629"><ele>1416.8000000000002</ele><time>2026-04-22T07:32:25Z</time></trkpt><trkpt lat="45.67614348415705" lon="10.959023854601668"><ele>1415.6</ele><time>2026-04-22T07:32:26Z</time></trkpt><trkpt lat="45.67618228797292" lon="10.959152769983682"><ele>1414.4</ele><time>2026-04-22T07:32:27Z</time></trkpt><trkpt lat="45.676219454630335" lon="10.959282657652498"><ele>1413.1999999999998</ele><time>2026-04-22T07:32:28Z</time></trkpt><trkpt lat="45.67625265033825" lon="10.959413765117482"><ele>1412.0</ele><time>2026-04-22T07:32:29Z</time></trkpt><trkpt lat="45.676284098654655" lon="10.959548143818223"><ele>1411.8333333333335</ele><time>2026-04-22T07:32:30Z</time></trkpt><trkpt lat="45.676313765086455" lon="10.959680868391203"><ele>1411.6666666666667</ele><time>2026-04-22T07:32:31Z</time></trkpt><trkpt lat="45.67634214893852" lon="10.95981145408254"><ele>1411.5</ele><time>2026-04-22T07:32:32Z</time></trkpt><trkpt lat="45.67636461411344" lon="10.959936024174102"><ele>1411.3333333333333</ele><time>2026-04-22T07:32:33Z</time></trkpt><trkpt lat="45.676390274193494" lon="10.960051535285425"><ele>1411.1666666666665</ele><time>2026-04-22T07:32:34Z</time></trkpt><trkpt lat="45.676429077457016" lon="10.960153376833793"><ele>1411.0</ele><time>2026-04-22T07:32:35Z</time></trkpt><trkpt lat="45.67647961913806" lon="10.960298651876212"><ele>1411.6</ele><time>2026-04-22T07:32:36Z</time></trkpt><trkpt lat="45.67654169939906" lon="10.96040379521837"><ele>1412.1999999999998</ele><time>2026-04-22T07:32:37Z</time></trkpt><trkpt lat="45.67661297568335" lon="10.960499056818053"><ele>1412.8000000000002</ele><time>2026-04-22T07:32:38Z</time></trkpt><trkpt lat="45.67667977506506" lon="10.960592238938677"><ele>1413.4</ele><time>2026-04-22T07:32:39Z</time></trkpt><trkpt lat="45.676725985310036" lon="10.96069040704497"><ele>1414.0</ele><time>2026-04-22T07:32:40Z</time></trkpt><trkpt lat="45.676764274123904" lon="10.96080150411157"><ele>1415.0</ele><time>2026-04-22T07:32:41Z</time></trkpt><trkpt lat="45.676772850086905" lon="10.96093229847713"><ele>1416.0</ele><time>2026-04-22T07:32:42Z</time></trkpt><trkpt lat="45.67678333016623" lon="10.961052346956949"><ele>1417.0</ele><time>2026-04-22T07:32:43Z</time></trkpt><trkpt lat="45.676794348297854" lon="10.961177335497164"><ele>1418.0</ele><time>2026-04-22T07:32:44Z</time></trkpt><trkpt lat="45.676802764536994" lon="10.961272808698372"><ele>1419.0</ele><time>2026-04-22T07:32:45Z</time></trkpt><trkpt lat="45.67683715268909" lon="10.961421077048968"><ele>1420.0</ele><time>2026-04-22T07:32:47Z</time></trkpt><trkpt lat="45.67690451516071" lon="10.961538794577677"><ele>1421.6</ele><time>2026-04-22T07:32:49Z</time></trkpt><trkpt lat="45.677000571392774" lon="10.961590783447972"><ele>1423.2</ele><time>2026-04-22T07:32:51Z</time></trkpt><trkpt lat="45.67709169839927" lon="10.961502377736295"><ele>1424.8000000000002</ele><time>2026-04-22T07:32:53Z</time></trkpt><trkpt lat="45.677124896937016" lon="10.96141605409431"><ele>1426.4</ele><time>2026-04-22T07:32:54Z</time></trkpt><trkpt lat="45.677150868768464" lon="10.961293200049058"><ele>1428.0</ele><time>2026-04-22T07:32:55Z</time></trkpt><trkpt lat="45.67718464017909" lon="10.961174802998288"><ele>1428.0</ele><time>2026-04-22T07:32:56Z</time></trkpt><trkpt lat="45.677237740794304" lon="10.961089903630477"><ele>1428.0</ele><time>2026-04-22T07:32:57Z</time></trkpt><trkpt lat="45.67730608268468" lon="10.961056628458975"><ele>1428.0</ele><time>2026-04-22T07:32:58Z</time></trkpt><trkpt lat="45.67737851656171" lon="10.961028347571808"><ele>1428.0</ele><time>2026-04-22T07:32:59Z</time></trkpt><trkpt lat="45.67745114061799" lon="10.96103668451891"><ele>1428.0</ele><time>2026-04-22T07:33:00Z</time></trkpt><trkpt lat="45.67752780946931" lon="10.96101802137263"><ele>1428.0</ele><time>2026-04-22T07:33:01Z</time></trkpt><trkpt lat="45.677600320623654" lon="10.961034935710899"><ele>1428.0</ele><time>2026-04-22T07:33:02Z</time></trkpt><trkpt lat="45.67767240374236" lon="10.961065844344104"><ele>1428.0</ele><time>2026-04-22T07:33:03Z</time></trkpt><trkpt lat="45.67774548521285" lon="10.961114813014436"><ele>1428.0</ele><time>2026-04-22T07:33:04Z</time></trkpt><trkpt lat="45.6778040780393" lon="10.96119784486583"><ele>1428.0</ele><time>2026-04-22T07:33:05Z</time></trkpt><trkpt lat="45.67786732787378" lon="10.961270006581792"><ele>1428.0</ele><time>2026-04-22T07:33:06Z</time></trkpt><trkpt lat="45.67792799208716" lon="10.961354796128752"><ele>1428.0</ele><time>2026-04-22T07:33:07Z</time></trkpt><trkpt lat="45.67798699168805" lon="10.961432491291358"><ele>1428.4</ele><time>2026-04-22T07:33:08Z</time></trkpt><trkpt lat="45.67803146074" lon="10.961543441197232"><ele>1428.8000000000002</ele><time>2026-04-22T07:33:09Z</time></trkpt><trkpt lat="45.6780722272988" lon="10.961646604013884"><ele>1429.2</ele><time>2026-04-22T07:33:10Z</time></trkpt><trkpt lat="45.67811516486291" lon="10.96175161200514"><ele>1429.6</ele><time>2026-04-22T07:33:11Z</time></trkpt><trkpt lat="45.678159920948595" lon="10.961853727355328"><ele>1430.0</ele><time>2026-04-22T07:33:12Z</time></trkpt><trkpt lat="45.67827762760908" lon="10.962143262673035"><ele>1432.0</ele><time>2026-04-22T07:33:15Z</time></trkpt><trkpt lat="45.67830685371443" lon="10.962239868923541"><ele>1434.0</ele><time>2026-04-22T07:33:16Z</time></trkpt><trkpt lat="45.678347831134616" lon="10.962336076974143"><ele>1436.0</ele><time>2026-04-22T07:33:17Z</time></trkpt><trkpt lat="45.67836560085726" lon="10.962457841863342"><ele>1438.0</ele><time>2026-04-22T07:33:18Z</time></trkpt><trkpt lat="45.6783782501338" lon="10.962584353037961"><ele>1440.0</ele><time>2026-04-22T07:33:19Z</time></trkpt><trkpt lat="45.67838635076923" lon="10.9627197984787"><ele>1442.0</ele><time>2026-04-22T07:33:20Z</time></trkpt><trkpt lat="45.6783949022042" lon="10.962851888957962"><ele>1444.3999999999999</ele><time>2026-04-22T07:33:21Z</time></trkpt><trkpt lat="45.67840958955115" lon="10.962994806497177"><ele>1446.8</ele><time>2026-04-22T07:33:22Z</time></trkpt><trkpt lat="45.678428286851315" lon="10.96312692000973"><ele>1449.2</ele><time>2026-04-22T07:33:23Z</time></trkpt><trkpt lat="45.6784452629983" lon="10.96324840783758"><ele>1451.6</ele><time>2026-04-22T07:33:24Z</time></trkpt><trkpt lat="45.678457654634" lon="10.963346543759982"><ele>1454.0</ele><time>2026-04-22T07:33:25Z</time></trkpt><trkpt lat="45.67847853433168" lon="10.963507657630227"><ele>1454.5714285714284</ele><time>2026-04-22T07:33:27Z</time></trkpt><trkpt lat="45.678506285854155" lon="10.963610220993836"><ele>1455.1428571428573</ele><time>2026-04-22T07:33:29Z</time></trkpt><trkpt lat="45.67854197308152" lon="10.963705347409201"><ele>1455.7142857142858</ele><time>2026-04-22T07:33:31Z</time></trkpt><trkpt lat="45.67861107800326" lon="10.96369602758183"><ele>1456.2857142857142</ele><time>2026-04-22T07:33:33Z</time></trkpt><trkpt lat="45.67868197178495" lon="10.963645070896165"><ele>1456.8571428571427</ele><time>2026-04-22T07:33:35Z</time></trkpt><trkpt lat="45.67870209708148" lon="10.963556066988879"><ele>1457.4285714285716</ele><time>2026-04-22T07:33:36Z</time></trkpt><trkpt lat="45.67872473891386" lon="10.963464223131146"><ele>1458.0</ele><time>2026-04-22T07:33:37Z</time></trkpt><trkpt lat="45.678748957204014" lon="10.963361939178753"><ele>1458.0</ele><time>2026-04-22T07:33:38Z</time></trkpt><trkpt lat="45.67877108417346" lon="10.963264206096946"><ele>1458.0</ele><time>2026-04-22T07:33:39Z</time></trkpt><trkpt lat="45.67879820747508" lon="10.963174369708655"><ele>1458.0</ele><time>2026-04-22T07:33:40Z</time></trkpt><trkpt lat="45.67887259150748" lon="10.963044729649564"><ele>1458.0</ele><time>2026-04-22T07:33:42Z</time></trkpt><trkpt lat="45.67898217141433" lon="10.962960733663607"><ele>1458.0</ele><time>2026-04-22T07:33:44Z</time></trkpt><trkpt lat="45.67905395729693" lon="10.96292196159692"><ele>1458.0</ele><time>2026-04-22T07:33:45Z</time></trkpt><trkpt lat="45.67912345277701" lon="10.962871148649866"><ele>1458.0</ele><time>2026-04-22T07:33:46Z</time></trkpt><trkpt lat="45.679180983004485" lon="10.96280793433447"><ele>1458.0</ele><time>2026-04-22T07:33:47Z</time></trkpt><trkpt lat="45.67930251290286" lon="10.962781477244716"><ele>1458.0</ele><time>2026-04-22T07:33:49Z</time></trkpt><trkpt lat="45.67937372647282" lon="10.96281748797728"><ele>1458.0</ele><time>2026-04-22T07:33:50Z</time></trkpt><trkpt lat="45.67945606327801" lon="10.962846171583617"><ele>1458.0</ele><time>2026-04-22T07:33:51Z</time></trkpt><trkpt lat="45.67954694603476" lon="10.96287954638706"><ele>1458.6000000000001</ele><time>2026-04-22T07:33:52Z</time></trkpt><trkpt lat="45.67964211344404" lon="10.962919806360263"><ele>1459.2</ele><time>2026-04-22T07:33:53Z</time></trkpt><trkpt lat="45.67974794680162" lon="10.962966862431026"><ele>1459.8</ele><time>2026-04-22T07:33:54Z</time></trkpt><trkpt lat="45.67985964402786" lon="10.96299985646301"><ele>1460.4</ele><time>2026-04-22T07:33:55Z</time></trkpt><trkpt lat="45.6799644861676" lon="10.963082385372433"><ele>1461.0</ele><time>2026-04-22T07:33:56Z</time></trkpt><trkpt lat="45.68007843298362" lon="10.96312928706531"><ele>1461.0</ele><time>2026-04-22T07:33:57Z</time></trkpt><trkpt lat="45.680182890855804" lon="10.963197321490235"><ele>1461.0</ele><time>2026-04-22T07:33:58Z</time></trkpt><trkpt lat="45.680283431456026" lon="10.963265246999754"><ele>1461.0</ele><time>2026-04-22T07:33:59Z</time></trkpt><trkpt lat="45.68037989415189" lon="10.963326225921776"><ele>1461.0</ele><time>2026-04-22T07:34:00Z</time></trkpt><trkpt lat="45.680468940875684" lon="10.963402755756256"><ele>1461.0</ele><time>2026-04-22T07:34:01Z</time></trkpt><trkpt lat="45.68057408540212" lon="10.963407579661496"><ele>1465.0</ele><time>2026-04-22T07:34:02Z</time></trkpt><trkpt lat="45.680672849445706" lon="10.963428365409182"><ele>1469.0</ele><time>2026-04-22T07:34:03Z</time></trkpt><trkpt lat="45.68076586305707" lon="10.963465622438488"><ele>1473.0</ele><time>2026-04-22T07:34:04Z</time></trkpt><trkpt lat="45.68085863693076" lon="10.9634917544418"><ele>1477.0</ele><time>2026-04-22T07:34:05Z</time></trkpt><trkpt lat="45.68094799319754" lon="10.963487375887212"><ele>1481.0</ele><time>2026-04-22T07:34:06Z</time></trkpt><trkpt lat="45.681024226175985" lon="10.963504854216842"><ele>1481.0</ele><time>2026-04-22T07:34:07Z</time></trkpt><trkpt lat="45.68108943238884" lon="10.963508618655537"><ele>1481.0</ele><time>2026-04-22T07:34:08Z</time></trkpt><trkpt lat="45.681192321772784" lon="10.963494033554383"><ele>1481.0</ele><time>2026-04-22T07:34:10Z</time></trkpt><trkpt lat="45.68126077351759" lon="10.963349376554495"><ele>1481.0</ele><time>2026-04-22T07:34:12Z</time></trkpt><trkpt lat="45.6812829235507" lon="10.963177253083296"><ele>1481.0</ele><time>2026-04-22T07:34:14Z</time></trkpt><trkpt lat="45.68128184010941" lon="10.963085888012325"><ele>1478.5</ele><time>2026-04-22T07:34:15Z</time></trkpt><trkpt lat="45.68128893807484" lon="10.962939027001463"><ele>1476.0</ele><time>2026-04-22T07:34:17Z</time></trkpt><trkpt lat="45.681270890886005" lon="10.962827611655115"><ele>1473.5</ele><time>2026-04-22T07:34:20Z</time></trkpt><trkpt lat="45.681264946669266" lon="10.962728896754493"><ele>1471.0</ele><time>2026-04-22T07:34:22Z</time></trkpt><trkpt lat="45.68126877082119" lon="10.962592776552352"><ele>1468.5</ele><time>2026-04-22T07:34:24Z</time></trkpt><trkpt lat="45.68129455354958" lon="10.962453585061596"><ele>1466.0</ele><time>2026-04-22T07:34:26Z</time></trkpt><trkpt lat="45.681333636820575" lon="10.96233406065108"><ele>1465.0</ele><time>2026-04-22T07:34:27.999Z</time></trkpt><trkpt lat="45.6813903960935" lon="10.962220722198133"><ele>1464.0</ele><time>2026-04-22T07:34:31Z</time></trkpt><trkpt lat="45.6814481985865" lon="10.962125696171547"><ele>1463.0</ele><time>2026-04-22T07:34:33Z</time></trkpt><trkpt lat="45.681513624242704" lon="10.962006920953742"><ele>1462.0</ele><time>2026-04-22T07:34:35Z</time></trkpt><trkpt lat="45.68159096988224" lon="10.96189713818312"><ele>1461.0</ele><time>2026-04-22T07:34:37Z</time></trkpt><trkpt lat="45.68168786096048" lon="10.961821475496478"><ele>1461.0</ele><time>2026-04-22T07:34:39Z</time></trkpt><trkpt lat="45.681800261955665" lon="10.961762159789483"><ele>1461.0</ele><time>2026-04-22T07:34:41Z</time></trkpt><trkpt lat="45.68186707656403" lon="10.961728422610081"><ele>1461.0</ele><time>2026-04-22T07:34:42Z</time></trkpt><trkpt lat="45.68194669989987" lon="10.961717786594111"><ele>1461.0</ele><time>2026-04-22T07:34:43Z</time></trkpt><trkpt lat="45.68202527089611" lon="10.961686180811284"><ele>1461.0</ele><time>2026-04-22T07:34:44Z</time></trkpt><trkpt lat="45.6820990364896" lon="10.961652059917347"><ele>1461.0</ele><time>2026-04-22T07:34:45Z</time></trkpt><trkpt lat="45.682170439071456" lon="10.961599049287965"><ele>1459.6666666666667</ele><time>2026-04-22T07:34:46Z</time></trkpt><trkpt lat="45.68225181018005" lon="10.961595997230528"><ele>1458.3333333333333</ele><time>2026-04-22T07:34:47Z</time></trkpt><trkpt lat="45.68231877920696" lon="10.961560895890482"><ele>1457.0</ele><time>2026-04-22T07:34:48Z</time></trkpt><trkpt lat="45.682398284229535" lon="10.961545642793263"><ele>1455.6666666666665</ele><time>2026-04-22T07:34:49Z</time></trkpt><trkpt lat="45.68247389228638" lon="10.961564593309348"><ele>1454.3333333333333</ele><time>2026-04-22T07:34:50Z</time></trkpt><trkpt lat="45.682552284652864" lon="10.961547059485913"><ele>1453.0</ele><time>2026-04-22T07:34:51Z</time></trkpt><trkpt lat="45.68262533240841" lon="10.961523201202963"><ele>1453.0000000000002</ele><time>2026-04-22T07:34:52Z</time></trkpt><trkpt lat="45.68269622225897" lon="10.961479000008842"><ele>1453.0</ele><time>2026-04-22T07:34:53Z</time></trkpt><trkpt lat="45.68276478013271" lon="10.96146072469895"><ele>1453.0</ele><time>2026-04-22T07:34:54Z</time></trkpt><trkpt lat="45.68282941892092" lon="10.961445762162784"><ele>1453.0</ele><time>2026-04-22T07:34:55Z</time></trkpt><trkpt lat="45.68290044176794" lon="10.961425514572726"><ele>1453.0</ele><time>2026-04-22T07:34:56Z</time></trkpt><trkpt lat="45.68297547694729" lon="10.96142054787105"><ele>1453.0000000000002</ele><time>2026-04-22T07:34:57Z</time></trkpt><trkpt lat="45.68303867177229" lon="10.96137769229909"><ele>1453.0</ele><time>2026-04-22T07:34:58Z</time></trkpt><trkpt lat="45.68310707180137" lon="10.961389363668271"><ele>1450.8333333333333</ele><time>2026-04-22T07:34:59Z</time></trkpt><trkpt lat="45.683171054793526" lon="10.961391492354753"><ele>1448.6666666666665</ele><time>2026-04-22T07:35:00Z</time></trkpt><trkpt lat="45.68324261275848" lon="10.961394986151793"><ele>1446.5</ele><time>2026-04-22T07:35:01Z</time></trkpt><trkpt lat="45.68331787743618" lon="10.961378148973163"><ele>1444.3333333333333</ele><time>2026-04-22T07:35:02Z</time></trkpt><trkpt lat="45.6833957111938" lon="10.96138215964398"><ele>1442.1666666666667</ele><time>2026-04-22T07:35:03Z</time></trkpt><trkpt lat="45.683475535106666" lon="10.961379080025482"><ele>1440.0</ele><time>2026-04-22T07:35:04Z</time></trkpt><trkpt lat="45.683558582966725" lon="10.961373274018523"><ele>1438.6666666666667</ele><time>2026-04-22T07:35:05Z</time></trkpt><trkpt lat="45.68364182258794" lon="10.961373714675922"><ele>1437.3333333333333</ele><time>2026-04-22T07:35:06Z</time></trkpt><trkpt lat="45.68372547645602" lon="10.961388610129493"><ele>1436.0</ele><time>2026-04-22T07:35:07Z</time></trkpt><trkpt lat="45.68380359927242" lon="10.961454237095145"><ele>1434.6666666666665</ele><time>2026-04-22T07:35:08Z</time></trkpt><trkpt lat="45.68388571343697" lon="10.961499433958867"><ele>1433.3333333333333</ele><time>2026-04-22T07:35:09Z</time></trkpt><trkpt lat="45.68397416802279" lon="10.96151860088627"><ele>1432.0</ele><time>2026-04-22T07:35:10Z</time></trkpt><trkpt lat="45.684054848590144" lon="10.96156692579776"><ele>1432.0</ele><time>2026-04-22T07:35:11Z</time></trkpt><trkpt lat="45.6841243885464" lon="10.961644467074574"><ele>1432.0</ele><time>2026-04-22T07:35:12Z</time></trkpt><trkpt lat="45.68419478591045" lon="10.96170645877139"><ele>1432.0</ele><time>2026-04-22T07:35:13Z</time></trkpt><trkpt lat="45.68426489166254" lon="10.961765128822233"><ele>1432.0</ele><time>2026-04-22T07:35:14Z</time></trkpt><trkpt lat="45.68433817643308" lon="10.96181059242157"><ele>1432.0</ele><time>2026-04-22T07:35:15Z</time></trkpt><trkpt lat="45.68440873477053" lon="10.961846057300036"><ele>1432.0</ele><time>2026-04-22T07:35:16Z</time></trkpt><trkpt lat="45.68448349000359" lon="10.961864458784955"><ele>1428.0</ele><time>2026-04-22T07:35:17Z</time></trkpt><trkpt lat="45.684559653646" lon="10.961829555608901"><ele>1424.0</ele><time>2026-04-22T07:35:18Z</time></trkpt><trkpt lat="45.68463461988997" lon="10.961831824259923"><ele>1420.0</ele><time>2026-04-22T07:35:19Z</time></trkpt><trkpt lat="45.68471170218801" lon="10.961849079996771"><ele>1416.0</ele><time>2026-04-22T07:35:20Z</time></trkpt><trkpt lat="45.68478355256624" lon="10.96190533424291"><ele>1412.0</ele><time>2026-04-22T07:35:21Z</time></trkpt><trkpt lat="45.684861890321706" lon="10.961934953232122"><ele>1408.0</ele><time>2026-04-22T07:35:22Z</time></trkpt><trkpt lat="45.684940862794946" lon="10.961958842625497"><ele>1408.0</ele><time>2026-04-22T07:35:23Z</time></trkpt><trkpt lat="45.68502110775199" lon="10.961980138611791"><ele>1408.0</ele><time>2026-04-22T07:35:24Z</time></trkpt><trkpt lat="45.6850949366567" lon="10.961998218058511"><ele>1408.0</ele><time>2026-04-22T07:35:25Z</time></trkpt><trkpt lat="45.68516439372093" lon="10.962016965586967"><ele>1408.0</ele><time>2026-04-22T07:35:26Z</time></trkpt><trkpt lat="45.685233213669655" lon="10.962044711658447"><ele>1408.0</ele><time>2026-04-22T07:35:27Z</time></trkpt><trkpt lat="45.68530070665052" lon="10.962074988093345"><ele>1408.0</ele><time>2026-04-22T07:35:28Z</time></trkpt><trkpt lat="45.68536761534018" lon="10.962105002319197"><ele>1408.0</ele><time>2026-04-22T07:35:29Z</time></trkpt><trkpt lat="45.6854372136799" lon="10.962121358986218"><ele>1407.6666666666665</ele><time>2026-04-22T07:35:30Z</time></trkpt><trkpt lat="45.685506263751144" lon="10.962151614794601"><ele>1407.3333333333333</ele><time>2026-04-22T07:35:31Z</time></trkpt><trkpt lat="45.685574489852314" lon="10.962190313160976"><ele>1407.0</ele><time>2026-04-22T07:35:32Z</time></trkpt><trkpt lat="45.68563799978552" lon="10.962234960792854"><ele>1406.6666666666667</ele><time>2026-04-22T07:35:33Z</time></trkpt><trkpt lat="45.685695581990835" lon="10.9622896914527"><ele>1406.3333333333335</ele><time>2026-04-22T07:35:34Z</time></trkpt><trkpt lat="45.68574848348588" lon="10.962353262652135"><ele>1406.0</ele><time>2026-04-22T07:35:35Z</time></trkpt><trkpt lat="45.68584109872767" lon="10.962464481174647"><ele>1406.0</ele><time>2026-04-22T07:35:37Z</time></trkpt><trkpt lat="45.685960314487716" lon="10.962530410019603"><ele>1406.0</ele><time>2026-04-22T07:35:39Z</time></trkpt><trkpt lat="45.68603186917961" lon="10.962543477396064"><ele>1406.0</ele><time>2026-04-22T07:35:40Z</time></trkpt><trkpt lat="45.68610363672208" lon="10.962553220583576"><ele>1406.0</ele><time>2026-04-22T07:35:41Z</time></trkpt><trkpt lat="45.68617739171731" lon="10.96256506639838"><ele>1406.0</ele><time>2026-04-22T07:35:42Z</time></trkpt><trkpt lat="45.68624886082551" lon="10.962599371780712"><ele>1406.0</ele><time>2026-04-22T07:35:43Z</time></trkpt><trkpt lat="45.68630777721315" lon="10.962675405660303"><ele>1402.8333333333335</ele><time>2026-04-22T07:35:44Z</time></trkpt><trkpt lat="45.68636299206622" lon="10.962747705429033"><ele>1399.6666666666667</ele><time>2026-04-22T07:35:45Z</time></trkpt><trkpt lat="45.68642412848" lon="10.962825177671188"><ele>1396.5</ele><time>2026-04-22T07:35:46Z</time></trkpt><trkpt lat="45.686486733765996" lon="10.962902089431578"><ele>1393.3333333333333</ele><time>2026-04-22T07:35:47Z</time></trkpt><trkpt lat="45.68655825383439" lon="10.962966861487494"><ele>1390.1666666666665</ele><time>2026-04-22T07:35:48Z</time></trkpt><trkpt lat="45.686610691332135" lon="10.963053779240001"><ele>1387.0</ele><time>2026-04-22T07:35:49Z</time></trkpt><trkpt lat="45.68665961987479" lon="10.963140464803354"><ele>1387.0</ele><time>2026-04-22T07:35:50Z</time></trkpt><trkpt lat="45.686707582369166" lon="10.96322700831899"><ele>1387.0</ele><time>2026-04-22T07:35:51Z</time></trkpt><trkpt lat="45.68676280489318" lon="10.963310944318055"><ele>1387.0</ele><time>2026-04-22T07:35:52Z</time></trkpt><trkpt lat="45.686823977533315" lon="10.96339028793609"><ele>1387.0</ele><time>2026-04-22T07:35:53Z</time></trkpt><trkpt lat="45.68688527699104" lon="10.963483563535254"><ele>1387.0</ele><time>2026-04-22T07:35:54Z</time></trkpt><trkpt lat="45.686973022803286" lon="10.963531554410018"><ele>1387.0</ele><time>2026-04-22T07:35:55Z</time></trkpt><trkpt lat="45.68704868225405" lon="10.963616626295279"><ele>1381.8</ele><time>2026-04-22T07:35:56Z</time></trkpt><trkpt lat="45.687135548969785" lon="10.963683993288232"><ele>1376.6</ele><time>2026-04-22T07:35:57Z</time></trkpt><trkpt lat="45.6872241017117" lon="10.963752668038063"><ele>1371.3999999999999</ele><time>2026-04-22T07:35:58Z</time></trkpt><trkpt lat="45.687313233537985" lon="10.963799562338059"><ele>1366.1999999999998</ele><time>2026-04-22T07:35:59Z</time></trkpt><trkpt lat="45.68739567372791" lon="10.963884895789747"><ele>1361.0</ele><time>2026-04-22T07:36:00Z</time></trkpt><trkpt lat="45.687477232056594" lon="10.963981216565752"><ele>1361.0</ele><time>2026-04-22T07:36:01Z</time></trkpt><trkpt lat="45.68756275352801" lon="10.964089257217157"><ele>1361.0</ele><time>2026-04-22T07:36:02Z</time></trkpt><trkpt lat="45.687643304938256" lon="10.964197525238387"><ele>1361.0</ele><time>2026-04-22T07:36:03Z</time></trkpt><trkpt lat="45.687711851787256" lon="10.964321138351883"><ele>1361.0</ele><time>2026-04-22T07:36:04Z</time></trkpt><trkpt lat="45.687793779201904" lon="10.964418619145182"><ele>1361.0</ele><time>2026-04-22T07:36:05Z</time></trkpt><trkpt lat="45.687874247726484" lon="10.96450122818986"><ele>1358.6</ele><time>2026-04-22T07:36:06Z</time></trkpt><trkpt lat="45.68795473744863" lon="10.964577977575845"><ele>1356.1999999999998</ele><time>2026-04-22T07:36:07Z</time></trkpt><trkpt lat="45.68804132130476" lon="10.96464922981115"><ele>1353.8000000000002</ele><time>2026-04-22T07:36:08Z</time></trkpt><trkpt lat="45.68813391647676" lon="10.96471375786779"><ele>1351.4</ele><time>2026-04-22T07:36:09Z</time></trkpt><trkpt lat="45.68822519600465" lon="10.964761798861241"><ele>1349.0</ele><time>2026-04-22T07:36:10Z</time></trkpt><trkpt lat="45.68831006134554" lon="10.964813568954451"><ele>1349.0</ele><time>2026-04-22T07:36:11Z</time></trkpt><trkpt lat="45.6883952128519" lon="10.964858124593167"><ele>1349.0</ele><time>2026-04-22T07:36:12Z</time></trkpt><trkpt lat="45.68849475149789" lon="10.964885806917664"><ele>1349.0</ele><time>2026-04-22T07:36:13Z</time></trkpt><trkpt lat="45.68859870765976" lon="10.964883543472151"><ele>1349.0</ele><time>2026-04-22T07:36:14Z</time></trkpt><trkpt lat="45.68869922364918" lon="10.964872322269338"><ele>1349.0</ele><time>2026-04-22T07:36:15Z</time></trkpt><trkpt lat="45.688798634332905" lon="10.964849945252977"><ele>1346.75</ele><time>2026-04-22T07:36:16Z</time></trkpt><trkpt lat="45.68890443592378" lon="10.964826318668615"><ele>1344.5</ele><time>2026-04-22T07:36:16.999Z</time></trkpt><trkpt lat="45.68901704266136" lon="10.9648068115364"><ele>1342.25</ele><time>2026-04-22T07:36:17.999Z</time></trkpt><trkpt lat="45.68913709729145" lon="10.964797612335357"><ele>1340.0</ele><time>2026-04-22T07:36:18.999Z</time></trkpt><trkpt lat="45.68925954219562" lon="10.964785800716575"><ele>1340.0</ele><time>2026-04-22T07:36:19.999Z</time></trkpt><trkpt lat="45.689377059186505" lon="10.96483619720504"><ele>1340.0</ele><time>2026-04-22T07:36:20.999Z</time></trkpt><trkpt lat="45.68950146606504" lon="10.964865634215318"><ele>1340.0</ele><time>2026-04-22T07:36:21.999Z</time></trkpt><trkpt lat="45.689626004558036" lon="10.964888505558857"><ele>1340.0</ele><time>2026-04-22T07:36:22.999Z</time></trkpt><trkpt lat="45.68974826118994" lon="10.964909966608767"><ele>1337.75</ele><time>2026-04-22T07:36:23.999Z</time></trkpt><trkpt lat="45.68987017081126" lon="10.96492987401087"><ele>1335.5</ele><time>2026-04-22T07:36:24.999Z</time></trkpt><trkpt lat="45.68999216775326" lon="10.964932985266309"><ele>1333.25</ele><time>2026-04-22T07:36:25.999Z</time></trkpt><trkpt lat="45.6901129518807" lon="10.964968198341689"><ele>1331.0</ele><time>2026-04-22T07:36:26.999Z</time></trkpt><trkpt lat="45.690232750112536" lon="10.965006217153302"><ele>1325.75</ele><time>2026-04-22T07:36:27.999Z</time></trkpt><trkpt lat="45.69035100946208" lon="10.965046926963527"><ele>1320.5</ele><time>2026-04-22T07:36:28.999Z</time></trkpt><trkpt lat="45.69045965136818" lon="10.96511901378725"><ele>1315.25</ele><time>2026-04-22T07:36:29.999Z</time></trkpt><trkpt lat="45.690577775632896" lon="10.96514624282386"><ele>1310.0</ele><time>2026-04-22T07:36:30.999Z</time></trkpt><trkpt lat="45.690683803200955" lon="10.965190851650087"><ele>1310.0</ele><time>2026-04-22T07:36:31.999Z</time></trkpt><trkpt lat="45.69078659093131" lon="10.965227484240046"><ele>1310.0</ele><time>2026-04-22T07:36:32.999Z</time></trkpt><trkpt lat="45.69088434197084" lon="10.965254944966132"><ele>1310.0</ele><time>2026-04-22T07:36:33.999Z</time></trkpt><trkpt lat="45.69098243605444" lon="10.96529845865434"><ele>1310.0</ele><time>2026-04-22T07:36:35Z</time></trkpt><trkpt lat="45.69108939426218" lon="10.965303345637302"><ele>1310.0</ele><time>2026-04-22T07:36:36Z</time></trkpt><trkpt lat="45.69119965977595" lon="10.965259997808857"><ele>1306.25</ele><time>2026-04-22T07:36:37Z</time></trkpt><trkpt lat="45.691313977814055" lon="10.965238791681267"><ele>1302.5</ele><time>2026-04-22T07:36:38Z</time></trkpt><trkpt lat="45.69143668829994" lon="10.965221797077678"><ele>1298.75</ele><time>2026-04-22T07:36:39Z</time></trkpt><trkpt lat="45.69155822010574" lon="10.965204791981428"><ele>1295.0</ele><time>2026-04-22T07:36:40Z</time></trkpt><trkpt lat="45.691671438230664" lon="10.965195239701378"><ele>1295.0</ele><time>2026-04-22T07:36:41Z</time></trkpt><trkpt lat="45.69177631873308" lon="10.965191443079089"><ele>1295.0</ele><time>2026-04-22T07:36:42Z</time></trkpt><trkpt lat="45.69188505354377" lon="10.965196081255652"><ele>1295.0</ele><time>2026-04-22T07:36:43Z</time></trkpt><trkpt lat="45.69198852561059" lon="10.965208390491838"><ele>1295.0</ele><time>2026-04-22T07:36:44Z</time></trkpt><trkpt lat="45.69209332894776" lon="10.96522757319595"><ele>1295.0</ele><time>2026-04-22T07:36:45Z</time></trkpt><trkpt lat="45.69218970427836" lon="10.965267602154285"><ele>1293.8</ele><time>2026-04-22T07:36:46Z</time></trkpt><trkpt lat="45.69229013957176" lon="10.965330811396251"><ele>1292.6</ele><time>2026-04-22T07:36:47Z</time></trkpt><trkpt lat="45.692382463001124" lon="10.96540633542003"><ele>1291.4</ele><time>2026-04-22T07:36:48Z</time></trkpt><trkpt lat="45.692473313381136" lon="10.965477100123099"><ele>1290.2</ele><time>2026-04-22T07:36:49Z</time></trkpt><trkpt lat="45.692563843233756" lon="10.965530979566411"><ele>1289.0</ele><time>2026-04-22T07:36:50Z</time></trkpt><trkpt lat="45.69265036725058" lon="10.965579740620619"><ele>1289.0</ele><time>2026-04-22T07:36:51Z</time></trkpt><trkpt lat="45.69274387147314" lon="10.965625237012171"><ele>1289.0</ele><time>2026-04-22T07:36:52Z</time></trkpt><trkpt lat="45.692845230714894" lon="10.965682597315642"><ele>1289.0</ele><time>2026-04-22T07:36:53Z</time></trkpt><trkpt lat="45.69293988720702" lon="10.965749839765795"><ele>1289.0</ele><time>2026-04-22T07:36:54Z</time></trkpt><trkpt lat="45.693040511273516" lon="10.965823505672727"><ele>1289.0</ele><time>2026-04-22T07:36:55Z</time></trkpt><trkpt lat="45.693131711446505" lon="10.965901725433095"><ele>1286.4</ele><time>2026-04-22T07:36:56Z</time></trkpt><trkpt lat="45.6932200561249" lon="10.965981402082015"><ele>1283.8000000000002</ele><time>2026-04-22T07:36:57Z</time></trkpt><trkpt lat="45.693306720484784" lon="10.966063292142039"><ele>1281.1999999999998</ele><time>2026-04-22T07:36:58Z</time></trkpt><trkpt lat="45.69339481807829" lon="10.966138210521382"><ele>1278.6</ele><time>2026-04-22T07:36:59Z</time></trkpt><trkpt lat="45.69347391998637" lon="10.96621541879759"><ele>1276.0</ele><time>2026-04-22T07:37:00Z</time></trkpt><trkpt lat="45.69353173878367" lon="10.966312562091307"><ele>1276.0</ele><time>2026-04-22T07:37:01Z</time></trkpt><trkpt lat="45.69359637865508" lon="10.96639734593313"><ele>1276.0</ele><time>2026-04-22T07:37:02Z</time></trkpt><trkpt lat="45.693657651517945" lon="10.966483234872838"><ele>1276.0</ele><time>2026-04-22T07:37:03Z</time></trkpt><trkpt lat="45.693718534554996" lon="10.966577119707672"><ele>1276.0</ele><time>2026-04-22T07:37:04Z</time></trkpt><trkpt lat="45.6937676230593" lon="10.966700270210806"><ele>1276.0</ele><time>2026-04-22T07:37:05Z</time></trkpt><trkpt lat="45.69380494795618" lon="10.96683957603818"><ele>1276.2</ele><time>2026-04-22T07:37:06Z</time></trkpt><trkpt lat="45.69383318439564" lon="10.96698958719241"><ele>1276.3999999999999</ele><time>2026-04-22T07:37:07Z</time></trkpt><trkpt lat="45.693859786144685" lon="10.967140831831502"><ele>1276.6</ele><time>2026-04-22T07:37:08Z</time></trkpt><trkpt lat="45.69388124887093" lon="10.967297521912458"><ele>1276.8</ele><time>2026-04-22T07:37:09Z</time></trkpt><trkpt lat="45.693901939156696" lon="10.967460048002618"><ele>1277.0</ele><time>2026-04-22T07:37:10Z</time></trkpt><trkpt lat="45.69392178900012" lon="10.967620916066746"><ele>1277.75</ele><time>2026-04-22T07:37:11Z</time></trkpt><trkpt lat="45.69393757475156" lon="10.967782216696978"><ele>1278.5</ele><time>2026-04-22T07:37:12Z</time></trkpt><trkpt lat="45.693940059836656" lon="10.967941366989159"><ele>1279.25</ele><time>2026-04-22T07:37:13Z</time></trkpt><trkpt lat="45.69394170399179" lon="10.968099838770748"><ele>1280.0</ele><time>2026-04-22T07:37:14Z</time></trkpt><trkpt lat="45.69394635457854" lon="10.968266943362647"><ele>1278.6</ele><time>2026-04-22T07:37:15Z</time></trkpt><trkpt lat="45.693946818179846" lon="10.968415710208157"><ele>1277.2</ele><time>2026-04-22T07:37:16Z</time></trkpt><trkpt lat="45.69394819593388" lon="10.968567472269388"><ele>1275.8</ele><time>2026-04-22T07:37:17Z</time></trkpt><trkpt lat="45.69395184051493" lon="10.968712472944413"><ele>1274.4</ele><time>2026-04-22T07:37:18Z</time></trkpt><trkpt lat="45.69395459793282" lon="10.968854119884258"><ele>1273.0</ele><time>2026-04-22T07:37:19Z</time></trkpt><trkpt lat="45.69395095088099" lon="10.968990636826415"><ele>1273.0</ele><time>2026-04-22T07:37:20Z</time></trkpt><trkpt lat="45.69393588546661" lon="10.96911736743101"><ele>1273.0</ele><time>2026-04-22T07:37:21Z</time></trkpt><trkpt lat="45.69391416782245" lon="10.969222212459028"><ele>1273.0</ele><time>2026-04-22T07:37:22Z</time></trkpt><trkpt lat="45.693895457796295" lon="10.969316885719973"><ele>1273.0</ele><time>2026-04-22T07:37:23Z</time></trkpt><trkpt lat="45.69389104869487" lon="10.969409609111944"><ele>1273.0</ele><time>2026-04-22T07:37:24Z</time></trkpt><trkpt lat="45.693900452809494" lon="10.969509906037134"><ele>1273.0</ele><time>2026-04-22T07:37:25Z</time></trkpt><trkpt lat="45.693910667374766" lon="10.969634847338048"><ele>1271.8</ele><time>2026-04-22T07:37:26Z</time></trkpt><trkpt lat="45.69393321781873" lon="10.969776545620757"><ele>1270.6</ele><time>2026-04-22T07:37:27Z</time></trkpt><trkpt lat="45.69395735384423" lon="10.969914036411808"><ele>1269.4</ele><time>2026-04-22T07:37:28Z</time></trkpt><trkpt lat="45.69397461842643" lon="10.970047128758486"><ele>1268.2</ele><time>2026-04-22T07:37:29Z</time></trkpt><trkpt lat="45.69399026277488" lon="10.970178377228464"><ele>1267.0</ele><time>2026-04-22T07:37:30Z</time></trkpt><trkpt lat="45.69400599089392" lon="10.970310328470212"><ele>1266.0</ele><time>2026-04-22T07:37:31Z</time></trkpt><trkpt lat="45.694021114851964" lon="10.970437210997082"><ele>1265.0</ele><time>2026-04-22T07:37:32Z</time></trkpt><trkpt lat="45.6940429657597" lon="10.970561307973258"><ele>1264.0</ele><time>2026-04-22T07:37:33Z</time></trkpt><trkpt lat="45.694078142304825" lon="10.970667980756474"><ele>1263.0</ele><time>2026-04-22T07:37:34Z</time></trkpt><trkpt lat="45.69407740373873" lon="10.970798747904956"><ele>1262.0</ele><time>2026-04-22T07:37:35Z</time></trkpt><trkpt lat="45.694035854404305" lon="10.97089253701995"><ele>1261.0</ele><time>2026-04-22T07:37:36Z</time></trkpt><trkpt lat="45.69400286579081" lon="10.970994249144322"><ele>1259.8333333333333</ele><time>2026-04-22T07:37:37Z</time></trkpt><trkpt lat="45.69398414072647" lon="10.97111012691912"><ele>1258.6666666666665</ele><time>2026-04-22T07:37:38Z</time></trkpt><trkpt lat="45.69395036214966" lon="10.971215841643104"><ele>1257.5</ele><time>2026-04-22T07:37:39Z</time></trkpt><trkpt lat="45.69394814887611" lon="10.97133877566645"><ele>1256.3333333333333</ele><time>2026-04-22T07:37:40Z</time></trkpt><trkpt lat="45.69396344464286" lon="10.971460174058695"><ele>1255.1666666666667</ele><time>2026-04-22T07:37:41Z</time></trkpt><trkpt lat="45.694004044341746" lon="10.97157594985102"><ele>1254.0</ele><time>2026-04-22T07:37:42Z</time></trkpt><trkpt lat="45.69404966287348" lon="10.971682578854537"><ele>1253.2</ele><time>2026-04-22T07:37:43Z</time></trkpt><trkpt lat="45.69409927056802" lon="10.971786021033205"><ele>1252.4</ele><time>2026-04-22T07:37:44Z</time></trkpt><trkpt lat="45.69414120231151" lon="10.971902973641335"><ele>1251.6</ele><time>2026-04-22T07:37:45Z</time></trkpt><trkpt lat="45.69417619734316" lon="10.972021185370417"><ele>1250.8</ele><time>2026-04-22T07:37:46Z</time></trkpt><trkpt lat="45.69421036834598" lon="10.972148668805776"><ele>1250.0</ele><time>2026-04-22T07:37:47Z</time></trkpt><trkpt lat="45.694239333099944" lon="10.972285125348456"><ele>1250.0</ele><time>2026-04-22T07:37:48Z</time></trkpt><trkpt lat="45.694265362501085" lon="10.97242335409452"><ele>1250.0</ele><time>2026-04-22T07:37:49Z</time></trkpt><trkpt lat="45.694289071428436" lon="10.972546604477955"><ele>1250.0</ele><time>2026-04-22T07:37:50Z</time></trkpt><trkpt lat="45.69432194519873" lon="10.97265588112284"><ele>1250.0</ele><time>2026-04-22T07:37:51Z</time></trkpt><trkpt lat="45.694331888216865" lon="10.972773388194401"><ele>1250.0</ele><time>2026-04-22T07:37:52Z</time></trkpt><trkpt lat="45.69433524525116" lon="10.972902512282557"><ele>1250.0</ele><time>2026-04-22T07:37:53Z</time></trkpt><trkpt lat="45.694332007495866" lon="10.97303538412257"><ele>1250.6666666666667</ele><time>2026-04-22T07:37:54Z</time></trkpt><trkpt lat="45.69432390249048" lon="10.973156829163798"><ele>1251.3333333333335</ele><time>2026-04-22T07:37:55Z</time></trkpt><trkpt lat="45.69431450823863" lon="10.97326767987512"><ele>1252.0</ele><time>2026-04-22T07:37:56Z</time></trkpt><trkpt lat="45.69431008532169" lon="10.973371146442963"><ele>1252.6666666666667</ele><time>2026-04-22T07:37:57Z</time></trkpt><trkpt lat="45.69431918020933" lon="10.973475598391488"><ele>1253.3333333333333</ele><time>2026-04-22T07:37:58Z</time></trkpt><trkpt lat="45.69432504043911" lon="10.973581289983946"><ele>1254.0</ele><time>2026-04-22T07:37:59Z</time></trkpt><trkpt lat="45.69436407543823" lon="10.97368258904201"><ele>1250.6000000000001</ele><time>2026-04-22T07:38:00Z</time></trkpt><trkpt lat="45.69443596437221" lon="10.973758662303604"><ele>1247.2</ele><time>2026-04-22T07:38:01Z</time></trkpt><trkpt lat="45.69448569875349" lon="10.973862637019877"><ele>1243.8000000000002</ele><time>2026-04-22T07:38:02Z</time></trkpt><trkpt lat="45.694556013708734" lon="10.97395674246634"><ele>1240.4</ele><time>2026-04-22T07:38:03Z</time></trkpt><trkpt lat="45.69464157645944" lon="10.97403305298967"><ele>1237.0</ele><time>2026-04-22T07:38:04Z</time></trkpt><trkpt lat="45.694715391399946" lon="10.97412710264524"><ele>1236.6666666666665</ele><time>2026-04-22T07:38:05Z</time></trkpt><trkpt lat="45.69478711781806" lon="10.97420852691173"><ele>1236.3333333333333</ele><time>2026-04-22T07:38:06Z</time></trkpt><trkpt lat="45.694861348196355" lon="10.974263677199055"><ele>1236.0</ele><time>2026-04-22T07:38:07Z</time></trkpt><trkpt lat="45.69493467257506" lon="10.974303704687417"><ele>1235.6666666666667</ele><time>2026-04-22T07:38:08Z</time></trkpt><trkpt lat="45.69500632960545" lon="10.974358046828801"><ele>1235.3333333333335</ele><time>2026-04-22T07:38:09Z</time></trkpt><trkpt lat="45.69507993305498" lon="10.974385706834507"><ele>1235.0</ele><time>2026-04-22T07:38:10Z</time></trkpt><trkpt lat="45.69515196255808" lon="10.974404604657613"><ele>1235.0</ele><time>2026-04-22T07:38:11Z</time></trkpt><trkpt lat="45.69523519839049" lon="10.974422537516393"><ele>1235.0</ele><time>2026-04-22T07:38:12Z</time></trkpt><trkpt lat="45.6953207747132" lon="10.974436731522477"><ele>1235.0</ele><time>2026-04-22T07:38:13Z</time></trkpt><trkpt lat="45.69541168391846" lon="10.974436597762475"><ele>1235.0</ele><time>2026-04-22T07:38:14Z</time></trkpt><trkpt lat="45.695496575098375" lon="10.974467627170199"><ele>1235.0</ele><time>2026-04-22T07:38:15Z</time></trkpt><trkpt lat="45.69557332268963" lon="10.974526398329925"><ele>1235.0</ele><time>2026-04-22T07:38:16Z</time></trkpt><trkpt lat="45.69566012297602" lon="10.974549641103186"><ele>1234.5714285714284</ele><time>2026-04-22T07:38:17Z</time></trkpt><trkpt lat="45.695739518448505" lon="10.97458093090613"><ele>1234.142857142857</ele><time>2026-04-22T07:38:18Z</time></trkpt><trkpt lat="45.69581468336148" lon="10.974601429170828"><ele>1233.7142857142858</ele><time>2026-04-22T07:38:19Z</time></trkpt><trkpt lat="45.6958879473561" lon="10.974614518534803"><ele>1233.2857142857142</ele><time>2026-04-22T07:38:20Z</time></trkpt><trkpt lat="45.69595813409891" lon="10.974631386285312"><ele>1232.857142857143</ele><time>2026-04-22T07:38:21Z</time></trkpt><trkpt lat="45.69602848759666" lon="10.974642846269093"><ele>1232.4285714285713</ele><time>2026-04-22T07:38:22Z</time></trkpt><trkpt lat="45.6960913946275" lon="10.97468167086521"><ele>1232.0</ele><time>2026-04-22T07:38:23Z</time></trkpt><trkpt lat="45.69621619805078" lon="10.974686369745651"><ele>1231.3333333333335</ele><time>2026-04-22T07:38:25Z</time></trkpt><trkpt lat="45.69630773335036" lon="10.974702753232815"><ele>1230.6666666666667</ele><time>2026-04-22T07:38:27Z</time></trkpt><trkpt lat="45.69636192007314" lon="10.974760698241251"><ele>1230.0</ele><time>2026-04-22T07:38:29.999Z</time></trkpt><trkpt lat="45.69629135869231" lon="10.974836382865412"><ele>1229.3333333333333</ele><time>2026-04-22T07:38:33.999Z</time></trkpt><trkpt lat="45.69621301634284" lon="10.974919906950653"><ele>1228.6666666666665</ele><time>2026-04-22T07:38:36.999Z</time></trkpt><trkpt lat="45.696149454286775" lon="10.97495569967466"><ele>1228.0</ele><time>2026-04-22T07:38:38.999Z</time></trkpt><trkpt lat="45.69609394504534" lon="10.975006784447228"><ele>1232.75</ele><time>2026-04-22T07:38:43Z</time></trkpt><trkpt lat="45.69617305969259" lon="10.975184103076346"><ele>1237.5</ele><time>2026-04-22T07:39:39Z</time></trkpt><trkpt lat="45.69618706037272" lon="10.975291160688315"><ele>1242.25</ele><time>2026-04-22T07:39:42Z</time></trkpt><trkpt lat="45.69607976378257" lon="10.975407995758113"><ele>1247.0</ele><time>2026-04-22T07:39:46Z</time></trkpt><trkpt lat="45.69596334072521" lon="10.975432963243968"><ele>1247.0</ele><time>2026-04-22T07:39:48Z</time></trkpt><trkpt lat="45.695893547462035" lon="10.975460061874646"><ele>1247.0</ele><time>2026-04-22T07:39:49Z</time></trkpt><trkpt lat="45.69582720697916" lon="10.975486017850757"><ele>1247.0</ele><time>2026-04-22T07:39:50Z</time></trkpt><trkpt lat="45.69575001063316" lon="10.975512267691887"><ele>1247.0</ele><time>2026-04-22T07:39:51Z</time></trkpt><trkpt lat="45.69567335946525" lon="10.975524238793383"><ele>1247.0</ele><time>2026-04-22T07:39:52Z</time></trkpt><trkpt lat="45.69558191128371" lon="10.975548251164426"><ele>1247.0</ele><time>2026-04-22T07:39:53Z</time></trkpt><trkpt lat="45.69548781848793" lon="10.97557011712266"><ele>1247.0</ele><time>2026-04-22T07:39:54Z</time></trkpt><trkpt lat="45.69538841235919" lon="10.975601138005528"><ele>1247.0</ele><time>2026-04-22T07:39:55Z</time></trkpt><trkpt lat="45.69528857393677" lon="10.975633307093252"><ele>1247.0</ele><time>2026-04-22T07:39:56Z</time></trkpt><trkpt lat="45.69518782083681" lon="10.97566347572798"><ele>1247.0</ele><time>2026-04-22T07:39:57Z</time></trkpt><trkpt lat="45.69508785607336" lon="10.975692635816975"><ele>1247.0</ele><time>2026-04-22T07:39:58Z</time></trkpt><trkpt lat="45.69498744856923" lon="10.97570409511624"><ele>1246.4</ele><time>2026-04-22T07:39:59Z</time></trkpt><trkpt lat="45.69488757160787" lon="10.975719310663024"><ele>1245.8000000000002</ele><time>2026-04-22T07:40:00Z</time></trkpt><trkpt lat="45.69478871921248" lon="10.975742652566257"><ele>1245.2</ele><time>2026-04-22T07:40:01Z</time></trkpt><trkpt lat="45.69468993281588" lon="10.975773774502821"><ele>1244.6000000000001</ele><time>2026-04-22T07:40:02Z</time></trkpt><trkpt lat="45.69459708820639" lon="10.975819491794017"><ele>1244.0</ele><time>2026-04-22T07:40:03Z</time></trkpt><trkpt lat="45.69451567502921" lon="10.975885277824219"><ele>1245.4</ele><time>2026-04-22T07:40:04Z</time></trkpt><trkpt lat="45.69443725838166" lon="10.97596485564569"><ele>1246.8000000000002</ele><time>2026-04-22T07:40:05Z</time></trkpt><trkpt lat="45.69436006826484" lon="10.976054091265846"><ele>1248.1999999999998</ele><time>2026-04-22T07:40:06Z</time></trkpt><trkpt lat="45.69428452156641" lon="10.97614953224005"><ele>1249.6</ele><time>2026-04-22T07:40:07Z</time></trkpt><trkpt lat="45.69420438408656" lon="10.97624997836843"><ele>1251.0</ele><time>2026-04-22T07:40:08Z</time></trkpt><trkpt lat="45.694124735812146" lon="10.976360316380035"><ele>1251.0</ele><time>2026-04-22T07:40:09Z</time></trkpt><trkpt lat="45.694038953740055" lon="10.976474679407803"><ele>1251.0</ele><time>2026-04-22T07:40:10Z</time></trkpt><trkpt lat="45.69394944943802" lon="10.976592754345896"><ele>1251.0</ele><time>2026-04-22T07:40:11Z</time></trkpt><trkpt lat="45.69386114948161" lon="10.976709709664632"><ele>1251.0</ele><time>2026-04-22T07:40:12Z</time></trkpt><trkpt lat="45.69377667648734" lon="10.976820608973394"><ele>1250.75</ele><time>2026-04-22T07:40:13Z</time></trkpt><trkpt lat="45.693692494247955" lon="10.976934566843129"><ele>1250.5</ele><time>2026-04-22T07:40:14Z</time></trkpt><trkpt lat="45.693608035136194" lon="10.97704324014328"><ele>1250.25</ele><time>2026-04-22T07:40:15Z</time></trkpt><trkpt lat="45.69351759091045" lon="10.977160973154884"><ele>1250.0</ele><time>2026-04-22T07:40:16Z</time></trkpt><trkpt lat="45.693437513114446" lon="10.97725616121171"><ele>1250.0</ele><time>2026-04-22T07:40:17Z</time></trkpt><trkpt lat="45.69335727864432" lon="10.977367696683046"><ele>1250.0</ele><time>2026-04-22T07:40:18Z</time></trkpt><trkpt lat="45.6932786370725" lon="10.977476338272952"><ele>1250.0</ele><time>2026-04-22T07:40:19Z</time></trkpt><trkpt lat="45.69319865424553" lon="10.97758842047541"><ele>1250.0</ele><time>2026-04-22T07:40:20Z</time></trkpt><trkpt lat="45.69311661238613" lon="10.977727473987297"><ele>1251.5</ele><time>2026-04-22T07:40:21Z</time></trkpt><trkpt lat="45.69304921889588" lon="10.9778656284368"><ele>1253.0</ele><time>2026-04-22T07:40:22Z</time></trkpt><trkpt lat="45.6929954005229" lon="10.978003160326795"><ele>1254.5</ele><time>2026-04-22T07:40:23Z</time></trkpt><trkpt lat="45.69293775301854" lon="10.978112500368054"><ele>1256.0</ele><time>2026-04-22T07:40:24Z</time></trkpt><trkpt lat="45.6928838799452" lon="10.978375549628522"><ele>1257.0</ele><time>2026-04-22T07:40:25Z</time></trkpt><trkpt lat="45.69286399485769" lon="10.978560018734612"><ele>1258.0</ele><time>2026-04-22T07:40:26Z</time></trkpt><trkpt lat="45.692846983584964" lon="10.978741284568871"><ele>1259.0</ele><time>2026-04-22T07:40:27Z</time></trkpt><trkpt lat="45.69283148495695" lon="10.978924032021402"><ele>1260.0</ele><time>2026-04-22T07:40:28Z</time></trkpt><trkpt lat="45.69281458646462" lon="10.979108924544391"><ele>1260.0</ele><time>2026-04-22T07:40:29Z</time></trkpt><trkpt lat="45.692797213044365" lon="10.979291979158821"><ele>1260.0</ele><time>2026-04-22T07:40:30Z</time></trkpt><trkpt lat="45.69277582431267" lon="10.979473216417418"><ele>1260.0</ele><time>2026-04-22T07:40:31Z</time></trkpt><trkpt lat="45.692758048350704" lon="10.979652428489363"><ele>1260.0</ele><time>2026-04-22T07:40:32Z</time></trkpt><trkpt lat="45.692745809625194" lon="10.979824101833515"><ele>1260.2</ele><time>2026-04-22T07:40:33Z</time></trkpt><trkpt lat="45.69274633128551" lon="10.97998757214388"><ele>1260.4</ele><time>2026-04-22T07:40:33.999Z</time></trkpt><trkpt lat="45.69276507365808" lon="10.980140990509252"><ele>1260.6</ele><time>2026-04-22T07:40:34.999Z</time></trkpt><trkpt lat="45.69281475587021" lon="10.98028363501567"><ele>1260.8</ele><time>2026-04-22T07:40:35.999Z</time></trkpt><trkpt lat="45.69287639931967" lon="10.980415840780573"><ele>1261.0</ele><time>2026-04-22T07:40:36.999Z</time></trkpt><trkpt lat="45.69298235732759" lon="10.980486457935362"><ele>1261.25</ele><time>2026-04-22T07:40:37.999Z</time></trkpt><trkpt lat="45.693089862617015" lon="10.980531267293651"><ele>1261.5</ele><time>2026-04-22T07:40:38.999Z</time></trkpt><trkpt lat="45.6932038769785" lon="10.9805326543821"><ele>1261.75</ele><time>2026-04-22T07:40:39.999Z</time></trkpt><trkpt lat="45.69332919150873" lon="10.980527883748415"><ele>1262.0</ele><time>2026-04-22T07:40:40.999Z</time></trkpt><trkpt lat="45.6934547504549" lon="10.980481753231425"><ele>1264.25</ele><time>2026-04-22T07:40:41.999Z</time></trkpt><trkpt lat="45.693592439473925" lon="10.980494771601778"><ele>1266.5</ele><time>2026-04-22T07:40:42.999Z</time></trkpt><trkpt lat="45.69373565271249" lon="10.980545391880758"><ele>1268.75</ele><time>2026-04-22T07:40:43.999Z</time></trkpt><trkpt lat="45.6938596136298" lon="10.980662058941798"><ele>1271.0</ele><time>2026-04-22T07:40:44.999Z</time></trkpt><trkpt lat="45.69399325437798" lon="10.980766293121373"><ele>1274.0</ele><time>2026-04-22T07:40:45.999Z</time></trkpt><trkpt lat="45.6941296130719" lon="10.980872645913294"><ele>1277.0</ele><time>2026-04-22T07:40:47Z</time></trkpt><trkpt lat="45.69426335479548" lon="10.980976537931918"><ele>1280.0</ele><time>2026-04-22T07:40:48Z</time></trkpt><trkpt lat="45.69439372324717" lon="10.98107727713966"><ele>1280.25</ele><time>2026-04-22T07:40:49Z</time></trkpt><trkpt lat="45.69451768723437" lon="10.981173067433113"><ele>1280.5</ele><time>2026-04-22T07:40:50Z</time></trkpt><trkpt lat="45.694627848601186" lon="10.981258192236938"><ele>1280.75</ele><time>2026-04-22T07:40:51Z</time></trkpt><trkpt lat="45.694720768444824" lon="10.981329993881209"><ele>1281.0</ele><time>2026-04-22T07:40:52Z</time></trkpt><trkpt lat="45.694800828476446" lon="10.98139321299043"><ele>1281.0</ele><time>2026-04-22T07:40:53Z</time></trkpt><trkpt lat="45.694864283825694" lon="10.981455917542352"><ele>1281.0</ele><time>2026-04-22T07:40:54Z</time></trkpt><trkpt lat="45.69492406546154" lon="10.98152259080405"><ele>1281.0</ele><time>2026-04-22T07:40:55Z</time></trkpt><trkpt lat="45.694936835501835" lon="10.981639543350996"><ele>1281.0</ele><time>2026-04-22T07:40:56Z</time></trkpt><trkpt lat="45.69491249858558" lon="10.981751742396439"><ele>1281.0</ele><time>2026-04-22T07:40:57Z</time></trkpt><trkpt lat="45.694862507998195" lon="10.981832858408126"><ele>1281.0</ele><time>2026-04-22T07:40:58Z</time></trkpt><trkpt lat="45.69478787936372" lon="10.981875089708922"><ele>1280.8</ele><time>2026-04-22T07:40:59Z</time></trkpt><trkpt lat="45.69470020860199" lon="10.981868576575522"><ele>1280.6</ele><time>2026-04-22T07:41:00Z</time></trkpt><trkpt lat="45.69460722440609" lon="10.981819831682744"><ele>1280.4</ele><time>2026-04-22T07:41:01Z</time></trkpt><trkpt lat="45.69451100903043" lon="10.981755912637558"><ele>1280.2</ele><time>2026-04-22T07:41:02Z</time></trkpt><trkpt lat="45.69440359623097" lon="10.981696735893824"><ele>1280.0</ele><time>2026-04-22T07:41:03Z</time></trkpt><trkpt lat="45.69428220917021" lon="10.981657804812771"><ele>1280.0</ele><time>2026-04-22T07:41:04Z</time></trkpt><trkpt lat="45.69415950044148" lon="10.98163824975175"><ele>1280.0</ele><time>2026-04-22T07:41:05Z</time></trkpt><trkpt lat="45.69404291756745" lon="10.981641943559918"><ele>1280.0</ele><time>2026-04-22T07:41:06Z</time></trkpt><trkpt lat="45.693913370682615" lon="10.981674706057403"><ele>1280.0</ele><time>2026-04-22T07:41:07Z</time></trkpt><trkpt lat="45.69377908970837" lon="10.981735357514047"><ele>1283.0</ele><time>2026-04-22T07:41:08Z</time></trkpt><trkpt lat="45.69364977949138" lon="10.98182666956635"><ele>1286.0</ele><time>2026-04-22T07:41:09Z</time></trkpt><trkpt lat="45.69353258036231" lon="10.981952037151615"><ele>1289.0</ele><time>2026-04-22T07:41:10Z</time></trkpt><trkpt lat="45.693424558939874" lon="10.982095654664398"><ele>1292.0</ele><time>2026-04-22T07:41:11Z</time></trkpt><trkpt lat="45.69331816919962" lon="10.982249186889637"><ele>1292.0</ele><time>2026-04-22T07:41:12Z</time></trkpt><trkpt lat="45.69320869006708" lon="10.982394149186636"><ele>1292.0</ele><time>2026-04-22T07:41:13Z</time></trkpt><trkpt lat="45.693099627103486" lon="10.982532117367226"><ele>1292.0</ele><time>2026-04-22T07:41:14Z</time></trkpt><trkpt lat="45.692994529692015" lon="10.982672575520771"><ele>1292.0</ele><time>2026-04-22T07:41:15Z</time></trkpt><trkpt lat="45.6928891223015" lon="10.982806754724786"><ele>1293.5</ele><time>2026-04-22T07:41:16Z</time></trkpt><trkpt lat="45.69278435695166" lon="10.982942499063618"><ele>1295.0</ele><time>2026-04-22T07:41:17Z</time></trkpt><trkpt lat="45.6926796212951" lon="10.98307777469662"><ele>1296.5</ele><time>2026-04-22T07:41:18Z</time></trkpt><trkpt lat="45.69257616680695" lon="10.983213896549666"><ele>1298.0</ele><time>2026-04-22T07:41:19Z</time></trkpt><trkpt lat="45.69247234464371" lon="10.98334477164941"><ele>1303.0</ele><time>2026-04-22T07:41:20Z</time></trkpt><trkpt lat="45.69236565413223" lon="10.98346894716324"><ele>1308.0</ele><time>2026-04-22T07:41:21Z</time></trkpt><trkpt lat="45.69225175239851" lon="10.983579901967131"><ele>1313.0</ele><time>2026-04-22T07:41:22Z</time></trkpt><trkpt lat="45.692133638153386" lon="10.98367019475286"><ele>1318.0</ele><time>2026-04-22T07:41:23Z</time></trkpt><trkpt lat="45.69200894683276" lon="10.983747175489023"><ele>1317.0</ele><time>2026-04-22T07:41:24Z</time></trkpt><trkpt lat="45.69187782935524" lon="10.983807141331164"><ele>1316.0</ele><time>2026-04-22T07:41:25Z</time></trkpt><trkpt lat="45.69174539339573" lon="10.983851308602922"><ele>1315.0</ele><time>2026-04-22T07:41:26Z</time></trkpt><trkpt lat="45.69161076561616" lon="10.9839023808993"><ele>1314.0</ele><time>2026-04-22T07:41:27Z</time></trkpt><trkpt lat="45.69148253093255" lon="10.98394849151159"><ele>1314.0</ele><time>2026-04-22T07:41:28Z</time></trkpt><trkpt lat="45.69136947668399" lon="10.983984431143332"><ele>1314.0</ele><time>2026-04-22T07:41:29Z</time></trkpt><trkpt lat="45.69126903681746" lon="10.984015954240332"><ele>1314.0</ele><time>2026-04-22T07:41:30Z</time></trkpt><trkpt lat="45.69118635016957" lon="10.984045563743443"><ele>1314.0</ele><time>2026-04-22T07:41:31Z</time></trkpt><trkpt lat="45.69110294759617" lon="10.98404688589811"><ele>1314.0</ele><time>2026-04-22T07:41:32Z</time></trkpt><trkpt lat="45.691026111634415" lon="10.983992069789405"><ele>1315.5</ele><time>2026-04-22T07:41:33Z</time></trkpt><trkpt lat="45.69096440285813" lon="10.983909313904164"><ele>1317.0</ele><time>2026-04-22T07:41:34Z</time></trkpt><trkpt lat="45.69093440150872" lon="10.98379611902277"><ele>1318.5</ele><time>2026-04-22T07:41:35Z</time></trkpt><trkpt lat="45.690945956566694" lon="10.983668599320733"><ele>1320.0</ele><time>2026-04-22T07:41:36Z</time></trkpt><trkpt lat="45.691000900607115" lon="10.983563640928908"><ele>1321.5</ele><time>2026-04-22T07:41:37Z</time></trkpt><trkpt lat="45.691065520000706" lon="10.983458349471455"><ele>1323.0</ele><time>2026-04-22T07:41:38Z</time></trkpt><trkpt lat="45.69112884768342" lon="10.983325354586539"><ele>1317.25</ele><time>2026-04-22T07:41:39Z</time></trkpt><trkpt lat="45.69120790195453" lon="10.9831952370173"><ele>1311.5</ele><time>2026-04-22T07:41:40Z</time></trkpt><trkpt lat="45.69127501165123" lon="10.983044337182905"><ele>1305.75</ele><time>2026-04-22T07:41:41Z</time></trkpt><trkpt lat="45.69132715593875" lon="10.982873833935038"><ele>1300.0</ele><time>2026-04-22T07:41:42Z</time></trkpt><trkpt lat="45.691355831875775" lon="10.982695443336837"><ele>1300.0</ele><time>2026-04-22T07:41:43Z</time></trkpt><trkpt lat="45.69136698982525" lon="10.982524131257202"><ele>1300.0</ele><time>2026-04-22T07:41:44Z</time></trkpt><trkpt lat="45.69135897912976" lon="10.982351185945312"><ele>1300.0</ele><time>2026-04-22T07:41:45Z</time></trkpt><trkpt lat="45.69132381611578" lon="10.982187044119598"><ele>1300.0</ele><time>2026-04-22T07:41:46Z</time></trkpt><trkpt lat="45.69126319045075" lon="10.982029786788159"><ele>1301.5</ele><time>2026-04-22T07:41:47Z</time></trkpt><trkpt lat="45.69117974487906" lon="10.981880071223578"><ele>1303.0</ele><time>2026-04-22T07:41:48Z</time></trkpt><trkpt lat="45.691081933621625" lon="10.981739412221978"><ele>1304.5</ele><time>2026-04-22T07:41:49Z</time></trkpt><trkpt lat="45.69098057965427" lon="10.981620521641089"><ele>1306.0</ele><time>2026-04-22T07:41:50Z</time></trkpt><trkpt lat="45.69087615590667" lon="10.981517294129636"><ele>1309.75</ele><time>2026-04-22T07:41:51Z</time></trkpt><trkpt lat="45.69076544527888" lon="10.981434713499171"><ele>1313.5</ele><time>2026-04-22T07:41:52Z</time></trkpt><trkpt lat="45.6906515472787" lon="10.981384756780146"><ele>1317.25</ele><time>2026-04-22T07:41:53Z</time></trkpt><trkpt lat="45.690539542682" lon="10.981367995440412"><ele>1321.0</ele><time>2026-04-22T07:41:54Z</time></trkpt><trkpt lat="45.69042747862515" lon="10.981391153372499"><ele>1321.0</ele><time>2026-04-22T07:41:55Z</time></trkpt><trkpt lat="45.69032219396437" lon="10.981452001258713"><ele>1321.0</ele><time>2026-04-22T07:41:56Z</time></trkpt><trkpt lat="45.690227087195225" lon="10.981542718226967"><ele>1321.0</ele><time>2026-04-22T07:41:57Z</time></trkpt><trkpt lat="45.69014491189745" lon="10.981667491877928"><ele>1321.0</ele><time>2026-04-22T07:41:58Z</time></trkpt><trkpt lat="45.69007282085569" lon="10.981824877061726"><ele>1325.5</ele><time>2026-04-22T07:41:59Z</time></trkpt><trkpt lat="45.69001040333684" lon="10.982009428857442"><ele>1330.0</ele><time>2026-04-22T07:42:00Z</time></trkpt><trkpt lat="45.689954202383376" lon="10.982178747823967"><ele>1334.5</ele><time>2026-04-22T07:42:01Z</time></trkpt><trkpt lat="45.6899031100218" lon="10.982325823507729"><ele>1339.0</ele><time>2026-04-22T07:42:02Z</time></trkpt><trkpt lat="45.68985524476333" lon="10.982452662661586"><ele>1340.0</ele><time>2026-04-22T07:42:03Z</time></trkpt><trkpt lat="45.68981392637118" lon="10.98256335200339"><ele>1341.0</ele><time>2026-04-22T07:42:04Z</time></trkpt><trkpt lat="45.689758121219604" lon="10.98266531081715"><ele>1342.0</ele><time>2026-04-22T07:42:05Z</time></trkpt><trkpt lat="45.68968199786465" lon="10.982730324198773"><ele>1343.0</ele><time>2026-04-22T07:42:06Z</time></trkpt><trkpt lat="45.68959801884415" lon="10.98275448154288"><ele>1344.0</ele><time>2026-04-22T07:42:07Z</time></trkpt><trkpt lat="45.68951056577478" lon="10.982735647988159"><ele>1345.0</ele><time>2026-04-22T07:42:08Z</time></trkpt><trkpt lat="45.689434589132134" lon="10.982672462033195"><ele>1344.6</ele><time>2026-04-22T07:42:09Z</time></trkpt><trkpt lat="45.68938027604145" lon="10.982570799359236"><ele>1344.2</ele><time>2026-04-22T07:42:10Z</time></trkpt><trkpt lat="45.68934537590114" lon="10.982443737515316"><ele>1343.8000000000002</ele><time>2026-04-22T07:42:11Z</time></trkpt><trkpt lat="45.68931866172553" lon="10.982292163398245"><ele>1343.4</ele><time>2026-04-22T07:42:12Z</time></trkpt><trkpt lat="45.68928343765903" lon="10.982143628946858"><ele>1343.0</ele><time>2026-04-22T07:42:13Z</time></trkpt><trkpt lat="45.689223262612366" lon="10.982008845556848"><ele>1343.0</ele><time>2026-04-22T07:42:14Z</time></trkpt><trkpt lat="45.68913482587721" lon="10.981888513005424"><ele>1343.0</ele><time>2026-04-22T07:42:15Z</time></trkpt><trkpt lat="45.68903907563832" lon="10.981801368124374"><ele>1343.0</ele><time>2026-04-22T07:42:16Z</time></trkpt><trkpt lat="45.68893093610839" lon="10.98175218210026"><ele>1343.0</ele><time>2026-04-22T07:42:17Z</time></trkpt><trkpt lat="45.68880587489173" lon="10.981727720095009"><ele>1343.0</ele><time>2026-04-22T07:42:18Z</time></trkpt><trkpt lat="45.68866488422946" lon="10.981715352925958"><ele>1343.0</ele><time>2026-04-22T07:42:19Z</time></trkpt><trkpt lat="45.688514249938045" lon="10.98169946678276"><ele>1343.0</ele><time>2026-04-22T07:42:20Z</time></trkpt><trkpt lat="45.68835993744627" lon="10.981679032927783"><ele>1343.0</ele><time>2026-04-22T07:42:21Z</time></trkpt><trkpt lat="45.68820506905901" lon="10.981654095407942"><ele>1344.0</ele><time>2026-04-22T07:42:22Z</time></trkpt><trkpt lat="45.68804594438826" lon="10.981627621614987"><ele>1345.0</ele><time>2026-04-22T07:42:23Z</time></trkpt><trkpt lat="45.687887006641574" lon="10.981594701099516"><ele>1346.0</ele><time>2026-04-22T07:42:23.999Z</time></trkpt><trkpt lat="45.68773665039292" lon="10.98155712515233"><ele>1349.6666666666667</ele><time>2026-04-22T07:42:24.999Z</time></trkpt><trkpt lat="45.68758794783258" lon="10.981512858123224"><ele>1353.3333333333333</ele><time>2026-04-22T07:42:25.999Z</time></trkpt><trkpt lat="45.68743756446232" lon="10.981457436450876"><ele>1357.0</ele><time>2026-04-22T07:42:26.999Z</time></trkpt><trkpt lat="45.68728676930112" lon="10.9813993292602"><ele>1357.0</ele><time>2026-04-22T07:42:27.999Z</time></trkpt><trkpt lat="45.687135112739995" lon="10.981337617118044"><ele>1357.0</ele><time>2026-04-22T07:42:28.999Z</time></trkpt><trkpt lat="45.6869808936108" lon="10.98127745526904"><ele>1357.0</ele><time>2026-04-22T07:42:29.999Z</time></trkpt><trkpt lat="45.68682729790774" lon="10.981220593235541"><ele>1360.3333333333333</ele><time>2026-04-22T07:42:30.999Z</time></trkpt><trkpt lat="45.686675150812036" lon="10.981166561785146"><ele>1363.6666666666667</ele><time>2026-04-22T07:42:31.999Z</time></trkpt><trkpt lat="45.68652261676322" lon="10.981127483252465"><ele>1367.0</ele><time>2026-04-22T07:42:32.999Z</time></trkpt><trkpt lat="45.68637229513727" lon="10.981104272915895"><ele>1367.0</ele><time>2026-04-22T07:42:33.999Z</time></trkpt><trkpt lat="45.68622415961628" lon="10.981089394775694"><ele>1367.0</ele><time>2026-04-22T07:42:34.999Z</time></trkpt><trkpt lat="45.68607810707549" lon="10.981081836538667"><ele>1367.0</ele><time>2026-04-22T07:42:35.999Z</time></trkpt><trkpt lat="45.68594432987357" lon="10.981078916617362"><ele>1367.0</ele><time>2026-04-22T07:42:36.999Z</time></trkpt><trkpt lat="45.68582824397473" lon="10.981077892265835"><ele>1368.6</ele><time>2026-04-22T07:42:37.999Z</time></trkpt><trkpt lat="45.68572179765594" lon="10.981049776733812"><ele>1370.1999999999998</ele><time>2026-04-22T07:42:38.999Z</time></trkpt><trkpt lat="45.68561553866419" lon="10.981046341393569"><ele>1371.8</ele><time>2026-04-22T07:42:39.999Z</time></trkpt><trkpt lat="45.685516088814964" lon="10.980984333905537"><ele>1373.4</ele><time>2026-04-22T07:42:40.999Z</time></trkpt><trkpt lat="45.68542816066836" lon="10.980891012313323"><ele>1375.0</ele><time>2026-04-22T07:42:41.999Z</time></trkpt><trkpt lat="45.68535946605222" lon="10.98076525980471"><ele>1375.0</ele><time>2026-04-22T07:42:42.999Z</time></trkpt><trkpt lat="45.6853056458413" lon="10.980612273834431"><ele>1375.0</ele><time>2026-04-22T07:42:43.999Z</time></trkpt><trkpt lat="45.68526137469395" lon="10.980448298006499"><ele>1375.0</ele><time>2026-04-22T07:42:44.999Z</time></trkpt><trkpt lat="45.68520066316602" lon="10.980293654320791"><ele>1375.0</ele><time>2026-04-22T07:42:45.999Z</time></trkpt><trkpt lat="45.68512555637818" lon="10.980154992596285"><ele>1375.0</ele><time>2026-04-22T07:42:46.999Z</time></trkpt><trkpt lat="45.68503740070108" lon="10.980024972802397"><ele>1375.0</ele><time>2026-04-22T07:42:47.999Z</time></trkpt><trkpt lat="45.684940479282524" lon="10.979911939695759"><ele>1375.0</ele><time>2026-04-22T07:42:48.999Z</time></trkpt><trkpt lat="45.6848363600821" lon="10.979810296629578"><ele>1375.0</ele><time>2026-04-22T07:42:49.999Z</time></trkpt><trkpt lat="45.68473025691696" lon="10.979716078943184"><ele>1376.0</ele><time>2026-04-22T07:42:50.999Z</time></trkpt><trkpt lat="45.68462427501875" lon="10.979622863069803"><ele>1377.0</ele><time>2026-04-22T07:42:51.999Z</time></trkpt><trkpt lat="45.68451688425368" lon="10.979530024032687"><ele>1378.0</ele><time>2026-04-22T07:42:53Z</time></trkpt><trkpt lat="45.68440953597334" lon="10.979439560914681"><ele>1379.0</ele><time>2026-04-22T07:42:54Z</time></trkpt><trkpt lat="45.68430291796605" lon="10.979349053467038"><ele>1379.0</ele><time>2026-04-22T07:42:55Z</time></trkpt><trkpt lat="45.684202405531536" lon="10.979264899041054"><ele>1379.0</ele><time>2026-04-22T07:42:56Z</time></trkpt><trkpt lat="45.68411433528939" lon="10.979198203146789"><ele>1379.0</ele><time>2026-04-22T07:42:57Z</time></trkpt><trkpt lat="45.68403446302206" lon="10.979134821923923"><ele>1379.0</ele><time>2026-04-22T07:42:58Z</time></trkpt><trkpt lat="45.683949706007" lon="10.979112739696328"><ele>1379.0</ele><time>2026-04-22T07:42:59Z</time></trkpt><trkpt lat="45.683867352745494" lon="10.979134309842573"><ele>1378.5714285714287</ele><time>2026-04-22T07:43:00Z</time></trkpt><trkpt lat="45.683795723300754" lon="10.979137366785679"><ele>1378.142857142857</ele><time>2026-04-22T07:43:01Z</time></trkpt><trkpt lat="45.68372896838296" lon="10.979139691060777"><ele>1377.7142857142858</ele><time>2026-04-22T07:43:02Z</time></trkpt><trkpt lat="45.68366320359056" lon="10.979144117553695"><ele>1377.2857142857142</ele><time>2026-04-22T07:43:03Z</time></trkpt><trkpt lat="45.683598875493395" lon="10.979148044654602"><ele>1376.857142857143</ele><time>2026-04-22T07:43:04Z</time></trkpt><trkpt lat="45.68353405967312" lon="10.979149529773652"><ele>1376.4285714285716</ele><time>2026-04-22T07:43:05Z</time></trkpt><trkpt lat="45.68347001731809" lon="10.979150580429112"><ele>1376.0</ele><time>2026-04-22T07:43:06Z</time></trkpt><trkpt lat="45.683406649715984" lon="10.979159724896837"><ele>1376.0</ele><time>2026-04-22T07:43:07Z</time></trkpt><trkpt lat="45.68329234480632" lon="10.979176639297695"><ele>1376.0</ele><time>2026-04-22T07:43:09Z</time></trkpt><trkpt lat="45.68319908772423" lon="10.97919051370891"><ele>1376.0</ele><time>2026-04-22T07:43:11Z</time></trkpt><trkpt lat="45.683128633285214" lon="10.97916986590364"><ele>1376.0</ele><time>2026-04-22T07:43:13Z</time></trkpt><trkpt lat="45.683064109376105" lon="10.979172095453007"><ele>1376.0</ele><time>2026-04-22T07:43:16Z</time></trkpt><trkpt lat="45.682984203362516" lon="10.979174856515154"><ele>1376.0</ele><time>2026-04-22T07:43:35Z</time></trkpt><trkpt lat="45.68290097391561" lon="10.979172164194097"><ele>1376.0</ele><time>2026-04-22T07:43:37Z</time></trkpt><trkpt lat="45.682771430906406" lon="10.979142594915102"><ele>1376.0</ele><time>2026-04-22T07:43:39Z</time></trkpt><trkpt lat="45.68270383825955" lon="10.979083941516771"><ele>1376.0</ele><time>2026-04-22T07:43:40Z</time></trkpt><trkpt lat="45.68263472889529" lon="10.979017941444491"><ele>1376.0</ele><time>2026-04-22T07:43:41Z</time></trkpt><trkpt lat="45.68256667034572" lon="10.978957909469774"><ele>1376.0</ele><time>2026-04-22T07:43:42Z</time></trkpt><trkpt lat="45.68249930724747" lon="10.97889309659006"><ele>1375.3333333333335</ele><time>2026-04-22T07:43:43Z</time></trkpt><trkpt lat="45.68243491493593" lon="10.978837729986257"><ele>1374.6666666666667</ele><time>2026-04-22T07:43:44Z</time></trkpt><trkpt lat="45.68236713807342" lon="10.978802428936019"><ele>1374.0</ele><time>2026-04-22T07:43:45Z</time></trkpt><trkpt lat="45.682298838034235" lon="10.97878892855711"><ele>1373.3333333333333</ele><time>2026-04-22T07:43:46Z</time></trkpt><trkpt lat="45.6822222807886" lon="10.978810623587773"><ele>1372.6666666666665</ele><time>2026-04-22T07:43:47Z</time></trkpt><trkpt lat="45.68215153369598" lon="10.978869337842644"><ele>1372.0</ele><time>2026-04-22T07:43:48Z</time></trkpt><trkpt lat="45.682097320094634" lon="10.978966670336304"><ele>1372.0</ele><time>2026-04-22T07:43:49Z</time></trkpt><trkpt lat="45.68206523653085" lon="10.979095197649784"><ele>1372.0</ele><time>2026-04-22T07:43:50Z</time></trkpt><trkpt lat="45.682059010835715" lon="10.979246779787506"><ele>1372.0</ele><time>2026-04-22T07:43:51Z</time></trkpt><trkpt lat="45.6820706150242" lon="10.979393124250116"><ele>1372.0</ele><time>2026-04-22T07:43:52Z</time></trkpt><trkpt lat="45.68208183124417" lon="10.979525588996"><ele>1372.0</ele><time>2026-04-22T07:43:53Z</time></trkpt><trkpt lat="45.68207863025418" lon="10.979651667889526"><ele>1370.0</ele><time>2026-04-22T07:43:54Z</time></trkpt><trkpt lat="45.6820579336218" lon="10.97977082507787"><ele>1368.0</ele><time>2026-04-22T07:43:55Z</time></trkpt><trkpt lat="45.682018157387" lon="10.979889965656625"><ele>1366.0</ele><time>2026-04-22T07:43:56Z</time></trkpt><trkpt lat="45.6819669653257" lon="10.980012080088056"><ele>1364.0</ele><time>2026-04-22T07:43:57Z</time></trkpt><trkpt lat="45.68191563236934" lon="10.980129194647194"><ele>1362.0</ele><time>2026-04-22T07:43:58Z</time></trkpt><trkpt lat="45.68185774249164" lon="10.980231184925726"><ele>1360.0</ele><time>2026-04-22T07:43:59Z</time></trkpt><trkpt lat="45.68177530679669" lon="10.980321377413262"><ele>1358.0</ele><time>2026-04-22T07:44:00Z</time></trkpt><trkpt lat="45.681677110424985" lon="10.980396989482852"><ele>1356.0</ele><time>2026-04-22T07:44:01Z</time></trkpt><trkpt lat="45.681564989515216" lon="10.980409265787532"><ele>1354.0</ele><time>2026-04-22T07:44:02Z</time></trkpt><trkpt lat="45.68146083761022" lon="10.980384470734174"><ele>1352.0</ele><time>2026-04-22T07:44:03Z</time></trkpt><trkpt lat="45.68137432245301" lon="10.980310435252697"><ele>1352.0</ele><time>2026-04-22T07:44:04Z</time></trkpt><trkpt lat="45.68131055344356" lon="10.980276551378996"><ele>1352.0</ele><time>2026-04-22T07:44:05Z</time></trkpt><trkpt lat="45.68118757074194" lon="10.980216040267337"><ele>1352.0</ele><time>2026-04-22T07:44:06Z</time></trkpt><trkpt lat="45.681069625886224" lon="10.980168742134419"><ele>1352.0</ele><time>2026-04-22T07:44:07Z</time></trkpt><trkpt lat="45.68096066834872" lon="10.980141587216075"><ele>1352.0</ele><time>2026-04-22T07:44:08Z</time></trkpt><trkpt lat="45.68085894569582" lon="10.980101472507606"><ele>1351.8</ele><time>2026-04-22T07:44:09Z</time></trkpt><trkpt lat="45.68076369987248" lon="10.980060183310425"><ele>1351.6</ele><time>2026-04-22T07:44:10Z</time></trkpt><trkpt lat="45.68067431984607" lon="10.98002193722056"><ele>1351.3999999999999</ele><time>2026-04-22T07:44:11Z</time></trkpt><trkpt lat="45.6805868525277" lon="10.9799877559722"><ele>1351.1999999999998</ele><time>2026-04-22T07:44:12Z</time></trkpt><trkpt lat="45.68050050585869" lon="10.979962151462983"><ele>1351.0</ele><time>2026-04-22T07:44:13Z</time></trkpt><trkpt lat="45.680418821042046" lon="10.97995232717758"><ele>1350.8333333333333</ele><time>2026-04-22T07:44:14Z</time></trkpt><trkpt lat="45.68034216535164" lon="10.979954315689309"><ele>1350.6666666666665</ele><time>2026-04-22T07:44:15Z</time></trkpt><trkpt lat="45.68026956217493" lon="10.979984092565651"><ele>1350.5</ele><time>2026-04-22T07:44:16Z</time></trkpt><trkpt lat="45.680213380123945" lon="10.980049071747375"><ele>1350.3333333333333</ele><time>2026-04-22T07:44:17Z</time></trkpt><trkpt lat="45.680177230059556" lon="10.980143207772512"><ele>1350.1666666666667</ele><time>2026-04-22T07:44:18Z</time></trkpt><trkpt lat="45.680173175219444" lon="10.980259774533947"><ele>1350.0</ele><time>2026-04-22T07:44:19Z</time></trkpt><trkpt lat="45.6802119561456" lon="10.980363232802889"><ele>1350.2</ele><time>2026-04-22T07:44:20Z</time></trkpt><trkpt lat="45.68027499831289" lon="10.9804400952043"><ele>1350.4</ele><time>2026-04-22T07:44:21Z</time></trkpt><trkpt lat="45.680366601964934" lon="10.980500557831387"><ele>1350.6</ele><time>2026-04-22T07:44:22Z</time></trkpt><trkpt lat="45.680475583827395" lon="10.980555845511827"><ele>1350.8</ele><time>2026-04-22T07:44:23Z</time></trkpt><trkpt lat="45.68060146964924" lon="10.980618869028165"><ele>1351.0</ele><time>2026-04-22T07:44:24Z</time></trkpt><trkpt lat="45.68073353739532" lon="10.98069751283281"><ele>1351.0</ele><time>2026-04-22T07:44:25Z</time></trkpt><trkpt lat="45.68087448171192" lon="10.98078587559414"><ele>1351.0</ele><time>2026-04-22T07:44:26Z</time></trkpt><trkpt lat="45.68101306857343" lon="10.980869628664216"><ele>1351.0</ele><time>2026-04-22T07:44:27Z</time></trkpt><trkpt lat="45.681149490256125" lon="10.980945794420188"><ele>1349.5</ele><time>2026-04-22T07:44:27.999Z</time></trkpt><trkpt lat="45.68126527257765" lon="10.981026642686874"><ele>1348.0</ele><time>2026-04-22T07:44:28.999Z</time></trkpt><trkpt lat="45.681378782195004" lon="10.981098318984277"><ele>1346.5</ele><time>2026-04-22T07:44:29.999Z</time></trkpt><trkpt lat="45.68148604510116" lon="10.981179436919382"><ele>1345.0</ele><time>2026-04-22T07:44:30.999Z</time></trkpt><trkpt lat="45.68156769430938" lon="10.981297041847006"><ele>1345.0</ele><time>2026-04-22T07:44:31.999Z</time></trkpt><trkpt lat="45.681605080365806" lon="10.981468459906678"><ele>1345.0</ele><time>2026-04-22T07:44:32.999Z</time></trkpt><trkpt lat="45.68164469696031" lon="10.981637548734886"><ele>1345.0</ele><time>2026-04-22T07:44:33.999Z</time></trkpt><trkpt lat="45.68169176761619" lon="10.981842581707824"><ele>1345.0</ele><time>2026-04-22T07:44:34.999Z</time></trkpt><trkpt lat="45.68173395223892" lon="10.982032006296485"><ele>1344.0</ele><time>2026-04-22T07:44:35.999Z</time></trkpt><trkpt lat="45.68176449578809" lon="10.982207480113406"><ele>1343.0</ele><time>2026-04-22T07:44:36.999Z</time></trkpt><trkpt lat="45.68177640964392" lon="10.982379904196025"><ele>1342.0</ele><time>2026-04-22T07:44:37.999Z</time></trkpt><trkpt lat="45.68179231752169" lon="10.982558402903884"><ele>1341.0</ele><time>2026-04-22T07:44:38.999Z</time></trkpt><trkpt lat="45.6817730264545" lon="10.982730453404297"><ele>1340.0</ele><time>2026-04-22T07:44:39.999Z</time></trkpt><trkpt lat="45.681774322693165" lon="10.982894518647766"><ele>1339.0</ele><time>2026-04-22T07:44:40.999Z</time></trkpt><trkpt lat="45.68180737578019" lon="10.983065172167217"><ele>1338.0</ele><time>2026-04-22T07:44:41.999Z</time></trkpt><trkpt lat="45.68185933647794" lon="10.98323969973548"><ele>1337.0</ele><time>2026-04-22T07:44:42.999Z</time></trkpt><trkpt lat="45.68191815003505" lon="10.983411548007684"><ele>1336.0</ele><time>2026-04-22T07:44:43.999Z</time></trkpt><trkpt lat="45.6819496475466" lon="10.983594864846806"><ele>1335.0</ele><time>2026-04-22T07:44:44.999Z</time></trkpt><trkpt lat="45.681969510097986" lon="10.983778246080531"><ele>1334.0</ele><time>2026-04-22T07:44:45.999Z</time></trkpt><trkpt lat="45.681960861746774" lon="10.983972772680616"><ele>1333.0</ele><time>2026-04-22T07:44:46.999Z</time></trkpt><trkpt lat="45.68192513267238" lon="10.984161799698146"><ele>1332.5</ele><time>2026-04-22T07:44:47.999Z</time></trkpt><trkpt lat="45.68186209075777" lon="10.984335610106617"><ele>1332.0</ele><time>2026-04-22T07:44:48.999Z</time></trkpt><trkpt lat="45.68178614778567" lon="10.98450093082474"><ele>1331.5</ele><time>2026-04-22T07:44:49.999Z</time></trkpt><trkpt lat="45.68172113465003" lon="10.984666171387872"><ele>1331.0</ele><time>2026-04-22T07:44:50.999Z</time></trkpt><trkpt lat="45.6816617992898" lon="10.984815094402432"><ele>1331.0</ele><time>2026-04-22T07:44:51.999Z</time></trkpt><trkpt lat="45.68162648066172" lon="10.984970506688423"><ele>1331.0</ele><time>2026-04-22T07:44:52.999Z</time></trkpt><trkpt lat="45.68161944229927" lon="10.985128247799125"><ele>1331.0</ele><time>2026-04-22T07:44:53.999Z</time></trkpt><trkpt lat="45.68164750917949" lon="10.985278537421935"><ele>1331.0</ele><time>2026-04-22T07:44:54.999Z</time></trkpt><trkpt lat="45.68169930368047" lon="10.98542119585555"><ele>1331.0</ele><time>2026-04-22T07:44:55.999Z</time></trkpt><trkpt lat="45.68177490431057" lon="10.985551872045333"><ele>1331.0</ele><time>2026-04-22T07:44:56.999Z</time></trkpt><trkpt lat="45.681864585666574" lon="10.985670172972345"><ele>1331.0</ele><time>2026-04-22T07:44:57.999Z</time></trkpt><trkpt lat="45.68193902192681" lon="10.985793843637909"><ele>1331.0</ele><time>2026-04-22T07:44:59Z</time></trkpt><trkpt lat="45.68200967319503" lon="10.985914044392585"><ele>1331.0</ele><time>2026-04-22T07:45:00Z</time></trkpt><trkpt lat="45.68206159077606" lon="10.986042225400857"><ele>1331.0</ele><time>2026-04-22T07:45:01Z</time></trkpt><trkpt lat="45.68209933263475" lon="10.986175459983905"><ele>1331.6</ele><time>2026-04-22T07:45:02Z</time></trkpt><trkpt lat="45.68206357807536" lon="10.986326434349454"><ele>1332.1999999999998</ele><time>2026-04-22T07:45:03Z</time></trkpt><trkpt lat="45.6820244497639" lon="10.98647428094774"><ele>1332.8000000000002</ele><time>2026-04-22T07:45:04Z</time></trkpt><trkpt lat="45.68198604249983" lon="10.986604553549109"><ele>1333.4</ele><time>2026-04-22T07:45:05Z</time></trkpt><trkpt lat="45.68193076328351" lon="10.986722894982238"><ele>1334.0</ele><time>2026-04-22T07:45:06Z</time></trkpt><trkpt lat="45.681841859330866" lon="10.986815996237612"><ele>1338.0</ele><time>2026-04-22T07:45:07Z</time></trkpt><trkpt lat="45.68173033178313" lon="10.986850255711168"><ele>1342.0</ele><time>2026-04-22T07:45:08Z</time></trkpt><trkpt lat="45.68161319951423" lon="10.986860484718504"><ele>1346.0</ele><time>2026-04-22T07:45:09Z</time></trkpt><trkpt lat="45.68148707347077" lon="10.98689178256354"><ele>1350.0</ele><time>2026-04-22T07:45:10Z</time></trkpt><trkpt lat="45.68135649740378" lon="10.986876967990753"><ele>1350.0</ele><time>2026-04-22T07:45:11Z</time></trkpt><trkpt lat="45.68123348284959" lon="10.986872751194289"><ele>1350.0</ele><time>2026-04-22T07:45:12Z</time></trkpt><trkpt lat="45.681119176451595" lon="10.986874883266491"><ele>1350.0</ele><time>2026-04-22T07:45:13Z</time></trkpt><trkpt lat="45.681008940647416" lon="10.98690758831946"><ele>1350.0</ele><time>2026-04-22T07:45:14Z</time></trkpt><trkpt lat="45.68090577979652" lon="10.986986804376903"><ele>1346.25</ele><time>2026-04-22T07:45:15Z</time></trkpt><trkpt lat="45.68080562675441" lon="10.987095032508929"><ele>1342.5</ele><time>2026-04-22T07:45:16Z</time></trkpt><trkpt lat="45.68070043655332" lon="10.987196023518212"><ele>1338.75</ele><time>2026-04-22T07:45:17Z</time></trkpt><trkpt lat="45.68057713602807" lon="10.98724927598299"><ele>1335.0</ele><time>2026-04-22T07:45:18Z</time></trkpt><trkpt lat="45.68045970283409" lon="10.987272880750362"><ele>1335.0</ele><time>2026-04-22T07:45:19Z</time></trkpt><trkpt lat="45.68033655279453" lon="10.987305090880387"><ele>1335.0</ele><time>2026-04-22T07:45:20Z</time></trkpt><trkpt lat="45.680226529705536" lon="10.987348236975846"><ele>1335.0</ele><time>2026-04-22T07:45:21Z</time></trkpt><trkpt lat="45.68011234967962" lon="10.987442472594429"><ele>1335.0</ele><time>2026-04-22T07:45:22Z</time></trkpt><trkpt lat="45.68000233238019" lon="10.987559933087539"><ele>1334.5</ele><time>2026-04-22T07:45:23Z</time></trkpt><trkpt lat="45.67990220033978" lon="10.987690668128794"><ele>1334.0</ele><time>2026-04-22T07:45:24Z</time></trkpt><trkpt lat="45.679796938749" lon="10.98780470984409"><ele>1333.5</ele><time>2026-04-22T07:45:25Z</time></trkpt><trkpt lat="45.67967535450012" lon="10.987886425674764"><ele>1333.0</ele><time>2026-04-22T07:45:26Z</time></trkpt><trkpt lat="45.679547396037975" lon="10.98795088002508"><ele>1328.75</ele><time>2026-04-22T07:45:27Z</time></trkpt><trkpt lat="45.679423906519155" lon="10.988036882414438"><ele>1324.5</ele><time>2026-04-22T07:45:28Z</time></trkpt><trkpt lat="45.679314468699644" lon="10.988132105849305"><ele>1320.25</ele><time>2026-04-22T07:45:29Z</time></trkpt><trkpt lat="45.67919758410299" lon="10.988206232360817"><ele>1316.0</ele><time>2026-04-22T07:45:30Z</time></trkpt><trkpt lat="45.67907544267759" lon="10.988253633682698"><ele>1316.0</ele><time>2026-04-22T07:45:31Z</time></trkpt><trkpt lat="45.67895197850396" lon="10.988275477712907"><ele>1316.0</ele><time>2026-04-22T07:45:32Z</time></trkpt><trkpt lat="45.67883880228781" lon="10.988307406168671"><ele>1316.0</ele><time>2026-04-22T07:45:33Z</time></trkpt><trkpt lat="45.67872488033038" lon="10.988348947600633"><ele>1316.0</ele><time>2026-04-22T07:45:34Z</time></trkpt><trkpt lat="45.67862020517043" lon="10.98843248841609"><ele>1317.0</ele><time>2026-04-22T07:45:35Z</time></trkpt><trkpt lat="45.6785238465587" lon="10.988550360758248"><ele>1318.0</ele><time>2026-04-22T07:45:36Z</time></trkpt><trkpt lat="45.67842254818031" lon="10.988696127618253"><ele>1319.0</ele><time>2026-04-22T07:45:37Z</time></trkpt><trkpt lat="45.67833279246409" lon="10.988822764319437"><ele>1320.0</ele><time>2026-04-22T07:45:38Z</time></trkpt><trkpt lat="45.67822279755304" lon="10.988921436612271"><ele>1320.0</ele><time>2026-04-22T07:45:39Z</time></trkpt><trkpt lat="45.67810806216636" lon="10.98895727307513"><ele>1320.0</ele><time>2026-04-22T07:45:40Z</time></trkpt><trkpt lat="45.677988489146685" lon="10.988966566281576"><ele>1320.0</ele><time>2026-04-22T07:45:41Z</time></trkpt><trkpt lat="45.677856723791095" lon="10.988957699622425"><ele>1320.0</ele><time>2026-04-22T07:45:42Z</time></trkpt><trkpt lat="45.677727297940756" lon="10.988920536519009"><ele>1316.5</ele><time>2026-04-22T07:45:43Z</time></trkpt><trkpt lat="45.67758998739158" lon="10.988888098413861"><ele>1313.0</ele><time>2026-04-22T07:45:44Z</time></trkpt><trkpt lat="45.677457895891685" lon="10.98888595071442"><ele>1309.5</ele><time>2026-04-22T07:45:45Z</time></trkpt><trkpt lat="45.67733554240308" lon="10.988895268481363"><ele>1306.0</ele><time>2026-04-22T07:45:46Z</time></trkpt><trkpt lat="45.6772165942066" lon="10.988952695041107"><ele>1306.0</ele><time>2026-04-22T07:45:47Z</time></trkpt><trkpt lat="45.67709952270523" lon="10.988999624129486"><ele>1306.0</ele><time>2026-04-22T07:45:48Z</time></trkpt><trkpt lat="45.67698675420165" lon="10.989002721986719"><ele>1306.0</ele><time>2026-04-22T07:45:49Z</time></trkpt><trkpt lat="45.67687970552622" lon="10.98899071428447"><ele>1306.0</ele><time>2026-04-22T07:45:50Z</time></trkpt><trkpt lat="45.67678328647123" lon="10.989020380859055"><ele>1306.0</ele><time>2026-04-22T07:45:51Z</time></trkpt><trkpt lat="45.67669686445166" lon="10.98907988376165"><ele>1307.4</ele><time>2026-04-22T07:45:52Z</time></trkpt><trkpt lat="45.67664491220745" lon="10.989191007113892"><ele>1308.8</ele><time>2026-04-22T07:45:53Z</time></trkpt><trkpt lat="45.67662171255815" lon="10.989330575633497"><ele>1310.2</ele><time>2026-04-22T07:45:54Z</time></trkpt><trkpt lat="45.67659851640751" lon="10.989511294199929"><ele>1311.6000000000001</ele><time>2026-04-22T07:45:55Z</time></trkpt><trkpt lat="45.6765454813682" lon="10.989607128425915"><ele>1313.0</ele><time>2026-04-22T07:45:56Z</time></trkpt><trkpt lat="45.67648811977825" lon="10.989709532250316"><ele>1313.0</ele><time>2026-04-22T07:45:57Z</time></trkpt><trkpt lat="45.6763359410454" lon="10.989725676902745"><ele>1313.0</ele><time>2026-04-22T07:45:58Z</time></trkpt><trkpt lat="45.67621505138732" lon="10.989713673071126"><ele>1313.0</ele><time>2026-04-22T07:45:59Z</time></trkpt><trkpt lat="45.676094533501654" lon="10.98968634535137"><ele>1313.0</ele><time>2026-04-22T07:46:00Z</time></trkpt><trkpt lat="45.67597866317464" lon="10.989658552224515"><ele>1310.0</ele><time>2026-04-22T07:46:01Z</time></trkpt><trkpt lat="45.67587470371202" lon="10.989656877678174"><ele>1307.0</ele><time>2026-04-22T07:46:02Z</time></trkpt><trkpt lat="45.67576741685263" lon="10.989678456037272"><ele>1304.0</ele><time>2026-04-22T07:46:03Z</time></trkpt><trkpt lat="45.67566281087167" lon="10.989767022751938"><ele>1301.0</ele><time>2026-04-22T07:46:04Z</time></trkpt><trkpt lat="45.6755704463505" lon="10.989878245756232"><ele>1301.0</ele><time>2026-04-22T07:46:05Z</time></trkpt><trkpt lat="45.67549417335723" lon="10.989995670084445"><ele>1301.0</ele><time>2026-04-22T07:46:06Z</time></trkpt><trkpt lat="45.67539656523188" lon="10.990079605876666"><ele>1301.0</ele><time>2026-04-22T07:46:07Z</time></trkpt><trkpt lat="45.67531551507084" lon="10.990124797450546"><ele>1301.0</ele><time>2026-04-22T07:46:08Z</time></trkpt><trkpt lat="45.675254037785514" lon="10.990196550984267"><ele>1301.0</ele><time>2026-04-22T07:46:09Z</time></trkpt><trkpt lat="45.67522267970409" lon="10.99031724105248"><ele>1300.6</ele><time>2026-04-22T07:46:10Z</time></trkpt><trkpt lat="45.67521794598931" lon="10.990467013264812"><ele>1300.1999999999998</ele><time>2026-04-22T07:46:11Z</time></trkpt><trkpt lat="45.675222588574364" lon="10.990633692274459"><ele>1299.8000000000002</ele><time>2026-04-22T07:46:12Z</time></trkpt><trkpt lat="45.6752135186462" lon="10.990796155253701"><ele>1299.4</ele><time>2026-04-22T07:46:13Z</time></trkpt><trkpt lat="45.67518786845875" lon="10.990928759880306"><ele>1299.0</ele><time>2026-04-22T07:46:14Z</time></trkpt><trkpt lat="45.6751608689925" lon="10.991053250767294"><ele>1301.0000000000002</ele><time>2026-04-22T07:46:15Z</time></trkpt><trkpt lat="45.67511580398622" lon="10.991148029526947"><ele>1303.0</ele><time>2026-04-22T07:46:16Z</time></trkpt><trkpt lat="45.675079226841085" lon="10.99124427890461"><ele>1305.0</ele><time>2026-04-22T07:46:17Z</time></trkpt><trkpt lat="45.675021490142335" lon="10.991302438403494"><ele>1307.0</ele><time>2026-04-22T07:46:18Z</time></trkpt><trkpt lat="45.67495217790913" lon="10.991317963478503"><ele>1309.0</ele><time>2026-04-22T07:46:19Z</time></trkpt><trkpt lat="45.67488055233424" lon="10.991296442996248"><ele>1311.0000000000002</ele><time>2026-04-22T07:46:20Z</time></trkpt><trkpt lat="45.67482140045397" lon="10.991228739538611"><ele>1313.0</ele><time>2026-04-22T07:46:21Z</time></trkpt><trkpt lat="45.674776024486" lon="10.991104021691124"><ele>1313.0</ele><time>2026-04-22T07:46:22Z</time></trkpt><trkpt lat="45.67474796164918" lon="10.990961229053024"><ele>1313.0</ele><time>2026-04-22T07:46:23Z</time></trkpt><trkpt lat="45.67472082609381" lon="10.99079871338394"><ele>1313.0</ele><time>2026-04-22T07:46:24Z</time></trkpt><trkpt lat="45.674680861233455" lon="10.990646143520106"><ele>1313.0</ele><time>2026-04-22T07:46:25Z</time></trkpt><trkpt lat="45.67462141106417" lon="10.99051262523261"><ele>1313.0</ele><time>2026-04-22T07:46:25.999Z</time></trkpt><trkpt lat="45.67453881864468" lon="10.990393325873352"><ele>1311.75</ele><time>2026-04-22T07:46:26.999Z</time></trkpt><trkpt lat="45.674426379142666" lon="10.990293727873313"><ele>1310.5</ele><time>2026-04-22T07:46:27.999Z</time></trkpt><trkpt lat="45.67430389600453" lon="10.990234608349255"><ele>1309.25</ele><time>2026-04-22T07:46:28.999Z</time></trkpt><trkpt lat="45.674169844005924" lon="10.990200234236537"><ele>1308.0</ele><time>2026-04-22T07:46:29.999Z</time></trkpt><trkpt lat="45.6740328033956" lon="10.990181517808143"><ele>1308.0</ele><time>2026-04-22T07:46:30.999Z</time></trkpt><trkpt lat="45.67390276047757" lon="10.99015989397845"><ele>1308.0</ele><time>2026-04-22T07:46:31.999Z</time></trkpt><trkpt lat="45.673776268202836" lon="10.990127878967293"><ele>1308.0</ele><time>2026-04-22T07:46:32.999Z</time></trkpt><trkpt lat="45.673649141270616" lon="10.990095241453444"><ele>1308.0</ele><time>2026-04-22T07:46:33.999Z</time></trkpt><trkpt lat="45.67351905706151" lon="10.990068033928194"><ele>1308.0</ele><time>2026-04-22T07:46:34.999Z</time></trkpt><trkpt lat="45.67338881638599" lon="10.990024969934849"><ele>1308.0</ele><time>2026-04-22T07:46:35.999Z</time></trkpt><trkpt lat="45.67325585784682" lon="10.990018912974323"><ele>1308.0</ele><time>2026-04-22T07:46:36.999Z</time></trkpt><trkpt lat="45.67311707992553" lon="10.990017989407374"><ele>1308.0</ele><time>2026-04-22T07:46:37.999Z</time></trkpt><trkpt lat="45.67297681490254" lon="10.990033493844773"><ele>1308.0</ele><time>2026-04-22T07:46:38.999Z</time></trkpt><trkpt lat="45.67284310674331" lon="10.990020795103694"><ele>1308.0</ele><time>2026-04-22T07:46:39.999Z</time></trkpt><trkpt lat="45.672715689638366" lon="10.990012808420257"><ele>1308.0</ele><time>2026-04-22T07:46:40.999Z</time></trkpt><trkpt lat="45.672591207521805" lon="10.989984409292006"><ele>1308.0</ele><time>2026-04-22T07:46:41.999Z</time></trkpt><trkpt lat="45.67247137939455" lon="10.98997517293391"><ele>1305.75</ele><time>2026-04-22T07:46:42.999Z</time></trkpt><trkpt lat="45.67235465630524" lon="10.990003726226327"><ele>1303.5</ele><time>2026-04-22T07:46:43.999Z</time></trkpt><trkpt lat="45.672235079153694" lon="10.990053964327624"><ele>1301.25</ele><time>2026-04-22T07:46:44.999Z</time></trkpt><trkpt lat="45.67211088258602" lon="10.990115180329978"><ele>1299.0</ele><time>2026-04-22T07:46:45.999Z</time></trkpt><trkpt lat="45.6719913432037" lon="10.990186086657324"><ele>1297.25</ele><time>2026-04-22T07:46:46.999Z</time></trkpt><trkpt lat="45.671874571028255" lon="10.990250277229269"><ele>1295.5</ele><time>2026-04-22T07:46:47.999Z</time></trkpt><trkpt lat="45.671758459980026" lon="10.990299886584811"><ele>1293.75</ele><time>2026-04-22T07:46:48.999Z</time></trkpt><trkpt lat="45.67163381105021" lon="10.990331202211873"><ele>1292.0</ele><time>2026-04-22T07:46:49.999Z</time></trkpt><trkpt lat="45.6715066030851" lon="10.990336492773318"><ele>1292.0</ele><time>2026-04-22T07:46:50.999Z</time></trkpt><trkpt lat="45.67137648911145" lon="10.990327610215237"><ele>1292.0</ele><time>2026-04-22T07:46:51.999Z</time></trkpt><trkpt lat="45.67124934208207" lon="10.990330507323918"><ele>1292.0</ele><time>2026-04-22T07:46:52.999Z</time></trkpt><trkpt lat="45.671117638578" lon="10.990304513240245"><ele>1292.0</ele><time>2026-04-22T07:46:53.999Z</time></trkpt><trkpt lat="45.67098675478275" lon="10.990281800895472"><ele>1290.5</ele><time>2026-04-22T07:46:54.999Z</time></trkpt><trkpt lat="45.670854705034834" lon="10.990273220189808"><ele>1289.0</ele><time>2026-04-22T07:46:55.999Z</time></trkpt><trkpt lat="45.67072681522049" lon="10.990249129270412"><ele>1287.5</ele><time>2026-04-22T07:46:56.999Z</time></trkpt><trkpt lat="45.67058440679802" lon="10.990230468467626"><ele>1286.0</ele><time>2026-04-22T07:46:57.999Z</time></trkpt><trkpt lat="45.670429480434734" lon="10.990199656504188"><ele>1285.0</ele><time>2026-04-22T07:46:58.999Z</time></trkpt><trkpt lat="45.670270963162814" lon="10.99014920505448"><ele>1284.0</ele><time>2026-04-22T07:46:59.999Z</time></trkpt><trkpt lat="45.67011341387419" lon="10.99008122289492"><ele>1283.0</ele><time>2026-04-22T07:47:00.999Z</time></trkpt><trkpt lat="45.66995347960448" lon="10.990030096472791"><ele>1272.6666666666667</ele><time>2026-04-22T07:47:01.999Z</time></trkpt><trkpt lat="45.66979363843012" lon="10.990002402747239"><ele>1262.3333333333333</ele><time>2026-04-22T07:47:02.999Z</time></trkpt><trkpt lat="45.66963998402105" lon="10.989990001739477"><ele>1252.0</ele><time>2026-04-22T07:47:03.999Z</time></trkpt><trkpt lat="45.6694784550434" lon="10.989958724629457"><ele>1254.3333333333333</ele><time>2026-04-22T07:47:05Z</time></trkpt><trkpt lat="45.66931733953219" lon="10.98990769835526"><ele>1256.6666666666667</ele><time>2026-04-22T07:47:06Z</time></trkpt><trkpt lat="45.66915534561561" lon="10.989833871990296"><ele>1259.0</ele><time>2026-04-22T07:47:07Z</time></trkpt><trkpt lat="45.66899744169458" lon="10.989743085657658"><ele>1259.0</ele><time>2026-04-22T07:47:08Z</time></trkpt><trkpt lat="45.66883927221186" lon="10.989641472689232"><ele>1259.0</ele><time>2026-04-22T07:47:09Z</time></trkpt><trkpt lat="45.66867164394824" lon="10.989544928865213"><ele>1259.0</ele><time>2026-04-22T07:47:10Z</time></trkpt><trkpt lat="45.66850022312321" lon="10.989463736920712"><ele>1262.6666666666667</ele><time>2026-04-22T07:47:11Z</time></trkpt><trkpt lat="45.668331222707316" lon="10.98938419866131"><ele>1266.3333333333333</ele><time>2026-04-22T07:47:12Z</time></trkpt><trkpt lat="45.66816253238132" lon="10.989319792275703"><ele>1270.0</ele><time>2026-04-22T07:47:13Z</time></trkpt><trkpt lat="45.66799414017104" lon="10.989255763420793"><ele>1270.0</ele><time>2026-04-22T07:47:14Z</time></trkpt><trkpt lat="45.667832659538156" lon="10.989202416781715"><ele>1270.0</ele><time>2026-04-22T07:47:15Z</time></trkpt><trkpt lat="45.66767981667334" lon="10.989152808340021"><ele>1270.0</ele><time>2026-04-22T07:47:16Z</time></trkpt><trkpt lat="45.667520115498284" lon="10.989113834663506"><ele>1263.75</ele><time>2026-04-22T07:47:17Z</time></trkpt><trkpt lat="45.66736699116232" lon="10.989062212724903"><ele>1257.5</ele><time>2026-04-22T07:47:18Z</time></trkpt><trkpt lat="45.66721931985753" lon="10.989040215881712"><ele>1251.25</ele><time>2026-04-22T07:47:19Z</time></trkpt><trkpt lat="45.66707614983136" lon="10.98902799623889"><ele>1245.0</ele><time>2026-04-22T07:47:20Z</time></trkpt><trkpt lat="45.66693566491066" lon="10.988997483701372"><ele>1245.0</ele><time>2026-04-22T07:47:21Z</time></trkpt><trkpt lat="45.666803898499346" lon="10.988954009591549"><ele>1245.0</ele><time>2026-04-22T07:47:22Z</time></trkpt><trkpt lat="45.66667162857819" lon="10.988871926398016"><ele>1245.0</ele><time>2026-04-22T07:47:23Z</time></trkpt><trkpt lat="45.666541932013054" lon="10.988766233819513"><ele>1245.0</ele><time>2026-04-22T07:47:24Z</time></trkpt><trkpt lat="45.666399717946135" lon="10.98865007367751"><ele>1245.0</ele><time>2026-04-22T07:47:25Z</time></trkpt><trkpt lat="45.66625305988142" lon="10.988556075839279"><ele>1245.0</ele><time>2026-04-22T07:47:26Z</time></trkpt><trkpt lat="45.666108043833326" lon="10.988472852414773"><ele>1245.0</ele><time>2026-04-22T07:47:27Z</time></trkpt><trkpt lat="45.66596889369115" lon="10.988397971746283"><ele>1240.75</ele><time>2026-04-22T07:47:28Z</time></trkpt><trkpt lat="45.66582967169302" lon="10.98833687475996"><ele>1236.5</ele><time>2026-04-22T07:47:29Z</time></trkpt><trkpt lat="45.66569989955811" lon="10.988273523005077"><ele>1232.25</ele><time>2026-04-22T07:47:30Z</time></trkpt><trkpt lat="45.665569534171965" lon="10.988234160101179"><ele>1228.0</ele><time>2026-04-22T07:47:31Z</time></trkpt><trkpt lat="45.6654400290036" lon="10.988227479515698"><ele>1228.0</ele><time>2026-04-22T07:47:32Z</time></trkpt><trkpt lat="45.665312985387935" lon="10.988244496459519"><ele>1228.0</ele><time>2026-04-22T07:47:33Z</time></trkpt><trkpt lat="45.66519199528195" lon="10.988278109077369"><ele>1228.0</ele><time>2026-04-22T07:47:34Z</time></trkpt><trkpt lat="45.66507943992004" lon="10.988295800137106"><ele>1228.0</ele><time>2026-04-22T07:47:35Z</time></trkpt><trkpt lat="45.664972962628354" lon="10.988289433382931"><ele>1228.75</ele><time>2026-04-22T07:47:36Z</time></trkpt><trkpt lat="45.66486926566836" lon="10.988249518091006"><ele>1229.5</ele><time>2026-04-22T07:47:37Z</time></trkpt><trkpt lat="45.664776893355715" lon="10.988163898312099"><ele>1230.25</ele><time>2026-04-22T07:47:38Z</time></trkpt><trkpt lat="45.6646974634519" lon="10.988038590886172"><ele>1231.0</ele><time>2026-04-22T07:47:39Z</time></trkpt><trkpt lat="45.6646276272694" lon="10.987891967513722"><ele>1231.0</ele><time>2026-04-22T07:47:40Z</time></trkpt><trkpt lat="45.664535030635825" lon="10.98775582067813"><ele>1231.0</ele><time>2026-04-22T07:47:41Z</time></trkpt><trkpt lat="45.66441537345404" lon="10.987637427094988"><ele>1231.0</ele><time>2026-04-22T07:47:42Z</time></trkpt><trkpt lat="45.6643022227122" lon="10.987546791189217"><ele>1231.0</ele><time>2026-04-22T07:47:43Z</time></trkpt><trkpt lat="45.66419289582969" lon="10.987452934937734"><ele>1228.0</ele><time>2026-04-22T07:47:44Z</time></trkpt><trkpt lat="45.66408607142844" lon="10.987341604556711"><ele>1225.0</ele><time>2026-04-22T07:47:45Z</time></trkpt><trkpt lat="45.663982242203815" lon="10.987221483850393"><ele>1222.0</ele><time>2026-04-22T07:47:46Z</time></trkpt><trkpt lat="45.66387590031076" lon="10.987102157579718"><ele>1219.0</ele><time>2026-04-22T07:47:47Z</time></trkpt><trkpt lat="45.66375350878787" lon="10.987001760092756"><ele>1219.0</ele><time>2026-04-22T07:47:48Z</time></trkpt><trkpt lat="45.6636173978698" lon="10.98691793839403"><ele>1219.0</ele><time>2026-04-22T07:47:49Z</time></trkpt><trkpt lat="45.66348260050759" lon="10.986848068506177"><ele>1219.0</ele><time>2026-04-22T07:47:50Z</time></trkpt><trkpt lat="45.66335347579065" lon="10.986784368475226"><ele>1219.0</ele><time>2026-04-22T07:47:51Z</time></trkpt><trkpt lat="45.663234473421376" lon="10.986719229277792"><ele>1215.75</ele><time>2026-04-22T07:47:52Z</time></trkpt><trkpt lat="45.663121956196726" lon="10.986658319109681"><ele>1212.5</ele><time>2026-04-22T07:47:53Z</time></trkpt><trkpt lat="45.66300726537711" lon="10.986619516282433"><ele>1209.25</ele><time>2026-04-22T07:47:54Z</time></trkpt><trkpt lat="45.66288861695842" lon="10.986628085841328"><ele>1206.0</ele><time>2026-04-22T07:47:55Z</time></trkpt><trkpt lat="45.66276201386813" lon="10.986661506368511"><ele>1213.6666666666667</ele><time>2026-04-22T07:47:56Z</time></trkpt><trkpt lat="45.66261889178376" lon="10.986735914183143"><ele>1221.3333333333335</ele><time>2026-04-22T07:47:57Z</time></trkpt><trkpt lat="45.6624768704131" lon="10.986812212102109"><ele>1229.0</ele><time>2026-04-22T07:47:58Z</time></trkpt><trkpt lat="45.662328026119965" lon="10.986902703234836"><ele>1229.0</ele><time>2026-04-22T07:47:59Z</time></trkpt><trkpt lat="45.66219104803622" lon="10.987001415258117"><ele>1229.0</ele><time>2026-04-22T07:48:00Z</time></trkpt><trkpt lat="45.66205636805615" lon="10.987091663919047"><ele>1229.0</ele><time>2026-04-22T07:48:01Z</time></trkpt><trkpt lat="45.66192925423781" lon="10.987154095505064"><ele>1229.0</ele><time>2026-04-22T07:48:02Z</time></trkpt><trkpt lat="45.6620015696605" lon="10.987162672425582"><ele>1221.75</ele><time>2026-04-22T07:48:03Z</time></trkpt><trkpt lat="45.66189070354115" lon="10.987243565429607"><ele>1214.5</ele><time>2026-04-22T07:48:04Z</time></trkpt><trkpt lat="45.66177689972953" lon="10.987321672172783"><ele>1207.25</ele><time>2026-04-22T07:48:05Z</time></trkpt><trkpt lat="45.661664745724444" lon="10.987399372059334"><ele>1200.0</ele><time>2026-04-22T07:48:06Z</time></trkpt><trkpt lat="45.66155148494613" lon="10.987469169984127"><ele>1207.25</ele><time>2026-04-22T07:48:07Z</time></trkpt><trkpt lat="45.66142703305297" lon="10.98752731858998"><ele>1214.5</ele><time>2026-04-22T07:48:08Z</time></trkpt><trkpt lat="45.6613079223309" lon="10.987576862202921"><ele>1221.75</ele><time>2026-04-22T07:48:09Z</time></trkpt><trkpt lat="45.661188330934465" lon="10.987612775126653"><ele>1229.0</ele><time>2026-04-22T07:48:10Z</time></trkpt><trkpt lat="45.66107331146732" lon="10.987639607508228"><ele>1229.0</ele><time>2026-04-22T07:48:11Z</time></trkpt><trkpt lat="45.66095668170638" lon="10.987667209886158"><ele>1229.0</ele><time>2026-04-22T07:48:12Z</time></trkpt><trkpt lat="45.6608367464643" lon="10.987677483092236"><ele>1229.0</ele><time>2026-04-22T07:48:13Z</time></trkpt><trkpt lat="45.66071669060842" lon="10.987671366975874"><ele>1229.0</ele><time>2026-04-22T07:48:14Z</time></trkpt><trkpt lat="45.66058465300318" lon="10.98764760704214"><ele>1229.0</ele><time>2026-04-22T07:48:15Z</time></trkpt><trkpt lat="45.66044119162074" lon="10.98761265841254"><ele>1229.0</ele><time>2026-04-22T07:48:16Z</time></trkpt><trkpt lat="45.66030298989677" lon="10.987562731658706"><ele>1229.0</ele><time>2026-04-22T07:48:17Z</time></trkpt><trkpt lat="45.66016406094832" lon="10.987516770197509"><ele>1229.0</ele><time>2026-04-22T07:48:18Z</time></trkpt><trkpt lat="45.66003396477719" lon="10.987478659044262"><ele>1218.5</ele><time>2026-04-22T07:48:19Z</time></trkpt><trkpt lat="45.65993617709754" lon="10.987400953908883"><ele>1208.0</ele><time>2026-04-22T07:48:20Z</time></trkpt><trkpt lat="45.659791081298614" lon="10.987384214949563"><ele>1197.5</ele><time>2026-04-22T07:48:21Z</time></trkpt><trkpt lat="45.65965798179743" lon="10.98734619584531"><ele>1187.0</ele><time>2026-04-22T07:48:22Z</time></trkpt><trkpt lat="45.659529941125705" lon="10.987324870173696"><ele>1190.25</ele><time>2026-04-22T07:48:23Z</time></trkpt><trkpt lat="45.659403152109896" lon="10.987332606442184"><ele>1193.5</ele><time>2026-04-22T07:48:24Z</time></trkpt><trkpt lat="45.65928570047379" lon="10.987344269169835"><ele>1196.75</ele><time>2026-04-22T07:48:24.999Z</time></trkpt><trkpt lat="45.65916199468345" lon="10.987325507523941"><ele>1200.0</ele><time>2026-04-22T07:48:25.999Z</time></trkpt><trkpt lat="45.659042878005195" lon="10.98726673945345"><ele>1200.0</ele><time>2026-04-22T07:48:26.999Z</time></trkpt><trkpt lat="45.65892087263114" lon="10.987205852980598"><ele>1200.0</ele><time>2026-04-22T07:48:27.999Z</time></trkpt><trkpt lat="45.65879929711126" lon="10.987133279595481"><ele>1200.0</ele><time>2026-04-22T07:48:28.999Z</time></trkpt><trkpt lat="45.658682058516334" lon="10.987052265181884"><ele>1200.0</ele><time>2026-04-22T07:48:29.999Z</time></trkpt><trkpt lat="45.65857060678945" lon="10.986993037698417"><ele>1204.5</ele><time>2026-04-22T07:48:30.999Z</time></trkpt><trkpt lat="45.658463701836254" lon="10.986918044195246"><ele>1209.0</ele><time>2026-04-22T07:48:31.999Z</time></trkpt><trkpt lat="45.6583753259668" lon="10.986818160209717"><ele>1213.5</ele><time>2026-04-22T07:48:32.999Z</time></trkpt><trkpt lat="45.658298436577006" lon="10.986681646666195"><ele>1218.0</ele><time>2026-04-22T07:48:33.999Z</time></trkpt><trkpt lat="45.65823798379415" lon="10.986535865761459"><ele>1207.25</ele><time>2026-04-22T07:48:34.999Z</time></trkpt><trkpt lat="45.65815687574671" lon="10.986398580397443"><ele>1196.5</ele><time>2026-04-22T07:48:35.999Z</time></trkpt><trkpt lat="45.65806007865612" lon="10.986282325441728"><ele>1185.75</ele><time>2026-04-22T07:48:36.999Z</time></trkpt><trkpt lat="45.65796443565327" lon="10.986182901011462"><ele>1175.0</ele><time>2026-04-22T07:48:37.999Z</time></trkpt><trkpt lat="45.657872393807175" lon="10.986088908194063"><ele>1176.0</ele><time>2026-04-22T07:48:38.999Z</time></trkpt><trkpt lat="45.657781119772935" lon="10.98599691740844"><ele>1177.0</ele><time>2026-04-22T07:48:39.999Z</time></trkpt><trkpt lat="45.65768824430084" lon="10.9859027215664"><ele>1178.0</ele><time>2026-04-22T07:48:40.999Z</time></trkpt><trkpt lat="45.657597589399046" lon="10.985794674178592"><ele>1179.0</ele><time>2026-04-22T07:48:41.999Z</time></trkpt><trkpt lat="45.65750307758628" lon="10.98569002116154"><ele>1179.0</ele><time>2026-04-22T07:48:42.999Z</time></trkpt><trkpt lat="45.65740667526468" lon="10.985564980694685"><ele>1179.0</ele><time>2026-04-22T07:48:43.999Z</time></trkpt><trkpt lat="45.6573168657929" lon="10.985411976103771"><ele>1179.0</ele><time>2026-04-22T07:48:44.999Z</time></trkpt><trkpt lat="45.65723984144752" lon="10.98526245678599"><ele>1179.0</ele><time>2026-04-22T07:48:45.999Z</time></trkpt><trkpt lat="45.657169267058514" lon="10.985114535172402"><ele>1180.0</ele><time>2026-04-22T07:48:46.999Z</time></trkpt><trkpt lat="45.657091517192406" lon="10.984976995185193"><ele>1181.0</ele><time>2026-04-22T07:48:47.999Z</time></trkpt><trkpt lat="45.657003141130666" lon="10.984865528574575"><ele>1182.0</ele><time>2026-04-22T07:48:48.999Z</time></trkpt><trkpt lat="45.6569051260632" lon="10.984761973064915"><ele>1183.0</ele><time>2026-04-22T07:48:49.999Z</time></trkpt><trkpt lat="45.65679575962905" lon="10.984673828844969"><ele>1183.0</ele><time>2026-04-22T07:48:50.999Z</time></trkpt><trkpt lat="45.656677006226786" lon="10.98459418564016"><ele>1183.0</ele><time>2026-04-22T07:48:51.999Z</time></trkpt><trkpt lat="45.65655758245546" lon="10.984526205792964"><ele>1183.0</ele><time>2026-04-22T07:48:52.999Z</time></trkpt><trkpt lat="45.656447789258394" lon="10.98445648827653"><ele>1183.0</ele><time>2026-04-22T07:48:53.999Z</time></trkpt><trkpt lat="45.65634387218306" lon="10.98438685721963"><ele>1183.0</ele><time>2026-04-22T07:48:54.999Z</time></trkpt><trkpt lat="45.656245431637785" lon="10.98431459081478"><ele>1183.0</ele><time>2026-04-22T07:48:55.999Z</time></trkpt><trkpt lat="45.656144795437974" lon="10.984196397365194"><ele>1183.0</ele><time>2026-04-22T07:48:56.999Z</time></trkpt><trkpt lat="45.65604817032103" lon="10.984059422892878"><ele>1183.0</ele><time>2026-04-22T07:48:57.999Z</time></trkpt><trkpt lat="45.65596883048985" lon="10.983923278789051"><ele>1180.4</ele><time>2026-04-22T07:48:58.999Z</time></trkpt><trkpt lat="45.655898197394684" lon="10.983790693571567"><ele>1177.8</ele><time>2026-04-22T07:48:59.999Z</time></trkpt><trkpt lat="45.65583236273985" lon="10.983666350804734"><ele>1175.2</ele><time>2026-04-22T07:49:00.999Z</time></trkpt><trkpt lat="45.65576564576425" lon="10.983546704633879"><ele>1172.6</ele><time>2026-04-22T07:49:01.999Z</time></trkpt><trkpt lat="45.65570180139683" lon="10.983432974772308"><ele>1170.0</ele><time>2026-04-22T07:49:02.999Z</time></trkpt><trkpt lat="45.65562726996709" lon="10.983337334231976"><ele>1164.4</ele><time>2026-04-22T07:49:03.999Z</time></trkpt><trkpt lat="45.6555410294435" lon="10.983268012445262"><ele>1158.8</ele><time>2026-04-22T07:49:04.999Z</time></trkpt><trkpt lat="45.65544395319826" lon="10.98325064447159"><ele>1153.2</ele><time>2026-04-22T07:49:05.999Z</time></trkpt><trkpt lat="45.65534469059371" lon="10.983263161412419"><ele>1147.6</ele><time>2026-04-22T07:49:06.999Z</time></trkpt><trkpt lat="45.65523937484822" lon="10.983301961532296"><ele>1142.0</ele><time>2026-04-22T07:49:07.999Z</time></trkpt><trkpt lat="45.65513109155163" lon="10.98334550414806"><ele>1149.5</ele><time>2026-04-22T07:49:08.999Z</time></trkpt><trkpt lat="45.655014126324424" lon="10.983393130783057"><ele>1157.0</ele><time>2026-04-22T07:49:09.999Z</time></trkpt><trkpt lat="45.654896879782974" lon="10.983441716271289"><ele>1164.5</ele><time>2026-04-22T07:49:11Z</time></trkpt><trkpt lat="45.65477755974226" lon="10.98349740517779"><ele>1172.0</ele><time>2026-04-22T07:49:12Z</time></trkpt><trkpt lat="45.654659900939876" lon="10.983571340323046"><ele>1172.0</ele><time>2026-04-22T07:49:13Z</time></trkpt><trkpt lat="45.654547473992174" lon="10.983655209545969"><ele>1172.0</ele><time>2026-04-22T07:49:14Z</time></trkpt><trkpt lat="45.65443780811969" lon="10.983741565846485"><ele>1172.0</ele><time>2026-04-22T07:49:15Z</time></trkpt><trkpt lat="45.65433407025509" lon="10.98382341310599"><ele>1172.0</ele><time>2026-04-22T07:49:16Z</time></trkpt><trkpt lat="45.65422946289" lon="10.983906557540179"><ele>1170.8</ele><time>2026-04-22T07:49:17Z</time></trkpt><trkpt lat="45.6541350525099" lon="10.983977482065072"><ele>1169.6</ele><time>2026-04-22T07:49:18Z</time></trkpt><trkpt lat="45.654046692387986" lon="10.984060366426682"><ele>1168.3999999999999</ele><time>2026-04-22T07:49:19Z</time></trkpt><trkpt lat="45.65396627450663" lon="10.984165040856054"><ele>1167.2</ele><time>2026-04-22T07:49:20Z</time></trkpt><trkpt lat="45.65389148951495" lon="10.984292179121235"><ele>1166.0</ele><time>2026-04-22T07:49:21Z</time></trkpt><trkpt lat="45.653819426691854" lon="10.984426104750593"><ele>1166.0</ele><time>2026-04-22T07:49:22Z</time></trkpt><trkpt lat="45.65373991722085" lon="10.984564183189141"><ele>1166.0</ele><time>2026-04-22T07:49:23Z</time></trkpt><trkpt lat="45.653660414890815" lon="10.98469885360117"><ele>1166.0</ele><time>2026-04-22T07:49:24Z</time></trkpt><trkpt lat="45.65358034028733" lon="10.98483489001268"><ele>1166.0</ele><time>2026-04-22T07:49:25Z</time></trkpt><trkpt lat="45.65349674991816" lon="10.984974838018049"><ele>1161.75</ele><time>2026-04-22T07:49:26Z</time></trkpt><trkpt lat="45.65340825686008" lon="10.98511964745978"><ele>1157.5</ele><time>2026-04-22T07:49:27Z</time></trkpt><trkpt lat="45.653322428099166" lon="10.98527147622675"><ele>1153.25</ele><time>2026-04-22T07:49:28Z</time></trkpt><trkpt lat="45.65323979917798" lon="10.98543308644966"><ele>1149.0</ele><time>2026-04-22T07:49:29Z</time></trkpt><trkpt lat="45.65315919355128" lon="10.985601531181555"><ele>1149.0</ele><time>2026-04-22T07:49:30Z</time></trkpt><trkpt lat="45.65308081328521" lon="10.985775002087108"><ele>1149.0</ele><time>2026-04-22T07:49:31Z</time></trkpt><trkpt lat="45.6530105832329" lon="10.985946822790424"><ele>1149.0</ele><time>2026-04-22T07:49:32Z</time></trkpt><trkpt lat="45.65294201623554" lon="10.986111538781888"><ele>1149.0</ele><time>2026-04-22T07:49:33Z</time></trkpt><trkpt lat="45.652871978359485" lon="10.986266045974826"><ele>1148.0</ele><time>2026-04-22T07:49:34Z</time></trkpt><trkpt lat="45.65279522169222" lon="10.986411429199238"><ele>1147.0</ele><time>2026-04-22T07:49:35Z</time></trkpt><trkpt lat="45.652720320849454" lon="10.986556856721219"><ele>1146.0</ele><time>2026-04-22T07:49:36Z</time></trkpt><trkpt lat="45.65265004770731" lon="10.986711915024138"><ele>1145.0</ele><time>2026-04-22T07:49:37Z</time></trkpt><trkpt lat="45.65258348735611" lon="10.986876128356968"><ele>1145.0</ele><time>2026-04-22T07:49:38Z</time></trkpt><trkpt lat="45.652511497364124" lon="10.987041522545713"><ele>1145.0</ele><time>2026-04-22T07:49:39Z</time></trkpt><trkpt lat="45.65244074760392" lon="10.98720847278471"><ele>1145.0</ele><time>2026-04-22T07:49:40Z</time></trkpt><trkpt lat="45.65236318280748" lon="10.987370387527191"><ele>1145.0</ele><time>2026-04-22T07:49:41Z</time></trkpt><trkpt lat="45.65228078157366" lon="10.987527566380615"><ele>1148.5</ele><time>2026-04-22T07:49:42Z</time></trkpt><trkpt lat="45.65219054247323" lon="10.987674570971723"><ele>1152.0</ele><time>2026-04-22T07:49:43Z</time></trkpt><trkpt lat="45.65210142411843" lon="10.987815538654576"><ele>1155.5</ele><time>2026-04-22T07:49:44Z</time></trkpt><trkpt lat="45.652018842345754" lon="10.98794814500283"><ele>1159.0</ele><time>2026-04-22T07:49:45Z</time></trkpt><trkpt lat="45.651941671204405" lon="10.988068885907882"><ele>1155.4</ele><time>2026-04-22T07:49:46Z</time></trkpt><trkpt lat="45.651870712486044" lon="10.988193221854212"><ele>1151.8000000000002</ele><time>2026-04-22T07:49:47Z</time></trkpt><trkpt lat="45.651803783641874" lon="10.988316008485677"><ele>1148.1999999999998</ele><time>2026-04-22T07:49:48Z</time></trkpt><trkpt lat="45.65174079029281" lon="10.988453015940106"><ele>1144.6</ele><time>2026-04-22T07:49:49Z</time></trkpt><trkpt lat="45.65168670871438" lon="10.988596209163141"><ele>1141.0</ele><time>2026-04-22T07:49:50Z</time></trkpt><trkpt lat="45.65164310426981" lon="10.988735345734623"><ele>1141.0</ele><time>2026-04-22T07:49:51Z</time></trkpt><trkpt lat="45.651611900425664" lon="10.988875396262848"><ele>1141.0</ele><time>2026-04-22T07:49:52Z</time></trkpt><trkpt lat="45.65158809585637" lon="10.989006998398981"><ele>1141.0</ele><time>2026-04-22T07:49:53Z</time></trkpt><trkpt lat="45.65156153093644" lon="10.98912254890521"><ele>1141.0</ele><time>2026-04-22T07:49:54Z</time></trkpt><trkpt lat="45.651524282559876" lon="10.989230662615533"><ele>1141.0</ele><time>2026-04-22T07:49:55Z</time></trkpt><trkpt lat="45.65146898399163" lon="10.989324865750808"><ele>1142.6</ele><time>2026-04-22T07:49:56Z</time></trkpt><trkpt lat="45.65139391597077" lon="10.98940274280203"><ele>1144.1999999999998</ele><time>2026-04-22T07:49:57Z</time></trkpt><trkpt lat="45.651302712028624" lon="10.989459370753051"><ele>1145.8000000000002</ele><time>2026-04-22T07:49:58Z</time></trkpt><trkpt lat="45.65120306505012" lon="10.989455154414669"><ele>1147.4</ele><time>2026-04-22T07:49:59Z</time></trkpt><trkpt lat="45.651093799749745" lon="10.989431794102467"><ele>1149.0</ele><time>2026-04-22T07:50:00Z</time></trkpt><trkpt lat="45.650994865216994" lon="10.989429968948093"><ele>1145.8</ele><time>2026-04-22T07:50:01Z</time></trkpt><trkpt lat="45.650901850016616" lon="10.989456506862636"><ele>1142.6000000000001</ele><time>2026-04-22T07:50:02Z</time></trkpt><trkpt lat="45.65081117487188" lon="10.98950368708401"><ele>1139.4</ele><time>2026-04-22T07:50:03Z</time></trkpt><trkpt lat="45.65071990044618" lon="10.989572888042094"><ele>1136.2</ele><time>2026-04-22T07:50:04Z</time></trkpt><trkpt lat="45.650639743036" lon="10.989656501521367"><ele>1133.0</ele><time>2026-04-22T07:50:05Z</time></trkpt><trkpt lat="45.65057360571204" lon="10.989752177768269"><ele>1133.0</ele><time>2026-04-22T07:50:06Z</time></trkpt><trkpt lat="45.65052470741584" lon="10.989861367183309"><ele>1133.0</ele><time>2026-04-22T07:50:07Z</time></trkpt><trkpt lat="45.65049473801163" lon="10.98998380005537"><ele>1133.0</ele><time>2026-04-22T07:50:08Z</time></trkpt><trkpt lat="45.6504868987066" lon="10.990119312208972"><ele>1133.0</ele><time>2026-04-22T07:50:09Z</time></trkpt><trkpt lat="45.6505105162673" lon="10.990259073306166"><ele>1133.0</ele><time>2026-04-22T07:50:10Z</time></trkpt><trkpt lat="45.650564321891196" lon="10.990400840789873"><ele>1132.8</ele><time>2026-04-22T07:50:11Z</time></trkpt><trkpt lat="45.650631576366735" lon="10.990534380467842"><ele>1132.6</ele><time>2026-04-22T07:50:12Z</time></trkpt><trkpt lat="45.65068857769431" lon="10.990654556623983"><ele>1132.4</ele><time>2026-04-22T07:50:13Z</time></trkpt><trkpt lat="45.65071963448232" lon="10.990782613155645"><ele>1132.2</ele><time>2026-04-22T07:50:14Z</time></trkpt><trkpt lat="45.65075953918233" lon="10.990894298053918"><ele>1132.0</ele><time>2026-04-22T07:50:15Z</time></trkpt><trkpt lat="45.650755761248774" lon="10.991024353720075"><ele>1132.6</ele><time>2026-04-22T07:50:16Z</time></trkpt><trkpt lat="45.65070221758632" lon="10.991151188505144"><ele>1133.2</ele><time>2026-04-22T07:50:17Z</time></trkpt><trkpt lat="45.65063435291906" lon="10.99125236145271"><ele>1133.8</ele><time>2026-04-22T07:50:18Z</time></trkpt><trkpt lat="45.6505568152108" lon="10.991359423702228"><ele>1134.4</ele><time>2026-04-22T07:50:19Z</time></trkpt><trkpt lat="45.65049545973113" lon="10.991478450962818"><ele>1135.0</ele><time>2026-04-22T07:50:20Z</time></trkpt><trkpt lat="45.650425009349966" lon="10.991567033892716"><ele>1135.0</ele><time>2026-04-22T07:50:21Z</time></trkpt><trkpt lat="45.650343924841536" lon="10.991644461733868"><ele>1135.0</ele><time>2026-04-22T07:50:22Z</time></trkpt><trkpt lat="45.65023143456236" lon="10.991670542153845"><ele>1135.0</ele><time>2026-04-22T07:50:23Z</time></trkpt><trkpt lat="45.65013102443452" lon="10.991725808111203"><ele>1135.0</ele><time>2026-04-22T07:50:24Z</time></trkpt><trkpt lat="45.6500218571004" lon="10.991758518078633"><ele>1135.0</ele><time>2026-04-22T07:50:25Z</time></trkpt><trkpt lat="45.64990911086911" lon="10.99180406222323"><ele>1134.6</ele><time>2026-04-22T07:50:26Z</time></trkpt><trkpt lat="45.64979678122965" lon="10.991856987717526"><ele>1134.2</ele><time>2026-04-22T07:50:27Z</time></trkpt><trkpt lat="45.64968929552268" lon="10.991917957404688"><ele>1133.8</ele><time>2026-04-22T07:50:28Z</time></trkpt><trkpt lat="45.64958510377713" lon="10.991972317349473"><ele>1133.4</ele><time>2026-04-22T07:50:29Z</time></trkpt><trkpt lat="45.64949317949401" lon="10.992039381694525"><ele>1133.0</ele><time>2026-04-22T07:50:30Z</time></trkpt><trkpt lat="45.6494151826986" lon="10.992113305443125"><ele>1130.0</ele><time>2026-04-22T07:50:31Z</time></trkpt><trkpt lat="45.64935880858248" lon="10.992190513344683"><ele>1127.0</ele><time>2026-04-22T07:50:32Z</time></trkpt><trkpt lat="45.64931455573388" lon="10.99226906501927"><ele>1124.0</ele><time>2026-04-22T07:50:33Z</time></trkpt><trkpt lat="45.649276873449665" lon="10.992347219601704"><ele>1121.0</ele><time>2026-04-22T07:50:34Z</time></trkpt><trkpt lat="45.64921866571267" lon="10.99246811178981"><ele>1118.0</ele><time>2026-04-22T07:50:36Z</time></trkpt><trkpt lat="45.64917663331516" lon="10.99255000344833"><ele>1115.0</ele><time>2026-04-22T07:50:39Z</time></trkpt><trkpt lat="45.64908219609469" lon="10.992609227961262"><ele>1115.0</ele><time>2026-04-22T07:50:44.999Z</time></trkpt><trkpt lat="45.64902497675736" lon="10.992772270476282"><ele>1115.0</ele><time>2026-04-22T07:50:46.999Z</time></trkpt><trkpt lat="45.6490045534377" lon="10.992876264702577"><ele>1115.0</ele><time>2026-04-22T07:50:47.999Z</time></trkpt><trkpt lat="45.64898460600753" lon="10.992988739910073"><ele>1115.0</ele><time>2026-04-22T07:50:48.999Z</time></trkpt><trkpt lat="45.64896143231984" lon="10.993119174307592"><ele>1115.0</ele><time>2026-04-22T07:50:49.999Z</time></trkpt><trkpt lat="45.64893634709895" lon="10.993262218841648"><ele>1116.25</ele><time>2026-04-22T07:50:50.999Z</time></trkpt><trkpt lat="45.64891264656131" lon="10.993417869345471"><ele>1117.5</ele><time>2026-04-22T07:50:51.999Z</time></trkpt><trkpt lat="45.64889859949998" lon="10.993587076903994"><ele>1118.75</ele><time>2026-04-22T07:50:52.999Z</time></trkpt><trkpt lat="45.64889592328479" lon="10.993758439754254"><ele>1120.0</ele><time>2026-04-22T07:50:53.999Z</time></trkpt><trkpt lat="45.648903547885986" lon="10.993926592295061"><ele>1120.0</ele><time>2026-04-22T07:50:54.999Z</time></trkpt><trkpt lat="45.648928109497234" lon="10.994106988137933"><ele>1120.0</ele><time>2026-04-22T07:50:55.999Z</time></trkpt><trkpt lat="45.64895409570112" lon="10.99427587959491"><ele>1120.0</ele><time>2026-04-22T07:50:56.999Z</time></trkpt><trkpt lat="45.64899116612698" lon="10.994468902415933"><ele>1120.0</ele><time>2026-04-22T07:50:57.999Z</time></trkpt><trkpt lat="45.649033823937486" lon="10.99464629181541"><ele>1119.8</ele><time>2026-04-22T07:50:58.999Z</time></trkpt><trkpt lat="45.64907126663185" lon="10.994803736431663"><ele>1119.6</ele><time>2026-04-22T07:50:59.999Z</time></trkpt><trkpt lat="45.64911365483028" lon="10.994943653960824"><ele>1119.4</ele><time>2026-04-22T07:51:00.999Z</time></trkpt><trkpt lat="45.64915227562316" lon="10.995066380302152"><ele>1119.2</ele><time>2026-04-22T07:51:01.999Z</time></trkpt><trkpt lat="45.64918883143847" lon="10.995178938192591"><ele>1119.0</ele><time>2026-04-22T07:51:02.999Z</time></trkpt><trkpt lat="45.64922345270106" lon="10.995286797617265"><ele>1120.1666666666667</ele><time>2026-04-22T07:51:03.999Z</time></trkpt><trkpt lat="45.64923410705576" lon="10.995401096126015"><ele>1121.3333333333333</ele><time>2026-04-22T07:51:04.999Z</time></trkpt><trkpt lat="45.649230757923235" lon="10.995518869923059"><ele>1122.5</ele><time>2026-04-22T07:51:05.999Z</time></trkpt><trkpt lat="45.64919258194116" lon="10.995609009471758"><ele>1123.6666666666665</ele><time>2026-04-22T07:51:06.999Z</time></trkpt><trkpt lat="45.649128821957326" lon="10.995672317159983"><ele>1124.8333333333333</ele><time>2026-04-22T07:51:07.999Z</time></trkpt><trkpt lat="45.64904778815472" lon="10.995671250017825"><ele>1126.0</ele><time>2026-04-22T07:51:08.999Z</time></trkpt><trkpt lat="45.648978882755934" lon="10.995626269440397"><ele>1126.0</ele><time>2026-04-22T07:51:09.999Z</time></trkpt><trkpt lat="45.64890300235944" lon="10.995560125138644"><ele>1126.0</ele><time>2026-04-22T07:51:10.999Z</time></trkpt><trkpt lat="45.648808887226814" lon="10.995488769701026"><ele>1126.0</ele><time>2026-04-22T07:51:11.999Z</time></trkpt><trkpt lat="45.64868346540884" lon="10.995431904458334"><ele>1126.0</ele><time>2026-04-22T07:51:12.999Z</time></trkpt><trkpt lat="45.6485545444389" lon="10.995375473848037"><ele>1125.75</ele><time>2026-04-22T07:51:13.999Z</time></trkpt><trkpt lat="45.64842425509061" lon="10.995335340868039"><ele>1125.5</ele><time>2026-04-22T07:51:14.999Z</time></trkpt><trkpt lat="45.648295302979534" lon="10.995328390423957"><ele>1125.25</ele><time>2026-04-22T07:51:15.999Z</time></trkpt><trkpt lat="45.64817468564788" lon="10.995352146083402"><ele>1125.0</ele><time>2026-04-22T07:51:17Z</time></trkpt><trkpt lat="45.648068929682076" lon="10.995390296887113"><ele>1125.0</ele><time>2026-04-22T07:51:18Z</time></trkpt><trkpt lat="45.64796227176833" lon="10.99543732515389"><ele>1125.0</ele><time>2026-04-22T07:51:19Z</time></trkpt><trkpt lat="45.64785867105654" lon="10.995498143637652"><ele>1125.0</ele><time>2026-04-22T07:51:20Z</time></trkpt><trkpt lat="45.64776303359891" lon="10.995584932314722"><ele>1125.0</ele><time>2026-04-22T07:51:21Z</time></trkpt><trkpt lat="45.64766476510705" lon="10.995689140390148"><ele>1125.5</ele><time>2026-04-22T07:51:22Z</time></trkpt><trkpt lat="45.6475734940243" lon="10.995791322494751"><ele>1126.0</ele><time>2026-04-22T07:51:23Z</time></trkpt><trkpt lat="45.64747654821869" lon="10.995885692752287"><ele>1126.5</ele><time>2026-04-22T07:51:24Z</time></trkpt><trkpt lat="45.64738413479641" lon="10.995975872551748"><ele>1127.0</ele><time>2026-04-22T07:51:25Z</time></trkpt><trkpt lat="45.64729597875858" lon="10.99606455951987"><ele>1127.0</ele><time>2026-04-22T07:51:26Z</time></trkpt><trkpt lat="45.64720583267209" lon="10.996174326690669"><ele>1127.0</ele><time>2026-04-22T07:51:27Z</time></trkpt><trkpt lat="45.647122270033535" lon="10.996288303261348"><ele>1127.0</ele><time>2026-04-22T07:51:28Z</time></trkpt><trkpt lat="45.647044958407314" lon="10.99641523446599"><ele>1127.0</ele><time>2026-04-22T07:51:29Z</time></trkpt><trkpt lat="45.646989063633775" lon="10.996557470416528"><ele>1123.25</ele><time>2026-04-22T07:51:30Z</time></trkpt><trkpt lat="45.6469471972223" lon="10.996703667325793"><ele>1119.5</ele><time>2026-04-22T07:51:31Z</time></trkpt><trkpt lat="45.646922242170206" lon="10.996860733194401"><ele>1115.75</ele><time>2026-04-22T07:51:32Z</time></trkpt><trkpt lat="45.646918248663404" lon="10.997026029340264"><ele>1112.0</ele><time>2026-04-22T07:51:33Z</time></trkpt><trkpt lat="45.64693315081809" lon="10.997195864920188"><ele>1116.4</ele><time>2026-04-22T07:51:34Z</time></trkpt><trkpt lat="45.64696900311164" lon="10.997358266229709"><ele>1120.8000000000002</ele><time>2026-04-22T07:51:35Z</time></trkpt><trkpt lat="45.64703430153432" lon="10.997508876569423"><ele>1125.2</ele><time>2026-04-22T07:51:36Z</time></trkpt><trkpt lat="45.647076086613765" lon="10.997635874606496"><ele>1129.6000000000001</ele><time>2026-04-22T07:51:37Z</time></trkpt><trkpt lat="45.64708263070347" lon="10.997761804374585"><ele>1134.0</ele><time>2026-04-22T07:51:38Z</time></trkpt><trkpt lat="45.64709103289313" lon="10.997880901713286"><ele>1134.0</ele><time>2026-04-22T07:51:39Z</time></trkpt><trkpt lat="45.64705926753249" lon="10.998005683771725"><ele>1134.0</ele><time>2026-04-22T07:51:40Z</time></trkpt><trkpt lat="45.646986616949185" lon="10.998114351808974"><ele>1134.0</ele><time>2026-04-22T07:51:41Z</time></trkpt><trkpt lat="45.64691933239196" lon="10.998181452537098"><ele>1134.0</ele><time>2026-04-22T07:51:42Z</time></trkpt><trkpt lat="45.64682644770391" lon="10.998247119800773"><ele>1134.0</ele><time>2026-04-22T07:51:43Z</time></trkpt><trkpt lat="45.64673388043743" lon="10.99833898540012"><ele>1134.5</ele><time>2026-04-22T07:51:44Z</time></trkpt><trkpt lat="45.646623390618274" lon="10.998413217803138"><ele>1135.0</ele><time>2026-04-22T07:51:45Z</time></trkpt><trkpt lat="45.64651535161752" lon="10.998492301349014"><ele>1135.5</ele><time>2026-04-22T07:51:46Z</time></trkpt><trkpt lat="45.64641742971206" lon="10.998567327901968"><ele>1136.0</ele><time>2026-04-22T07:51:47Z</time></trkpt><trkpt lat="45.64632195016141" lon="10.998639600203669"><ele>1136.0</ele><time>2026-04-22T07:51:48Z</time></trkpt><trkpt lat="45.64622731703281" lon="10.998702401743305"><ele>1136.0</ele><time>2026-04-22T07:51:49Z</time></trkpt><trkpt lat="45.64612628295162" lon="10.99873933318042"><ele>1136.0</ele><time>2026-04-22T07:51:50Z</time></trkpt><trkpt lat="45.64602600279766" lon="10.998737285796263"><ele>1136.0</ele><time>2026-04-22T07:51:51Z</time></trkpt><trkpt lat="45.645919918769636" lon="10.998678889710535"><ele>1136.0</ele><time>2026-04-22T07:51:52Z</time></trkpt><trkpt lat="45.64583046573798" lon="10.998580183655461"><ele>1134.75</ele><time>2026-04-22T07:51:53Z</time></trkpt><trkpt lat="45.64574681814073" lon="10.998469914759285"><ele>1133.5</ele><time>2026-04-22T07:51:54Z</time></trkpt><trkpt lat="45.64566219745857" lon="10.998361290898506"><ele>1132.25</ele><time>2026-04-22T07:51:55Z</time></trkpt><trkpt lat="45.64557143897465" lon="10.998271755390105"><ele>1131.0</ele><time>2026-04-22T07:51:56Z</time></trkpt><trkpt lat="45.64547005070108" lon="10.998196883966722"><ele>1129.0</ele><time>2026-04-22T07:51:57Z</time></trkpt><trkpt lat="45.6453638764331" lon="10.998135538541701"><ele>1127.0</ele><time>2026-04-22T07:51:58Z</time></trkpt><trkpt lat="45.645265168713934" lon="10.998083643610105"><ele>1125.0</ele><time>2026-04-22T07:51:59Z</time></trkpt><trkpt lat="45.64516671918328" lon="10.998040826506662"><ele>1123.0</ele><time>2026-04-22T07:52:00Z</time></trkpt><trkpt lat="45.645062217842344" lon="10.99801273123411"><ele>1121.0</ele><time>2026-04-22T07:52:01Z</time></trkpt><trkpt lat="45.644958796649576" lon="10.99800729081247"><ele>1121.0</ele><time>2026-04-22T07:52:02Z</time></trkpt><trkpt lat="45.644863786942366" lon="10.998028269026378"><ele>1121.0</ele><time>2026-04-22T07:52:03Z</time></trkpt><trkpt lat="45.6447788798591" lon="10.998073061447855"><ele>1121.0</ele><time>2026-04-22T07:52:04Z</time></trkpt><trkpt lat="45.64469477780286" lon="10.998139652158065"><ele>1121.0</ele><time>2026-04-22T07:52:05Z</time></trkpt><trkpt lat="45.644608137826" lon="10.998214390620861"><ele>1121.0</ele><time>2026-04-22T07:52:06Z</time></trkpt><trkpt lat="45.64452136353263" lon="10.998290417481149"><ele>1120.2</ele><time>2026-04-22T07:52:07Z</time></trkpt><trkpt lat="45.64442431272059" lon="10.998334533490105"><ele>1119.3999999999999</ele><time>2026-04-22T07:52:08Z</time></trkpt><trkpt lat="45.64432880812243" lon="10.998404783933326"><ele>1118.6</ele><time>2026-04-22T07:52:09Z</time></trkpt><trkpt lat="45.64422091678864" lon="10.998398350943905"><ele>1117.8</ele><time>2026-04-22T07:52:10Z</time></trkpt><trkpt lat="45.644118992537614" lon="10.998417705310073"><ele>1117.0</ele><time>2026-04-22T07:52:11Z</time></trkpt><trkpt lat="45.64402799391467" lon="10.99840154605265"><ele>1117.0</ele><time>2026-04-22T07:52:12Z</time></trkpt><trkpt lat="45.64394020611903" lon="10.998369490715223"><ele>1117.0</ele><time>2026-04-22T07:52:13Z</time></trkpt><trkpt lat="45.64385823681772" lon="10.998333573257321"><ele>1117.0</ele><time>2026-04-22T07:52:14Z</time></trkpt><trkpt lat="45.64377974100014" lon="10.998314298937506"><ele>1117.0</ele><time>2026-04-22T07:52:15Z</time></trkpt><trkpt lat="45.643694060236186" lon="10.99830429962775"><ele>1117.0</ele><time>2026-04-22T07:52:16Z</time></trkpt><trkpt lat="45.643604502413936" lon="10.99832079651296"><ele>1117.0</ele><time>2026-04-22T07:52:17Z</time></trkpt><trkpt lat="45.64351928454842" lon="10.998360863499181"><ele>1117.8</ele><time>2026-04-22T07:52:18Z</time></trkpt><trkpt lat="45.643446747779336" lon="10.998416534382544"><ele>1118.6</ele><time>2026-04-22T07:52:19Z</time></trkpt><trkpt lat="45.643388520960855" lon="10.998495038580192"><ele>1119.3999999999999</ele><time>2026-04-22T07:52:20Z</time></trkpt><trkpt lat="45.64334032359447" lon="10.998600644148267"><ele>1120.2</ele><time>2026-04-22T07:52:21Z</time></trkpt><trkpt lat="45.64330258263925" lon="10.99872713087529"><ele>1121.0</ele><time>2026-04-22T07:52:22Z</time></trkpt><trkpt lat="45.6432670381332" lon="10.998868571721543"><ele>1121.0</ele><time>2026-04-22T07:52:23Z</time></trkpt><trkpt lat="45.64324421750394" lon="10.999009944691412"><ele>1121.0</ele><time>2026-04-22T07:52:24Z</time></trkpt><trkpt lat="45.64322654349996" lon="10.99915160352287"><ele>1121.0</ele><time>2026-04-22T07:52:25Z</time></trkpt><trkpt lat="45.64322336196313" lon="10.999277212912062"><ele>1121.0</ele><time>2026-04-22T07:52:26Z</time></trkpt><trkpt lat="45.643223992442856" lon="10.999391100293309"><ele>1121.0</ele><time>2026-04-22T07:52:27Z</time></trkpt><trkpt lat="45.64323003348934" lon="10.999496440797458"><ele>1121.0</ele><time>2026-04-22T07:52:28Z</time></trkpt><trkpt lat="45.64324218029922" lon="10.999594475520615"><ele>1120.8333333333335</ele><time>2026-04-22T07:52:29Z</time></trkpt><trkpt lat="45.64330164566763" lon="10.999656849620399"><ele>1120.6666666666667</ele><time>2026-04-22T07:52:30Z</time></trkpt><trkpt lat="45.64335826143281" lon="10.999717200895692"><ele>1120.5</ele><time>2026-04-22T07:52:31Z</time></trkpt><trkpt lat="45.64342876282204" lon="10.999791169262679"><ele>1120.3333333333333</ele><time>2026-04-22T07:52:32Z</time></trkpt><trkpt lat="45.64351794256946" lon="10.99985787411806"><ele>1120.1666666666665</ele><time>2026-04-22T07:52:33Z</time></trkpt><trkpt lat="45.64360287310574" lon="10.999957547492894"><ele>1120.0</ele><time>2026-04-22T07:52:34Z</time></trkpt><trkpt lat="45.64367626817957" lon="11.000056442776327"><ele>1120.0</ele><time>2026-04-22T07:52:35Z</time></trkpt><trkpt lat="45.64371092684917" lon="11.00013476037281"><ele>1120.0</ele><time>2026-04-22T07:52:36Z</time></trkpt><trkpt lat="45.64375344154099" lon="11.000254112604864"><ele>1120.0</ele><time>2026-04-22T07:52:37Z</time></trkpt><trkpt lat="45.643779738431114" lon="11.000372036846445"><ele>1120.0</ele><time>2026-04-22T07:52:38Z</time></trkpt><trkpt lat="45.64380037694977" lon="11.000504559923463"><ele>1120.0</ele><time>2026-04-22T07:52:39Z</time></trkpt><trkpt lat="45.64381701537878" lon="11.000642192265673"><ele>1120.0</ele><time>2026-04-22T07:52:40Z</time></trkpt><trkpt lat="45.64384957764908" lon="11.000770749539074"><ele>1118.8333333333333</ele><time>2026-04-22T07:52:41Z</time></trkpt><trkpt lat="45.64385917628886" lon="11.000886344538886"><ele>1117.6666666666665</ele><time>2026-04-22T07:52:42Z</time></trkpt><trkpt lat="45.64389201738001" lon="11.000996239124246"><ele>1116.5</ele><time>2026-04-22T07:52:43Z</time></trkpt><trkpt lat="45.64395032922042" lon="11.00109884400409"><ele>1115.3333333333333</ele><time>2026-04-22T07:52:44Z</time></trkpt><trkpt lat="45.64403142299088" lon="11.001166044681435"><ele>1114.1666666666667</ele><time>2026-04-22T07:52:45Z</time></trkpt><trkpt lat="45.644126666583865" lon="11.001193142322201"><ele>1113.0</ele><time>2026-04-22T07:52:45.999Z</time></trkpt><trkpt lat="45.64422372698202" lon="11.00118086843134"><ele>1113.0</ele><time>2026-04-22T07:52:46.999Z</time></trkpt><trkpt lat="45.64431793746931" lon="11.001143365884246"><ele>1113.0</ele><time>2026-04-22T07:52:47.999Z</time></trkpt><trkpt lat="45.64441811877865" lon="11.001079953935411"><ele>1113.0</ele><time>2026-04-22T07:52:48.999Z</time></trkpt><trkpt lat="45.64452057533582" lon="11.00101655983651"><ele>1113.0</ele><time>2026-04-22T07:52:49.999Z</time></trkpt><trkpt lat="45.64462846870141" lon="11.000966629710577"><ele>1113.0</ele><time>2026-04-22T07:52:50.999Z</time></trkpt><trkpt lat="45.644729839307566" lon="11.000922250123317"><ele>1114.2</ele><time>2026-04-22T07:52:51.999Z</time></trkpt><trkpt lat="45.64482753101353" lon="11.000885419627215"><ele>1115.4</ele><time>2026-04-22T07:52:52.999Z</time></trkpt><trkpt lat="45.644928682995484" lon="11.000863684847742"><ele>1116.6000000000001</ele><time>2026-04-22T07:52:53.999Z</time></trkpt><trkpt lat="45.645023554950704" lon="11.00086325365035"><ele>1117.8</ele><time>2026-04-22T07:52:54.999Z</time></trkpt><trkpt lat="45.64510988090228" lon="11.000890734698288"><ele>1119.0</ele><time>2026-04-22T07:52:55.999Z</time></trkpt><trkpt lat="45.645192142712695" lon="11.00095743755861"><ele>1119.0</ele><time>2026-04-22T07:52:56.999Z</time></trkpt><trkpt lat="45.64526324741962" lon="11.001061493001895"><ele>1119.0</ele><time>2026-04-22T07:52:57.999Z</time></trkpt><trkpt lat="45.64528637197002" lon="11.001198245057413"><ele>1119.0</ele><time>2026-04-22T07:52:58.999Z</time></trkpt><trkpt lat="45.64528567991141" lon="11.001318686397656"><ele>1119.0</ele><time>2026-04-22T07:52:59.999Z</time></trkpt><trkpt lat="45.64529019197752" lon="11.001447226619696"><ele>1119.0</ele><time>2026-04-22T07:53:00.999Z</time></trkpt><trkpt lat="45.64522617930019" lon="11.001566072695343"><ele>1117.6000000000001</ele><time>2026-04-22T07:53:01.999Z</time></trkpt><trkpt lat="45.645198724469275" lon="11.001713546200206"><ele>1116.2</ele><time>2026-04-22T07:53:02.999Z</time></trkpt><trkpt lat="45.645147860900266" lon="11.001852614632746"><ele>1114.8000000000002</ele><time>2026-04-22T07:53:03.999Z</time></trkpt><trkpt lat="45.64509728773203" lon="11.001999038150489"><ele>1113.4</ele><time>2026-04-22T07:53:04.999Z</time></trkpt><trkpt lat="45.64504647349959" lon="11.002148918980659"><ele>1112.0</ele><time>2026-04-22T07:53:05.999Z</time></trkpt><trkpt lat="45.644999176966714" lon="11.002291233189496"><ele>1112.0</ele><time>2026-04-22T07:53:06.999Z</time></trkpt><trkpt lat="45.64497037769325" lon="11.002432152497494"><ele>1112.0</ele><time>2026-04-22T07:53:07.999Z</time></trkpt><trkpt lat="45.64496849739846" lon="11.00256639781935"><ele>1112.0</ele><time>2026-04-22T07:53:08.999Z</time></trkpt><trkpt lat="45.64498588420117" lon="11.00269926449732"><ele>1112.0</ele><time>2026-04-22T07:53:09.999Z</time></trkpt><trkpt lat="45.645026647329146" lon="11.00282900095403"><ele>1112.0</ele><time>2026-04-22T07:53:10.999Z</time></trkpt><trkpt lat="45.64509005650532" lon="11.002927902828283"><ele>1112.0</ele><time>2026-04-22T07:53:11.999Z</time></trkpt><trkpt lat="45.64517395711975" lon="11.002988162179689"><ele>1112.0</ele><time>2026-04-22T07:53:12.999Z</time></trkpt><trkpt lat="45.645262842742326" lon="11.00300607295562"><ele>1112.0</ele><time>2026-04-22T07:53:13.999Z</time></trkpt><trkpt lat="45.64535035725769" lon="11.002984075926085"><ele>1112.0</ele><time>2026-04-22T07:53:14.999Z</time></trkpt><trkpt lat="45.645437506460304" lon="11.0029312617118"><ele>1112.0</ele><time>2026-04-22T07:53:15.999Z</time></trkpt><trkpt lat="45.64551585957243" lon="11.002856407248295"><ele>1113.3333333333335</ele><time>2026-04-22T07:53:16.999Z</time></trkpt><trkpt lat="45.64558169952175" lon="11.002783546197614"><ele>1114.6666666666667</ele><time>2026-04-22T07:53:17.999Z</time></trkpt><trkpt lat="45.64564663036889" lon="11.002710591940813"><ele>1116.0</ele><time>2026-04-22T07:53:18.999Z</time></trkpt><trkpt lat="45.645717737601764" lon="11.002660064489138"><ele>1117.3333333333333</ele><time>2026-04-22T07:53:19.999Z</time></trkpt><trkpt lat="45.64579501113785" lon="11.002641672147844"><ele>1118.6666666666665</ele><time>2026-04-22T07:53:20.999Z</time></trkpt><trkpt lat="45.64588338534161" lon="11.00266080027022"><ele>1120.0</ele><time>2026-04-22T07:53:21.999Z</time></trkpt><trkpt lat="45.645956090183354" lon="11.002749022902366"><ele>1120.0</ele><time>2026-04-22T07:53:23Z</time></trkpt><trkpt lat="45.64600848789948" lon="11.002862190308171"><ele>1120.0</ele><time>2026-04-22T07:53:24Z</time></trkpt><trkpt lat="45.64604741240249" lon="11.002985281006346"><ele>1120.0</ele><time>2026-04-22T07:53:25Z</time></trkpt><trkpt lat="45.64607573598039" lon="11.00311649682046"><ele>1120.0</ele><time>2026-04-22T07:53:26Z</time></trkpt><trkpt lat="45.64611853671665" lon="11.0032467302223"><ele>1120.0</ele><time>2026-04-22T07:53:27Z</time></trkpt><trkpt lat="45.6461490599482" lon="11.003396847899106"><ele>1121.0</ele><time>2026-04-22T07:53:28Z</time></trkpt><trkpt lat="45.64617997125316" lon="11.003559235026357"><ele>1122.0</ele><time>2026-04-22T07:53:29Z</time></trkpt><trkpt lat="45.646216327875116" lon="11.003712699753555"><ele>1123.0</ele><time>2026-04-22T07:53:30Z</time></trkpt><trkpt lat="45.64625012832593" lon="11.00385970687451"><ele>1124.0</ele><time>2026-04-22T07:53:31Z</time></trkpt><trkpt lat="45.64629250170529" lon="11.004003885362765"><ele>1125.0</ele><time>2026-04-22T07:53:32Z</time></trkpt><trkpt lat="45.64636283555799" lon="11.004142559724343"><ele>1121.25</ele><time>2026-04-22T07:53:33Z</time></trkpt><trkpt lat="45.64644590811338" lon="11.004273598820495"><ele>1117.5</ele><time>2026-04-22T07:53:34Z</time></trkpt><trkpt lat="45.64653560136956" lon="11.004394466943285"><ele>1113.75</ele><time>2026-04-22T07:53:35Z</time></trkpt><trkpt lat="45.646629350800566" lon="11.00452727521604"><ele>1110.0</ele><time>2026-04-22T07:53:36Z</time></trkpt><trkpt lat="45.646725301137266" lon="11.004663700517845"><ele>1110.0</ele><time>2026-04-22T07:53:37Z</time></trkpt><trkpt lat="45.6468201855616" lon="11.004780578479657"><ele>1110.0</ele><time>2026-04-22T07:53:38Z</time></trkpt><trkpt lat="45.64691642447513" lon="11.004892617235138"><ele>1110.0</ele><time>2026-04-22T07:53:39Z</time></trkpt><trkpt lat="45.64701404946275" lon="11.00499983578238"><ele>1110.0</ele><time>2026-04-22T07:53:40Z</time></trkpt><trkpt lat="45.64711314142185" lon="11.005091891351784"><ele>1109.4</ele><time>2026-04-22T07:53:41Z</time></trkpt><trkpt lat="45.64720373401679" lon="11.00517862174343"><ele>1108.8</ele><time>2026-04-22T07:53:42Z</time></trkpt><trkpt lat="45.64728744865146" lon="11.005264577991744"><ele>1108.2</ele><time>2026-04-22T07:53:43Z</time></trkpt><trkpt lat="45.647367826857966" lon="11.005346341172174"><ele>1107.6</ele><time>2026-04-22T07:53:44Z</time></trkpt><trkpt lat="45.64744974975224" lon="11.00540529863039"><ele>1107.0</ele><time>2026-04-22T07:53:45Z</time></trkpt><trkpt lat="45.64753886284441" lon="11.005436808631659"><ele>1107.0</ele><time>2026-04-22T07:53:46Z</time></trkpt><trkpt lat="45.64763082034322" lon="11.005429678211176"><ele>1107.0</ele><time>2026-04-22T07:53:47Z</time></trkpt><trkpt lat="45.647734918714896" lon="11.005398809527703"><ele>1107.0</ele><time>2026-04-22T07:53:48Z</time></trkpt><trkpt lat="45.64782986611026" lon="11.00534671111333"><ele>1107.0</ele><time>2026-04-22T07:53:49Z</time></trkpt><trkpt lat="45.6479247049555" lon="11.005281571120632"><ele>1107.0</ele><time>2026-04-22T07:53:50Z</time></trkpt><trkpt lat="45.647998393691225" lon="11.005200506010363"><ele>1107.8333333333333</ele><time>2026-04-22T07:53:51Z</time></trkpt><trkpt lat="45.648060862651306" lon="11.005113291292316"><ele>1108.6666666666667</ele><time>2026-04-22T07:53:52Z</time></trkpt><trkpt lat="45.64811501568986" lon="11.005015748637684"><ele>1109.5</ele><time>2026-04-22T07:53:53Z</time></trkpt><trkpt lat="45.64816193728741" lon="11.004917022306287"><ele>1110.3333333333335</ele><time>2026-04-22T07:53:54Z</time></trkpt><trkpt lat="45.64820113809123" lon="11.0048148335682"><ele>1111.1666666666667</ele><time>2026-04-22T07:53:55Z</time></trkpt><trkpt lat="45.64823955891148" lon="11.004724124725493"><ele>1112.0</ele><time>2026-04-22T07:53:56Z</time></trkpt><trkpt lat="45.64829537152792" lon="11.004672257290286"><ele>1112.0</ele><time>2026-04-22T07:53:57Z</time></trkpt><trkpt lat="45.6483644897784" lon="11.004670343080925"><ele>1112.0</ele><time>2026-04-22T07:53:58Z</time></trkpt><trkpt lat="45.64843242640111" lon="11.004711416330439"><ele>1112.0</ele><time>2026-04-22T07:53:59Z</time></trkpt><trkpt lat="45.64849356378192" lon="11.004793572932416"><ele>1112.0</ele><time>2026-04-22T07:54:00Z</time></trkpt><trkpt lat="45.648543451520645" lon="11.004909813022662"><ele>1112.0</ele><time>2026-04-22T07:54:01Z</time></trkpt><trkpt lat="45.64858550992188" lon="11.005033942485195"><ele>1112.0</ele><time>2026-04-22T07:54:02Z</time></trkpt><trkpt lat="45.648640413652444" lon="11.005148814954852"><ele>1111.4</ele><time>2026-04-22T07:54:03Z</time></trkpt><trkpt lat="45.64869849684818" lon="11.005252995489865"><ele>1110.8000000000002</ele><time>2026-04-22T07:54:04Z</time></trkpt><trkpt lat="45.64875654065417" lon="11.005347754623902"><ele>1110.2</ele><time>2026-04-22T07:54:05Z</time></trkpt><trkpt lat="45.648810356377936" lon="11.005453045466782"><ele>1109.6000000000001</ele><time>2026-04-22T07:54:06Z</time></trkpt><trkpt lat="45.648874816606096" lon="11.005550095049928"><ele>1109.0</ele><time>2026-04-22T07:54:07Z</time></trkpt><trkpt lat="45.64895046991734" lon="11.005622603302564"><ele>1109.0</ele><time>2026-04-22T07:54:08Z</time></trkpt><trkpt lat="45.64903349132928" lon="11.00566599353795"><ele>1109.0</ele><time>2026-04-22T07:54:09Z</time></trkpt><trkpt lat="45.64912422529532" lon="11.005687581117185"><ele>1109.0</ele><time>2026-04-22T07:54:10Z</time></trkpt><trkpt lat="45.649222258581226" lon="11.005695026279504"><ele>1109.0</ele><time>2026-04-22T07:54:11Z</time></trkpt><trkpt lat="45.64932477910531" lon="11.005702679622564"><ele>1109.0</ele><time>2026-04-22T07:54:12Z</time></trkpt><trkpt lat="45.64941735184662" lon="11.005720039704162"><ele>1110.2</ele><time>2026-04-22T07:54:13Z</time></trkpt><trkpt lat="45.649526127143865" lon="11.005729819304445"><ele>1111.4</ele><time>2026-04-22T07:54:14Z</time></trkpt><trkpt lat="45.64962995800724" lon="11.00574571122972"><ele>1112.6</ele><time>2026-04-22T07:54:15Z</time></trkpt><trkpt lat="45.649724276848346" lon="11.005757781868525"><ele>1113.8</ele><time>2026-04-22T07:54:16Z</time></trkpt><trkpt lat="45.64981923535625" lon="11.005772538792312"><ele>1115.0</ele><time>2026-04-22T07:54:17Z</time></trkpt><trkpt lat="45.649906211235454" lon="11.005788581665422"><ele>1111.0</ele><time>2026-04-22T07:54:18Z</time></trkpt><trkpt lat="45.6499833561009" lon="11.00583001139734"><ele>1107.0</ele><time>2026-04-22T07:54:19Z</time></trkpt><trkpt lat="45.65005151823415" lon="11.005877264447863"><ele>1103.0</ele><time>2026-04-22T07:54:20Z</time></trkpt><trkpt lat="45.65009359120738" lon="11.005956998793383"><ele>1099.0</ele><time>2026-04-22T07:54:21Z</time></trkpt><trkpt lat="45.65010626566667" lon="11.006051434659033"><ele>1095.0</ele><time>2026-04-22T07:54:22Z</time></trkpt><trkpt lat="45.65007993611219" lon="11.00614421922146"><ele>1091.0</ele><time>2026-04-22T07:54:23Z</time></trkpt><trkpt lat="45.650026766033065" lon="11.006227233159674"><ele>1087.0</ele><time>2026-04-22T07:54:24Z</time></trkpt><trkpt lat="45.6499406178689" lon="11.006262749728489"><ele>1087.0</ele><time>2026-04-22T07:54:25Z</time></trkpt><trkpt lat="45.64984839689214" lon="11.006326891262443"><ele>1087.0</ele><time>2026-04-22T07:54:26Z</time></trkpt><trkpt lat="45.64976198834233" lon="11.006409865784278"><ele>1087.0</ele><time>2026-04-22T07:54:27Z</time></trkpt><trkpt lat="45.64969224317763" lon="11.006524230418202"><ele>1087.0</ele><time>2026-04-22T07:54:28Z</time></trkpt><trkpt lat="45.649621551072535" lon="11.00662861395808"><ele>1087.0</ele><time>2026-04-22T07:54:29Z</time></trkpt><trkpt lat="45.64956601173629" lon="11.006748089934778"><ele>1086.8333333333333</ele><time>2026-04-22T07:54:30Z</time></trkpt><trkpt lat="45.649517556480085" lon="11.006856651682702"><ele>1086.6666666666665</ele><time>2026-04-22T07:54:31Z</time></trkpt><trkpt lat="45.64947428482968" lon="11.006962854732905"><ele>1086.5</ele><time>2026-04-22T07:54:32Z</time></trkpt><trkpt lat="45.649442867115965" lon="11.007059089374387"><ele>1086.3333333333333</ele><time>2026-04-22T07:54:33Z</time></trkpt><trkpt lat="45.649443300519934" lon="11.00717564543661"><ele>1086.1666666666667</ele><time>2026-04-22T07:54:34Z</time></trkpt><trkpt lat="45.64948440866857" lon="11.007276978956138"><ele>1086.0</ele><time>2026-04-22T07:54:35Z</time></trkpt><trkpt lat="45.649582323152536" lon="11.007360636584053"><ele>1086.0</ele><time>2026-04-22T07:54:36Z</time></trkpt><trkpt lat="45.649678953699976" lon="11.007429548002035"><ele>1086.0</ele><time>2026-04-22T07:54:37Z</time></trkpt><trkpt lat="45.64978089895686" lon="11.007503790647915"><ele>1086.0</ele><time>2026-04-22T07:54:38Z</time></trkpt><trkpt lat="45.64989072380942" lon="11.007573094864645"><ele>1086.0</ele><time>2026-04-22T07:54:39Z</time></trkpt><trkpt lat="45.64999499980779" lon="11.007651903193349"><ele>1085.75</ele><time>2026-04-22T07:54:40Z</time></trkpt><trkpt lat="45.650094230403276" lon="11.007733048558165"><ele>1085.5</ele><time>2026-04-22T07:54:41Z</time></trkpt><trkpt lat="45.650195751639934" lon="11.007814050249442"><ele>1085.25</ele><time>2026-04-22T07:54:42Z</time></trkpt><trkpt lat="45.650298963224465" lon="11.007883540435994"><ele>1085.0</ele><time>2026-04-22T07:54:43Z</time></trkpt><trkpt lat="45.650400642561856" lon="11.007954989873355"><ele>1084.4</ele><time>2026-04-22T07:54:44Z</time></trkpt><trkpt lat="45.650505136080525" lon="11.007982331920186"><ele>1083.8</ele><time>2026-04-22T07:54:44.999Z</time></trkpt><trkpt lat="45.65060863684202" lon="11.007996085195838"><ele>1083.2</ele><time>2026-04-22T07:54:45.999Z</time></trkpt><trkpt lat="45.65070843769912" lon="11.008019627590912"><ele>1082.6</ele><time>2026-04-22T07:54:46.999Z</time></trkpt><trkpt lat="45.65079877176242" lon="11.008037233408707"><ele>1082.0</ele><time>2026-04-22T07:54:47.999Z</time></trkpt><trkpt lat="45.6508808971863" lon="11.008055252342926"><ele>1082.0</ele><time>2026-04-22T07:54:48.999Z</time></trkpt><trkpt lat="45.65094446995994" lon="11.008115185037392"><ele>1082.0</ele><time>2026-04-22T07:54:49.999Z</time></trkpt><trkpt lat="45.65099188414175" lon="11.008216753690622"><ele>1082.0</ele><time>2026-04-22T07:54:50.999Z</time></trkpt><trkpt lat="45.65102272069012" lon="11.008338862817192"><ele>1082.0</ele><time>2026-04-22T07:54:51.999Z</time></trkpt><trkpt lat="45.65102014300099" lon="11.008479675899844"><ele>1082.0</ele><time>2026-04-22T07:54:52.999Z</time></trkpt><trkpt lat="45.650954451378595" lon="11.008596391732286"><ele>1080.8</ele><time>2026-04-22T07:54:53.999Z</time></trkpt><trkpt lat="45.65090023827899" lon="11.008726701853023"><ele>1079.6</ele><time>2026-04-22T07:54:54.999Z</time></trkpt><trkpt lat="45.65085288251102" lon="11.008870295620827"><ele>1078.3999999999999</ele><time>2026-04-22T07:54:55.999Z</time></trkpt><trkpt lat="45.6507965735794" lon="11.009006389882689"><ele>1077.2</ele><time>2026-04-22T07:54:56.999Z</time></trkpt><trkpt lat="45.65075363961467" lon="11.009135677370415"><ele>1076.0</ele><time>2026-04-22T07:54:57.999Z</time></trkpt><trkpt lat="45.650713397176304" lon="11.009274055576478"><ele>1076.0</ele><time>2026-04-22T07:54:58.999Z</time></trkpt><trkpt lat="45.650692482959606" lon="11.009426029709578"><ele>1076.0</ele><time>2026-04-22T07:54:59.999Z</time></trkpt><trkpt lat="45.650696351446946" lon="11.009611826475563"><ele>1076.0</ele><time>2026-04-22T07:55:00.999Z</time></trkpt><trkpt lat="45.65070525555293" lon="11.009781345935085"><ele>1076.0</ele><time>2026-04-22T07:55:01.999Z</time></trkpt><trkpt lat="45.65071755410392" lon="11.009934977467504"><ele>1075.0</ele><time>2026-04-22T07:55:02.999Z</time></trkpt><trkpt lat="45.65072737817911" lon="11.010076558488157"><ele>1074.0</ele><time>2026-04-22T07:55:03.999Z</time></trkpt><trkpt lat="45.65072911889203" lon="11.010213105113756"><ele>1073.0</ele><time>2026-04-22T07:55:04.999Z</time></trkpt><trkpt lat="45.650741040578566" lon="11.010327289685563"><ele>1072.0</ele><time>2026-04-22T07:55:05.999Z</time></trkpt><trkpt lat="45.65077509880458" lon="11.010434829313125"><ele>1071.0</ele><time>2026-04-22T07:55:06.999Z</time></trkpt><trkpt lat="45.65083277415778" lon="11.010528162463627"><ele>1070.0</ele><time>2026-04-22T07:55:07.999Z</time></trkpt><trkpt lat="45.65090803523163" lon="11.010611573759293"><ele>1070.0</ele><time>2026-04-22T07:55:08.999Z</time></trkpt><trkpt lat="45.65098788998577" lon="11.010684405544687"><ele>1070.0</ele><time>2026-04-22T07:55:09.999Z</time></trkpt><trkpt lat="45.65106290199964" lon="11.010761610397845"><ele>1070.0</ele><time>2026-04-22T07:55:10.999Z</time></trkpt><trkpt lat="45.651135837197415" lon="11.010846622035968"><ele>1070.0</ele><time>2026-04-22T07:55:11.999Z</time></trkpt><trkpt lat="45.65119291696178" lon="11.0109565446104"><ele>1070.0</ele><time>2026-04-22T07:55:12.999Z</time></trkpt><trkpt lat="45.651247188144474" lon="11.011046737386472"><ele>1077.2</ele><time>2026-04-22T07:55:13.999Z</time></trkpt><trkpt lat="45.65129918940573" lon="11.011197206624304"><ele>1084.4</ele><time>2026-04-22T07:55:14.999Z</time></trkpt><trkpt lat="45.651344306316375" lon="11.011313289143388"><ele>1091.6</ele><time>2026-04-22T07:55:15.999Z</time></trkpt><trkpt lat="45.65139496397217" lon="11.01141295292724"><ele>1098.8</ele><time>2026-04-22T07:55:16.999Z</time></trkpt><trkpt lat="45.65145450379894" lon="11.011507855303757"><ele>1106.0</ele><time>2026-04-22T07:55:17.999Z</time></trkpt><trkpt lat="45.651536813730374" lon="11.0115742365703"><ele>1106.0</ele><time>2026-04-22T07:55:18.999Z</time></trkpt><trkpt lat="45.65162301206298" lon="11.011622760999018"><ele>1106.0</ele><time>2026-04-22T07:55:19.999Z</time></trkpt><trkpt lat="45.65169577413286" lon="11.01167877619871"><ele>1106.0</ele><time>2026-04-22T07:55:20.999Z</time></trkpt><trkpt lat="45.651750302948734" lon="11.011768480034922"><ele>1106.0</ele><time>2026-04-22T07:55:21.999Z</time></trkpt><trkpt lat="45.651780402604395" lon="11.011893893515248"><ele>1106.0</ele><time>2026-04-22T07:55:22.999Z</time></trkpt><trkpt lat="45.6517811348183" lon="11.012030715173873"><ele>1106.0</ele><time>2026-04-22T07:55:23.999Z</time></trkpt><trkpt lat="45.651768779019704" lon="11.012170994296822"><ele>1098.6</ele><time>2026-04-22T07:55:24.999Z</time></trkpt><trkpt lat="45.651730584416605" lon="11.012292233498272"><ele>1091.1999999999998</ele><time>2026-04-22T07:55:25.999Z</time></trkpt><trkpt lat="45.651693785411084" lon="11.012424549311998"><ele>1083.8000000000002</ele><time>2026-04-22T07:55:26.999Z</time></trkpt><trkpt lat="45.65168668112474" lon="11.012570910732379"><ele>1076.4</ele><time>2026-04-22T07:55:27.999Z</time></trkpt><trkpt lat="45.6516949459514" lon="11.012730449296518"><ele>1069.0</ele><time>2026-04-22T07:55:29Z</time></trkpt><trkpt lat="45.651713331237644" lon="11.01289990970562"><ele>1063.75</ele><time>2026-04-22T07:55:30Z</time></trkpt><trkpt lat="45.65172376388475" lon="11.013068194491817"><ele>1058.5</ele><time>2026-04-22T07:55:31Z</time></trkpt><trkpt lat="45.65172989463063" lon="11.013242605631484"><ele>1053.25</ele><time>2026-04-22T07:55:32Z</time></trkpt><trkpt lat="45.65173761578428" lon="11.013413542586965"><ele>1048.0</ele><time>2026-04-22T07:55:33Z</time></trkpt><trkpt lat="45.651739064921514" lon="11.013572468260401"><ele>1046.6</ele><time>2026-04-22T07:55:34Z</time></trkpt><trkpt lat="45.65174624471895" lon="11.013718447967447"><ele>1045.1999999999998</ele><time>2026-04-22T07:55:35Z</time></trkpt><trkpt lat="45.651767348919286" lon="11.013866451966186"><ele>1043.8</ele><time>2026-04-22T07:55:36Z</time></trkpt><trkpt lat="45.65181124419226" lon="11.014003755967925"><ele>1042.3999999999999</ele><time>2026-04-22T07:55:37Z</time></trkpt><trkpt lat="45.65188040122523" lon="11.014125411879398"><ele>1041.0</ele><time>2026-04-22T07:55:38Z</time></trkpt><trkpt lat="45.65194068723322" lon="11.014240266977845"><ele>1048.3999999999999</ele><time>2026-04-22T07:55:39Z</time></trkpt><trkpt lat="45.65199195406413" lon="11.01435510233071"><ele>1055.8</ele><time>2026-04-22T07:55:40Z</time></trkpt><trkpt lat="45.65205235384707" lon="11.014456621307383"><ele>1063.1999999999998</ele><time>2026-04-22T07:55:41Z</time></trkpt><trkpt lat="45.652127178181885" lon="11.014535217741773"><ele>1070.6</ele><time>2026-04-22T07:55:42Z</time></trkpt><trkpt lat="45.65222657397876" lon="11.014589368913244"><ele>1078.0</ele><time>2026-04-22T07:55:43Z</time></trkpt><trkpt lat="45.65232743027085" lon="11.014638566599995"><ele>1078.0</ele><time>2026-04-22T07:55:44Z</time></trkpt><trkpt lat="45.65242748736587" lon="11.01470123270921"><ele>1078.0</ele><time>2026-04-22T07:55:45Z</time></trkpt><trkpt lat="45.652529436199394" lon="11.014768998186128"><ele>1078.0</ele><time>2026-04-22T07:55:46Z</time></trkpt><trkpt lat="45.652635054445895" lon="11.01480786424478"><ele>1078.0</ele><time>2026-04-22T07:55:47Z</time></trkpt><trkpt lat="45.6527448603743" lon="11.014865378007146"><ele>1078.0</ele><time>2026-04-22T07:55:48Z</time></trkpt><trkpt lat="45.65285189506699" lon="11.014917397930365"><ele>1074.5</ele><time>2026-04-22T07:55:49Z</time></trkpt><trkpt lat="45.652965063252175" lon="11.014958116317048"><ele>1071.0</ele><time>2026-04-22T07:55:50Z</time></trkpt><trkpt lat="45.65307678890883" lon="11.015012366372995"><ele>1067.5</ele><time>2026-04-22T07:55:51Z</time></trkpt><trkpt lat="45.65318158321913" lon="11.015066611235223"><ele>1064.0</ele><time>2026-04-22T07:55:52Z</time></trkpt><trkpt lat="45.65327683184461" lon="11.015130770248009"><ele>1064.0</ele><time>2026-04-22T07:55:53Z</time></trkpt><trkpt lat="45.65336887980626" lon="11.015207006606438"><ele>1064.0</ele><time>2026-04-22T07:55:54Z</time></trkpt><trkpt lat="45.653451787759465" lon="11.015303808338059"><ele>1064.0</ele><time>2026-04-22T07:55:55Z</time></trkpt><trkpt lat="45.65353274583876" lon="11.01541176496559"><ele>1064.0</ele><time>2026-04-22T07:55:56Z</time></trkpt><trkpt lat="45.653617692537146" lon="11.015538317321932"><ele>1064.0</ele><time>2026-04-22T07:55:57Z</time></trkpt><trkpt lat="45.653712108268046" lon="11.015653169069221"><ele>1059.6000000000001</ele><time>2026-04-22T07:55:58Z</time></trkpt><trkpt lat="45.65380590803667" lon="11.015742679568431"><ele>1055.2</ele><time>2026-04-22T07:55:59Z</time></trkpt><trkpt lat="45.65390634097927" lon="11.015806545290943"><ele>1050.8000000000002</ele><time>2026-04-22T07:56:00Z</time></trkpt><trkpt lat="45.65400381164138" lon="11.015873681069197"><ele>1046.4</ele><time>2026-04-22T07:56:01Z</time></trkpt><trkpt lat="45.654094495672" lon="11.015959306697752"><ele>1042.0</ele><time>2026-04-22T07:56:02Z</time></trkpt><trkpt lat="45.65418311866094" lon="11.016045861797217"><ele>1042.0</ele><time>2026-04-22T07:56:03Z</time></trkpt><trkpt lat="45.654281851942685" lon="11.01610703854556"><ele>1042.0</ele><time>2026-04-22T07:56:04Z</time></trkpt><trkpt lat="45.65439044351457" lon="11.016149519518935"><ele>1042.0</ele><time>2026-04-22T07:56:05Z</time></trkpt><trkpt lat="45.654501641999076" lon="11.01618982856492"><ele>1042.0</ele><time>2026-04-22T07:56:06Z</time></trkpt><trkpt lat="45.65460434361163" lon="11.016225497921948"><ele>1042.0</ele><time>2026-04-22T07:56:07Z</time></trkpt><trkpt lat="45.65470055900297" lon="11.016253844936468"><ele>1047.5</ele><time>2026-04-22T07:56:08Z</time></trkpt><trkpt lat="45.654801158167565" lon="11.016259269300681"><ele>1053.0</ele><time>2026-04-22T07:56:09Z</time></trkpt><trkpt lat="45.654912314994846" lon="11.016224622102747"><ele>1058.5</ele><time>2026-04-22T07:56:10Z</time></trkpt><trkpt lat="45.65502409390396" lon="11.016163165553797"><ele>1064.0</ele><time>2026-04-22T07:56:11Z</time></trkpt><trkpt lat="45.655131929742566" lon="11.016098836949217"><ele>1064.0</ele><time>2026-04-22T07:56:12Z</time></trkpt><trkpt lat="45.65523529656604" lon="11.016054935131708"><ele>1064.0</ele><time>2026-04-22T07:56:13Z</time></trkpt><trkpt lat="45.65533848842613" lon="11.016031530640547"><ele>1064.0</ele><time>2026-04-22T07:56:14Z</time></trkpt><trkpt lat="45.65544463595245" lon="11.016024687305931"><ele>1064.0</ele><time>2026-04-22T07:56:15Z</time></trkpt><trkpt lat="45.65555745003332" lon="11.016028489377357"><ele>1064.0</ele><time>2026-04-22T07:56:16Z</time></trkpt><trkpt lat="45.65567445435118" lon="11.016071364967171"><ele>1062.2</ele><time>2026-04-22T07:56:17Z</time></trkpt><trkpt lat="45.655789959986485" lon="11.01611585266057"><ele>1060.4</ele><time>2026-04-22T07:56:18Z</time></trkpt><trkpt lat="45.65590453192247" lon="11.016168339213431"><ele>1058.6</ele><time>2026-04-22T07:56:19Z</time></trkpt><trkpt lat="45.65600119045439" lon="11.016206138678218"><ele>1056.8</ele><time>2026-04-22T07:56:20Z</time></trkpt><trkpt lat="45.656104832517435" lon="11.016219124259596"><ele>1055.0</ele><time>2026-04-22T07:56:21Z</time></trkpt><trkpt lat="45.65620612404468" lon="11.016206771548402"><ele>1053.25</ele><time>2026-04-22T07:56:22Z</time></trkpt><trkpt lat="45.65631909399217" lon="11.016190325389251"><ele>1051.5</ele><time>2026-04-22T07:56:23Z</time></trkpt><trkpt lat="45.65643835194785" lon="11.016156744341252"><ele>1049.75</ele><time>2026-04-22T07:56:24Z</time></trkpt><trkpt lat="45.65655446125526" lon="11.01611300986517"><ele>1048.0</ele><time>2026-04-22T07:56:25Z</time></trkpt><trkpt lat="45.65667306477974" lon="11.016084711922627"><ele>1048.0</ele><time>2026-04-22T07:56:26Z</time></trkpt><trkpt lat="45.65678529762744" lon="11.01606399641202"><ele>1048.0</ele><time>2026-04-22T07:56:27Z</time></trkpt><trkpt lat="45.65689184434379" lon="11.016096954055621"><ele>1048.0</ele><time>2026-04-22T07:56:28Z</time></trkpt><trkpt lat="45.6569833906657" lon="11.016113057542574"><ele>1048.0</ele><time>2026-04-22T07:56:29Z</time></trkpt><trkpt lat="45.657074762630515" lon="11.016131895533663"><ele>1048.0</ele><time>2026-04-22T07:56:30Z</time></trkpt><trkpt lat="45.65715211387608" lon="11.016162371066395"><ele>1049.2</ele><time>2026-04-22T07:56:31Z</time></trkpt><trkpt lat="45.65721858031808" lon="11.016197275155276"><ele>1050.4</ele><time>2026-04-22T07:56:32Z</time></trkpt><trkpt lat="45.65730872867732" lon="11.016331856394237"><ele>1051.6000000000001</ele><time>2026-04-22T07:56:34Z</time></trkpt><trkpt lat="45.6573478791334" lon="11.016406487886577"><ele>1052.8</ele><time>2026-04-22T07:56:35Z</time></trkpt><trkpt lat="45.65735173271623" lon="11.01663106837349"><ele>1054.0</ele><time>2026-04-22T07:56:37Z</time></trkpt><trkpt lat="45.65736827166779" lon="11.016722494981046"><ele>1048.6000000000001</ele><time>2026-04-22T07:56:38Z</time></trkpt><trkpt lat="45.65737275238677" lon="11.01688470592305"><ele>1043.2</ele><time>2026-04-22T07:56:40Z</time></trkpt><trkpt lat="45.65729250090611" lon="11.017017712936747"><ele>1037.8000000000002</ele><time>2026-04-22T07:56:42Z</time></trkpt><trkpt lat="45.6572234221078" lon="11.01704327642476"><ele>1032.4</ele><time>2026-04-22T07:56:43Z</time></trkpt><trkpt lat="45.65714833778999" lon="11.01705181428872"><ele>1027.0</ele><time>2026-04-22T07:56:44Z</time></trkpt><trkpt lat="45.657068893807676" lon="11.017066948855668"><ele>1027.0</ele><time>2026-04-22T07:56:45Z</time></trkpt><trkpt lat="45.65696633237631" lon="11.01710006076623"><ele>1027.0</ele><time>2026-04-22T07:56:46Z</time></trkpt><trkpt lat="45.6568648089451" lon="11.017123403604677"><ele>1027.0</ele><time>2026-04-22T07:56:47Z</time></trkpt><trkpt lat="45.656762417199374" lon="11.017161652650438"><ele>1027.0</ele><time>2026-04-22T07:56:48Z</time></trkpt><trkpt lat="45.656656255244904" lon="11.017182209412933"><ele>1027.0</ele><time>2026-04-22T07:56:49Z</time></trkpt><trkpt lat="45.65654779266825" lon="11.017206405726007"><ele>1023.25</ele><time>2026-04-22T07:56:50Z</time></trkpt><trkpt lat="45.65643654414649" lon="11.017235455390834"><ele>1019.5</ele><time>2026-04-22T07:56:51Z</time></trkpt><trkpt lat="45.656325022170456" lon="11.017270389244487"><ele>1015.75</ele><time>2026-04-22T07:56:52Z</time></trkpt><trkpt lat="45.6562073996278" lon="11.017291738669947"><ele>1012.0</ele><time>2026-04-22T07:56:53Z</time></trkpt><trkpt lat="45.65609907856051" lon="11.017314885368423"><ele>1012.0</ele><time>2026-04-22T07:56:54Z</time></trkpt><trkpt lat="45.65599215842513" lon="11.017339330378446"><ele>1012.0</ele><time>2026-04-22T07:56:55Z</time></trkpt><trkpt lat="45.65588453307065" lon="11.017389007923535"><ele>1012.0</ele><time>2026-04-22T07:56:56Z</time></trkpt><trkpt lat="45.65577919934291" lon="11.017420818739351"><ele>1012.0</ele><time>2026-04-22T07:56:57Z</time></trkpt><trkpt lat="45.655676051854186" lon="11.017450843526268"><ele>1012.0</ele><time>2026-04-22T07:56:58Z</time></trkpt><trkpt lat="45.65557308617599" lon="11.017488977234443"><ele>1012.2</ele><time>2026-04-22T07:56:59Z</time></trkpt><trkpt lat="45.65547909678411" lon="11.01757312883797"><ele>1012.4000000000001</ele><time>2026-04-22T07:57:00Z</time></trkpt><trkpt lat="45.65540230840241" lon="11.017679494200856"><ele>1012.5999999999999</ele><time>2026-04-22T07:57:01Z</time></trkpt><trkpt lat="45.655308473086514" lon="11.017762282738712"><ele>1012.8</ele><time>2026-04-22T07:57:02Z</time></trkpt><trkpt lat="45.65521022217016" lon="11.017858516872392"><ele>1013.0</ele><time>2026-04-22T07:57:03Z</time></trkpt><trkpt lat="45.65509471816604" lon="11.017953146434891"><ele>1013.0</ele><time>2026-04-22T07:57:04Z</time></trkpt><trkpt lat="45.65498184395484" lon="11.018036074329737"><ele>1013.0</ele><time>2026-04-22T07:57:05Z</time></trkpt><trkpt lat="45.654856147261974" lon="11.018111626259978"><ele>1013.0</ele><time>2026-04-22T07:57:06Z</time></trkpt><trkpt lat="45.65475003897087" lon="11.018135574470588"><ele>1013.0</ele><time>2026-04-22T07:57:07Z</time></trkpt><trkpt lat="45.654658925373404" lon="11.018136849670858"><ele>1013.0000000000001</ele><time>2026-04-22T07:57:08Z</time></trkpt><trkpt lat="45.65456612279542" lon="11.018135411109586"><ele>1013.0</ele><time>2026-04-22T07:57:09Z</time></trkpt><trkpt lat="45.65448830890812" lon="11.018103680408872"><ele>1013.0</ele><time>2026-04-22T07:57:10Z</time></trkpt><trkpt lat="45.654387690658744" lon="11.018060346333963"><ele>1013.0</ele><time>2026-04-22T07:57:11Z</time></trkpt><trkpt lat="45.65431069717559" lon="11.01803187033358"><ele>1013.0000000000001</ele><time>2026-04-22T07:57:12Z</time></trkpt><trkpt lat="45.65423668405285" lon="11.018065174637897"><ele>1013.0</ele><time>2026-04-22T07:57:13Z</time></trkpt><trkpt lat="45.65417681761637" lon="11.018124205348132"><ele>1013.0</ele><time>2026-04-22T07:57:14Z</time></trkpt><trkpt lat="45.6541278206143" lon="11.018219532096236"><ele>1013.0</ele><time>2026-04-22T07:57:15Z</time></trkpt><trkpt lat="45.65407319209885" lon="11.018335165511957"><ele>1013.0</ele><time>2026-04-22T07:57:15.999Z</time></trkpt><trkpt lat="45.65401264860828" lon="11.018464963664067"><ele>1013.0</ele><time>2026-04-22T07:57:16.999Z</time></trkpt><trkpt lat="45.65395487091053" lon="11.01860443845316"><ele>1013.0</ele><time>2026-04-22T07:57:17.999Z</time></trkpt><trkpt lat="45.6539226604473" lon="11.01876716085643"><ele>1019.2</ele><time>2026-04-22T07:57:18.999Z</time></trkpt><trkpt lat="45.6538917311465" lon="11.018940133215331"><ele>1025.4</ele><time>2026-04-22T07:57:19.999Z</time></trkpt><trkpt lat="45.65384688076251" lon="11.019105612519171"><ele>1031.6000000000001</ele><time>2026-04-22T07:57:20.999Z</time></trkpt><trkpt lat="45.65382934042" lon="11.019246211951765"><ele>1037.8</ele><time>2026-04-22T07:57:21.999Z</time></trkpt><trkpt lat="45.65381130696448" lon="11.019368344932966"><ele>1044.0</ele><time>2026-04-22T07:57:22.999Z</time></trkpt><trkpt lat="45.65378340616476" lon="11.019470108439162"><ele>1046.5714285714287</ele><time>2026-04-22T07:57:23.999Z</time></trkpt><trkpt lat="45.65376665806328" lon="11.01957050893686"><ele>1049.142857142857</ele><time>2026-04-22T07:57:24.999Z</time></trkpt><trkpt lat="45.6537210993943" lon="11.019646060652846"><ele>1051.7142857142858</ele><time>2026-04-22T07:57:25.999Z</time></trkpt><trkpt lat="45.65365424554773" lon="11.01968875290324"><ele>1054.2857142857142</ele><time>2026-04-22T07:57:26.999Z</time></trkpt><trkpt lat="45.653585025860814" lon="11.019702375422032"><ele>1056.857142857143</ele><time>2026-04-22T07:57:27.999Z</time></trkpt><trkpt lat="45.65351979094286" lon="11.019680150541827"><ele>1059.4285714285716</ele><time>2026-04-22T07:57:28.999Z</time></trkpt><trkpt lat="45.65345084799758" lon="11.019613020554345"><ele>1062.0</ele><time>2026-04-22T07:57:29.999Z</time></trkpt><trkpt lat="45.653403215907396" lon="11.019517211955886"><ele>1062.0</ele><time>2026-04-22T07:57:30.999Z</time></trkpt><trkpt lat="45.65335080656289" lon="11.019434613202078"><ele>1062.0</ele><time>2026-04-22T07:57:31.999Z</time></trkpt><trkpt lat="45.65331084757217" lon="11.019344084681032"><ele>1062.0</ele><time>2026-04-22T07:57:32.999Z</time></trkpt><trkpt lat="45.65326663113074" lon="11.0192314123382"><ele>1062.0</ele><time>2026-04-22T07:57:33.999Z</time></trkpt><trkpt lat="45.653235091030396" lon="11.019127736881162"><ele>1062.0</ele><time>2026-04-22T07:57:35Z</time></trkpt><trkpt lat="45.65319463177699" lon="11.01900683223487"><ele>1062.0</ele><time>2026-04-22T07:57:36Z</time></trkpt><trkpt lat="45.653138596194026" lon="11.018854409157985"><ele>1056.4</ele><time>2026-04-22T07:57:37Z</time></trkpt><trkpt lat="45.653085347216454" lon="11.018737474009166"><ele>1050.8000000000002</ele><time>2026-04-22T07:57:38Z</time></trkpt><trkpt lat="45.65301131330362" lon="11.018627634870798"><ele>1045.2</ele><time>2026-04-22T07:57:39Z</time></trkpt><trkpt lat="45.65294418745355" lon="11.018497972316045"><ele>1039.6000000000001</ele><time>2026-04-22T07:57:40Z</time></trkpt><trkpt lat="45.652882906227894" lon="11.018380602883083"><ele>1034.0</ele><time>2026-04-22T07:57:41Z</time></trkpt><trkpt lat="45.65282964073014" lon="11.018262867708208"><ele>1036.6000000000001</ele><time>2026-04-22T07:57:42Z</time></trkpt><trkpt lat="45.6527772208058" lon="11.018142362330753"><ele>1039.2</ele><time>2026-04-22T07:57:43Z</time></trkpt><trkpt lat="45.65272313064648" lon="11.01801377877807"><ele>1041.8000000000002</ele><time>2026-04-22T07:57:44Z</time></trkpt><trkpt lat="45.65265358716905" lon="11.017908299008411"><ele>1044.4</ele><time>2026-04-22T07:57:45Z</time></trkpt><trkpt lat="45.652579504810355" lon="11.01781448905937"><ele>1047.0</ele><time>2026-04-22T07:57:46Z</time></trkpt><trkpt lat="45.652489658024095" lon="11.017747066356387"><ele>1047.0</ele><time>2026-04-22T07:57:47Z</time></trkpt><trkpt lat="45.652396826128694" lon="11.017685207601552"><ele>1047.0</ele><time>2026-04-22T07:57:48Z</time></trkpt><trkpt lat="45.65229144219679" lon="11.017643271907211"><ele>1047.0</ele><time>2026-04-22T07:57:49Z</time></trkpt><trkpt lat="45.652182257014736" lon="11.017592353664835"><ele>1047.0</ele><time>2026-04-22T07:57:50Z</time></trkpt><trkpt lat="45.65207413643584" lon="11.017545338091395"><ele>1047.0</ele><time>2026-04-22T07:57:51Z</time></trkpt><trkpt lat="45.651971502537684" lon="11.017498071990207"><ele>1042.6</ele><time>2026-04-22T07:57:52Z</time></trkpt><trkpt lat="45.6518688931111" lon="11.017460867572979"><ele>1038.2</ele><time>2026-04-22T07:57:53Z</time></trkpt><trkpt lat="45.65177659702179" lon="11.017450163119202"><ele>1033.8</ele><time>2026-04-22T07:57:54Z</time></trkpt><trkpt lat="45.65167982545414" lon="11.017422028648832"><ele>1029.4</ele><time>2026-04-22T07:57:55Z</time></trkpt><trkpt lat="45.651579348690206" lon="11.017446848215895"><ele>1025.0</ele><time>2026-04-22T07:57:56Z</time></trkpt><trkpt lat="45.651472340460494" lon="11.017457971306275"><ele>1033.6</ele><time>2026-04-22T07:57:57Z</time></trkpt><trkpt lat="45.65136714981196" lon="11.017511145397199"><ele>1042.2</ele><time>2026-04-22T07:57:58Z</time></trkpt><trkpt lat="45.65126347249215" lon="11.017575622206323"><ele>1050.8</ele><time>2026-04-22T07:57:59Z</time></trkpt><trkpt lat="45.65117392803786" lon="11.017637034219161"><ele>1059.4</ele><time>2026-04-22T07:58:00Z</time></trkpt><trkpt lat="45.651086330898536" lon="11.017665162495545"><ele>1068.0</ele><time>2026-04-22T07:58:01Z</time></trkpt><trkpt lat="45.65101685666828" lon="11.01767727833142"><ele>1069.2</ele><time>2026-04-22T07:58:02Z</time></trkpt><trkpt lat="45.65093674918922" lon="11.017666078810757"><ele>1070.4</ele><time>2026-04-22T07:58:03Z</time></trkpt><trkpt lat="45.650849983283535" lon="11.017633938615273"><ele>1071.6000000000001</ele><time>2026-04-22T07:58:04Z</time></trkpt><trkpt lat="45.65076175809731" lon="11.017565865326313"><ele>1072.8</ele><time>2026-04-22T07:58:05Z</time></trkpt><trkpt lat="45.650700186903634" lon="11.017471786146517"><ele>1074.0</ele><time>2026-04-22T07:58:06Z</time></trkpt><trkpt lat="45.65063363124799" lon="11.01737950559857"><ele>1072.5</ele><time>2026-04-22T07:58:07Z</time></trkpt><trkpt lat="45.65056749757829" lon="11.017281916825837"><ele>1071.0</ele><time>2026-04-22T07:58:08Z</time></trkpt><trkpt lat="45.65048511284762" lon="11.017189580366713"><ele>1069.5</ele><time>2026-04-22T07:58:09Z</time></trkpt><trkpt lat="45.65037986046931" lon="11.017142901317268"><ele>1068.0</ele><time>2026-04-22T07:58:10Z</time></trkpt><trkpt lat="45.65024109690042" lon="11.017068813548635"><ele>1068.0</ele><time>2026-04-22T07:58:11Z</time></trkpt><trkpt lat="45.65012154992339" lon="11.017029647311112"><ele>1068.0</ele><time>2026-04-22T07:58:12Z</time></trkpt><trkpt lat="45.650007339496405" lon="11.017004025422716"><ele>1068.0</ele><time>2026-04-22T07:58:13Z</time></trkpt><trkpt lat="45.649893765413196" lon="11.016991603597795"><ele>1068.0</ele><time>2026-04-22T07:58:14Z</time></trkpt><trkpt lat="45.649784195740494" lon="11.01700237186547"><ele>1068.0</ele><time>2026-04-22T07:58:15Z</time></trkpt><trkpt lat="45.64968023546998" lon="11.017009568016439"><ele>1068.0</ele><time>2026-04-22T07:58:16Z</time></trkpt><trkpt lat="45.64958345060591" lon="11.017067827503203"><ele>1068.0</ele><time>2026-04-22T07:58:17Z</time></trkpt><trkpt lat="45.64949633964026" lon="11.017144025273788"><ele>1068.0</ele><time>2026-04-22T07:58:18Z</time></trkpt><trkpt lat="45.64944441352744" lon="11.017262273991854"><ele>1068.0</ele><time>2026-04-22T07:58:19Z</time></trkpt><trkpt lat="45.649397554714305" lon="11.017371431515887"><ele>1069.4</ele><time>2026-04-22T07:58:20Z</time></trkpt><trkpt lat="45.64937920720539" lon="11.017499498718811"><ele>1070.8</ele><time>2026-04-22T07:58:21Z</time></trkpt><trkpt lat="45.64938472329749" lon="11.0176440556323"><ele>1072.2</ele><time>2026-04-22T07:58:22Z</time></trkpt><trkpt lat="45.64937889691074" lon="11.017803393062332"><ele>1073.6</ele><time>2026-04-22T07:58:23Z</time></trkpt><trkpt lat="45.649367523619574" lon="11.017968626951776"><ele>1075.0</ele><time>2026-04-22T07:58:24Z</time></trkpt><trkpt lat="45.6493533509851" lon="11.018118515776695"><ele>1075.0</ele><time>2026-04-22T07:58:25Z</time></trkpt><trkpt lat="45.64932819523692" lon="11.018246213939378"><ele>1075.0</ele><time>2026-04-22T07:58:26Z</time></trkpt><trkpt lat="45.649284368353726" lon="11.01836487923733"><ele>1075.0</ele><time>2026-04-22T07:58:27Z</time></trkpt><trkpt lat="45.64921872916648" lon="11.01846478776253"><ele>1075.0</ele><time>2026-04-22T07:58:28Z</time></trkpt><trkpt lat="45.64913393613991" lon="11.018540371580613"><ele>1075.0</ele><time>2026-04-22T07:58:29Z</time></trkpt><trkpt lat="45.64903532142287" lon="11.018611559577895"><ele>1075.5</ele><time>2026-04-22T07:58:30Z</time></trkpt><trkpt lat="45.64892871616797" lon="11.01867418043112"><ele>1076.0</ele><time>2026-04-22T07:58:31Z</time></trkpt><trkpt lat="45.648819838017275" lon="11.018717726058277"><ele>1076.5</ele><time>2026-04-22T07:58:32Z</time></trkpt><trkpt lat="45.64871144426592" lon="11.01875181024955"><ele>1077.0</ele><time>2026-04-22T07:58:33Z</time></trkpt><trkpt lat="45.64860189045479" lon="11.018793653029848"><ele>1074.75</ele><time>2026-04-22T07:58:34Z</time></trkpt><trkpt lat="45.64849614093144" lon="11.01885984369136"><ele>1072.5</ele><time>2026-04-22T07:58:35Z</time></trkpt><trkpt lat="45.64837680383954" lon="11.018900786068475"><ele>1070.25</ele><time>2026-04-22T07:58:36Z</time></trkpt><trkpt lat="45.648269720534984" lon="11.018958602186554"><ele>1068.0</ele><time>2026-04-22T07:58:37Z</time></trkpt><trkpt lat="45.64816373239985" lon="11.01900665945238"><ele>1068.0</ele><time>2026-04-22T07:58:38Z</time></trkpt><trkpt lat="45.64804749707796" lon="11.01904341469725"><ele>1068.0</ele><time>2026-04-22T07:58:39Z</time></trkpt><trkpt lat="45.64791975803577" lon="11.019072991447782"><ele>1068.0</ele><time>2026-04-22T07:58:40Z</time></trkpt><trkpt lat="45.6477922675466" lon="11.01908619979027"><ele>1068.0</ele><time>2026-04-22T07:58:41Z</time></trkpt><trkpt lat="45.64766155621065" lon="11.019095161467582"><ele>1067.5</ele><time>2026-04-22T07:58:42Z</time></trkpt><trkpt lat="45.647521391928386" lon="11.019107556608619"><ele>1067.0</ele><time>2026-04-22T07:58:43Z</time></trkpt><trkpt lat="45.64745139293251" lon="11.019060823570861"><ele>1066.5</ele><time>2026-04-22T07:58:44Z</time></trkpt><trkpt lat="45.64732326969303" lon="11.01901748144735"><ele>1066.0</ele><time>2026-04-22T07:58:45Z</time></trkpt><trkpt lat="45.64719101028303" lon="11.01896205384459"><ele>1066.0</ele><time>2026-04-22T07:58:46Z</time></trkpt><trkpt lat="45.64705911945706" lon="11.018901909681126"><ele>1066.0</ele><time>2026-04-22T07:58:47Z</time></trkpt><trkpt lat="45.64693190225392" lon="11.01884321680283"><ele>1066.0</ele><time>2026-04-22T07:58:48Z</time></trkpt><trkpt lat="45.646811651869186" lon="11.018790165588541"><ele>1066.0</ele><time>2026-04-22T07:58:49Z</time></trkpt><trkpt lat="45.646686727338825" lon="11.018741360862682"><ele>1066.0</ele><time>2026-04-22T07:58:50Z</time></trkpt><trkpt lat="45.64656324079015" lon="11.018699107542506"><ele>1066.0</ele><time>2026-04-22T07:58:51Z</time></trkpt><trkpt lat="45.64645078803581" lon="11.01865933036026"><ele>1066.0</ele><time>2026-04-22T07:58:52Z</time></trkpt><trkpt lat="45.64634435691015" lon="11.018620822488304"><ele>1066.0</ele><time>2026-04-22T07:58:53Z</time></trkpt><trkpt lat="45.64625109497887" lon="11.018599801997356"><ele>1066.0</ele><time>2026-04-22T07:58:54Z</time></trkpt><trkpt lat="45.64615552771378" lon="11.018599864098784"><ele>1065.0</ele><time>2026-04-22T07:58:55Z</time></trkpt><trkpt lat="45.64605728217126" lon="11.018635422754263"><ele>1064.0</ele><time>2026-04-22T07:58:56Z</time></trkpt><trkpt lat="45.645960442763595" lon="11.018713967028015"><ele>1063.0</ele><time>2026-04-22T07:58:57Z</time></trkpt><trkpt lat="45.645863467404794" lon="11.018826898687236"><ele>1062.0</ele><time>2026-04-22T07:58:58Z</time></trkpt><trkpt lat="45.645779276680365" lon="11.018966797336002"><ele>1062.0</ele><time>2026-04-22T07:58:59Z</time></trkpt><trkpt lat="45.64567575705629" lon="11.019067655373789"><ele>1062.0</ele><time>2026-04-22T07:59:00Z</time></trkpt><trkpt lat="45.64558335224334" lon="11.019163272057137"><ele>1062.0</ele><time>2026-04-22T07:59:01Z</time></trkpt><trkpt lat="45.645502313950615" lon="11.019241979215224"><ele>1062.0</ele><time>2026-04-22T07:59:02Z</time></trkpt><trkpt lat="45.645419789809914" lon="11.019335402190158"><ele>1062.0</ele><time>2026-04-22T07:59:03Z</time></trkpt><trkpt lat="45.645349764219574" lon="11.019448002775626"><ele>1066.2</ele><time>2026-04-22T07:59:04Z</time></trkpt><trkpt lat="45.64533173096352" lon="11.019585143731264"><ele>1070.4</ele><time>2026-04-22T07:59:05Z</time></trkpt><trkpt lat="45.64537256217819" lon="11.0197533551137"><ele>1074.6</ele><time>2026-04-22T07:59:06Z</time></trkpt><trkpt lat="45.645414739660175" lon="11.019908984294863"><ele>1078.8</ele><time>2026-04-22T07:59:07Z</time></trkpt><trkpt lat="45.64547223634036" lon="11.02004391008875"><ele>1083.0</ele><time>2026-04-22T07:59:08Z</time></trkpt><trkpt lat="45.645510832261195" lon="11.02019325569655"><ele>1081.4</ele><time>2026-04-22T07:59:09Z</time></trkpt><trkpt lat="45.64551286810677" lon="11.020340669430457"><ele>1079.8</ele><time>2026-04-22T07:59:10Z</time></trkpt><trkpt lat="45.64547890772296" lon="11.020490687759702"><ele>1078.2</ele><time>2026-04-22T07:59:11Z</time></trkpt><trkpt lat="45.64541702038996" lon="11.020624567892929"><ele>1076.6</ele><time>2026-04-22T07:59:12Z</time></trkpt><trkpt lat="45.645342848148374" lon="11.020743532718337"><ele>1075.0</ele><time>2026-04-22T07:59:13Z</time></trkpt><trkpt lat="45.64526418158395" lon="11.020848361346227"><ele>1075.0</ele><time>2026-04-22T07:59:14Z</time></trkpt><trkpt lat="45.64520925004148" lon="11.020961562990685"><ele>1075.0</ele><time>2026-04-22T07:59:15Z</time></trkpt><trkpt lat="45.645186210658146" lon="11.02109761343983"><ele>1075.0</ele><time>2026-04-22T07:59:16Z</time></trkpt><trkpt lat="45.64519078387801" lon="11.021243530718753"><ele>1075.0</ele><time>2026-04-22T07:59:17Z</time></trkpt><trkpt lat="45.645184199714095" lon="11.02138529395822"><ele>1075.0</ele><time>2026-04-22T07:59:18Z</time></trkpt><trkpt lat="45.64515318230894" lon="11.021523576173946"><ele>1076.2</ele><time>2026-04-22T07:59:19Z</time></trkpt><trkpt lat="45.64511755456514" lon="11.021660811974055"><ele>1077.4</ele><time>2026-04-22T07:59:20Z</time></trkpt><trkpt lat="45.64507899173532" lon="11.02178849232472"><ele>1078.6</ele><time>2026-04-22T07:59:21Z</time></trkpt><trkpt lat="45.64504638120863" lon="11.021921455328503"><ele>1079.8</ele><time>2026-04-22T07:59:22Z</time></trkpt><trkpt lat="45.645021956096606" lon="11.02205488814505"><ele>1081.0</ele><time>2026-04-22T07:59:23Z</time></trkpt><trkpt lat="45.645033149741295" lon="11.022194765390525"><ele>1081.0</ele><time>2026-04-22T07:59:24Z</time></trkpt><trkpt lat="45.645049174256584" lon="11.02233508324435"><ele>1081.0</ele><time>2026-04-22T07:59:24.999Z</time></trkpt><trkpt lat="45.64508209549535" lon="11.022456822478768"><ele>1081.0</ele><time>2026-04-22T07:59:25.999Z</time></trkpt><trkpt lat="45.645116166041475" lon="11.022592858360307"><ele>1081.0</ele><time>2026-04-22T07:59:26.999Z</time></trkpt><trkpt lat="45.645165678323266" lon="11.022714590776355"><ele>1081.0</ele><time>2026-04-22T07:59:27.999Z</time></trkpt><trkpt lat="45.64523656144231" lon="11.022818150644126"><ele>1086.8</ele><time>2026-04-22T07:59:28.999Z</time></trkpt><trkpt lat="45.64530848638971" lon="11.022919474999266"><ele>1092.6</ele><time>2026-04-22T07:59:29.999Z</time></trkpt><trkpt lat="45.645381526760744" lon="11.023024435782188"><ele>1098.4</ele><time>2026-04-22T07:59:30.999Z</time></trkpt><trkpt lat="45.645449749462195" lon="11.02312908102433"><ele>1104.2</ele><time>2026-04-22T07:59:31.999Z</time></trkpt><trkpt lat="45.64551320420589" lon="11.023233254704538"><ele>1110.0</ele><time>2026-04-22T07:59:32.999Z</time></trkpt><trkpt lat="45.64556716184926" lon="11.023319978593518"><ele>1110.0</ele><time>2026-04-22T07:59:33.999Z</time></trkpt><trkpt lat="45.64561597291451" lon="11.023413325147942"><ele>1110.0</ele><time>2026-04-22T07:59:34.999Z</time></trkpt><trkpt lat="45.64564270104812" lon="11.023532707646062"><ele>1110.0</ele><time>2026-04-22T07:59:35.999Z</time></trkpt><trkpt lat="45.64563655987609" lon="11.02365869506834"><ele>1110.0</ele><time>2026-04-22T07:59:36.999Z</time></trkpt><trkpt lat="45.64559381847928" lon="11.023766964415428"><ele>1110.0</ele><time>2026-04-22T07:59:37.999Z</time></trkpt><trkpt lat="45.64552558766" lon="11.02385768429216"><ele>1110.0</ele><time>2026-04-22T07:59:38.999Z</time></trkpt><trkpt lat="45.64544779568434" lon="11.02393411882483"><ele>1110.0</ele><time>2026-04-22T07:59:39.999Z</time></trkpt><trkpt lat="45.645368303698945" lon="11.024012971836262"><ele>1110.0</ele><time>2026-04-22T07:59:41Z</time></trkpt><trkpt lat="45.645291191954264" lon="11.02410274699933"><ele>1110.0</ele><time>2026-04-22T07:59:42Z</time></trkpt><trkpt lat="45.645208632103824" lon="11.024193035174681"><ele>1110.0</ele><time>2026-04-22T07:59:43Z</time></trkpt><trkpt lat="45.64512190190394" lon="11.024271238963161"><ele>1110.0</ele><time>2026-04-22T07:59:44Z</time></trkpt><trkpt lat="45.64503365868547" lon="11.024341055470076"><ele>1106.6</ele><time>2026-04-22T07:59:45Z</time></trkpt><trkpt lat="45.64495528575274" lon="11.024394937000505"><ele>1103.2</ele><time>2026-04-22T07:59:46Z</time></trkpt><trkpt lat="45.64486914553331" lon="11.024419243784763"><ele>1099.8</ele><time>2026-04-22T07:59:47Z</time></trkpt><trkpt lat="45.64476760068155" lon="11.024412790357442"><ele>1096.4</ele><time>2026-04-22T07:59:48Z</time></trkpt><trkpt lat="45.64466166490903" lon="11.024392413450519"><ele>1093.0</ele><time>2026-04-22T07:59:49Z</time></trkpt><trkpt lat="45.64456363209226" lon="11.024372576750407"><ele>1093.0</ele><time>2026-04-22T07:59:50Z</time></trkpt><trkpt lat="45.644475315232775" lon="11.024358164746387"><ele>1093.0</ele><time>2026-04-22T07:59:51Z</time></trkpt><trkpt lat="45.644393591283745" lon="11.02435027948558"><ele>1093.0</ele><time>2026-04-22T07:59:52Z</time></trkpt><trkpt lat="45.64431170210544" lon="11.024378912249405"><ele>1093.0</ele><time>2026-04-22T07:59:53Z</time></trkpt><trkpt lat="45.644226707192516" lon="11.024445111426292"><ele>1093.0</ele><time>2026-04-22T07:59:54Z</time></trkpt><trkpt lat="45.64414016690376" lon="11.024532003406527"><ele>1094.0</ele><time>2026-04-22T07:59:55Z</time></trkpt><trkpt lat="45.6440527865677" lon="11.024622856483173"><ele>1095.0</ele><time>2026-04-22T07:59:56Z</time></trkpt><trkpt lat="45.64395583326865" lon="11.024714766401114"><ele>1096.0</ele><time>2026-04-22T07:59:57Z</time></trkpt><trkpt lat="45.643864633628326" lon="11.024803236543061"><ele>1097.0</ele><time>2026-04-22T07:59:58Z</time></trkpt><trkpt lat="45.643774336059124" lon="11.024891973064745"><ele>1098.0</ele><time>2026-04-22T07:59:59Z</time></trkpt><trkpt lat="45.64367839090421" lon="11.024984131572912"><ele>1096.5</ele><time>2026-04-22T08:00:00Z</time></trkpt><trkpt lat="45.64357903627081" lon="11.025075281427204"><ele>1095.0</ele><time>2026-04-22T08:00:01Z</time></trkpt><trkpt lat="45.64347679868863" lon="11.025172195278184"><ele>1093.5</ele><time>2026-04-22T08:00:02Z</time></trkpt><trkpt lat="45.64337648978209" lon="11.025269864787605"><ele>1092.0</ele><time>2026-04-22T08:00:03Z</time></trkpt><trkpt lat="45.643272024878414" lon="11.025363645547806"><ele>1092.0</ele><time>2026-04-22T08:00:04Z</time></trkpt><trkpt lat="45.64316381847333" lon="11.025457834806"><ele>1092.0</ele><time>2026-04-22T08:00:05Z</time></trkpt><trkpt lat="45.64305153851327" lon="11.025562028343211"><ele>1092.0</ele><time>2026-04-22T08:00:06Z</time></trkpt><trkpt lat="45.64293778615927" lon="11.025685885857548"><ele>1092.0</ele><time>2026-04-22T08:00:07Z</time></trkpt><trkpt lat="45.64283346280375" lon="11.025830903295278"><ele>1092.25</ele><time>2026-04-22T08:00:08Z</time></trkpt><trkpt lat="45.64274139597078" lon="11.025978704243155"><ele>1092.5</ele><time>2026-04-22T08:00:09Z</time></trkpt><trkpt lat="45.64264998667405" lon="11.026113229599845"><ele>1092.75</ele><time>2026-04-22T08:00:10Z</time></trkpt><trkpt lat="45.64253859821844" lon="11.026221968692605"><ele>1093.0</ele><time>2026-04-22T08:00:11Z</time></trkpt><trkpt lat="45.6424112257411" lon="11.026303268579351"><ele>1093.0</ele><time>2026-04-22T08:00:12Z</time></trkpt><trkpt lat="45.64227051924715" lon="11.026359902339195"><ele>1093.0</ele><time>2026-04-22T08:00:13Z</time></trkpt><trkpt lat="45.64213610465438" lon="11.026406162092927"><ele>1093.0</ele><time>2026-04-22T08:00:14Z</time></trkpt><trkpt lat="45.64200527895678" lon="11.026468205590058"><ele>1093.0</ele><time>2026-04-22T08:00:15Z</time></trkpt><trkpt lat="45.6418780013436" lon="11.026535613748054"><ele>1095.0</ele><time>2026-04-22T08:00:16Z</time></trkpt><trkpt lat="45.64175471507798" lon="11.02660504192582"><ele>1097.0</ele><time>2026-04-22T08:00:17Z</time></trkpt><trkpt lat="45.6416332795897" lon="11.02667134119135"><ele>1099.0</ele><time>2026-04-22T08:00:18Z</time></trkpt><trkpt lat="45.64151845257902" lon="11.026738745026158"><ele>1101.0</ele><time>2026-04-22T08:00:19Z</time></trkpt><trkpt lat="45.64141625318997" lon="11.026807852289489"><ele>1101.0</ele><time>2026-04-22T08:00:20Z</time></trkpt><trkpt lat="45.641319888725874" lon="11.02689776466312"><ele>1101.0</ele><time>2026-04-22T08:00:21Z</time></trkpt><trkpt lat="45.641236343962916" lon="11.027019957208713"><ele>1101.0</ele><time>2026-04-22T08:00:22Z</time></trkpt><trkpt lat="45.641167271883226" lon="11.027162451666156"><ele>1101.0</ele><time>2026-04-22T08:00:23Z</time></trkpt><trkpt lat="45.6411100009659" lon="11.027315566975647"><ele>1100.25</ele><time>2026-04-22T08:00:24Z</time></trkpt><trkpt lat="45.64105115684614" lon="11.027465872549378"><ele>1099.5</ele><time>2026-04-22T08:00:25Z</time></trkpt><trkpt lat="45.64099165115724" lon="11.02761408895728"><ele>1098.75</ele><time>2026-04-22T08:00:26Z</time></trkpt><trkpt lat="45.64092859464544" lon="11.02776331569984"><ele>1098.0</ele><time>2026-04-22T08:00:27Z</time></trkpt><trkpt lat="45.640863379739045" lon="11.027916746671458"><ele>1100.25</ele><time>2026-04-22T08:00:28Z</time></trkpt><trkpt lat="45.640793541258546" lon="11.02807896273186"><ele>1102.5</ele><time>2026-04-22T08:00:29Z</time></trkpt><trkpt lat="45.64073013238108" lon="11.0282474792839"><ele>1104.75</ele><time>2026-04-22T08:00:30Z</time></trkpt><trkpt lat="45.64066409124039" lon="11.028418615837586"><ele>1107.0</ele><time>2026-04-22T08:00:31Z</time></trkpt><trkpt lat="45.64060759421024" lon="11.028593780528166"><ele>1111.5</ele><time>2026-04-22T08:00:32Z</time></trkpt><trkpt lat="45.64054955927537" lon="11.028760591316832"><ele>1116.0</ele><time>2026-04-22T08:00:33Z</time></trkpt><trkpt lat="45.64049738923153" lon="11.028931332871355"><ele>1120.5</ele><time>2026-04-22T08:00:34Z</time></trkpt><trkpt lat="45.64045757937897" lon="11.029106487946214"><ele>1125.0</ele><time>2026-04-22T08:00:35Z</time></trkpt><trkpt lat="45.64043167194378" lon="11.029286946773778"><ele>1129.0</ele><time>2026-04-22T08:00:36Z</time></trkpt><trkpt lat="45.64041407867374" lon="11.029467053792679"><ele>1133.0</ele><time>2026-04-22T08:00:37Z</time></trkpt><trkpt lat="45.64039936658104" lon="11.029651170772897"><ele>1137.0</ele><time>2026-04-22T08:00:38Z</time></trkpt><trkpt lat="45.64038321553662" lon="11.029839350458083"><ele>1141.0</ele><time>2026-04-22T08:00:39Z</time></trkpt><trkpt lat="45.64037041908057" lon="11.030031683376189"><ele>1143.75</ele><time>2026-04-22T08:00:40Z</time></trkpt><trkpt lat="45.64036040942693" lon="11.030220228438713"><ele>1146.5</ele><time>2026-04-22T08:00:41Z</time></trkpt><trkpt lat="45.64034283002631" lon="11.030389207398104"><ele>1149.25</ele><time>2026-04-22T08:00:42Z</time></trkpt><trkpt lat="45.64033354634158" lon="11.030535839932654"><ele>1152.0</ele><time>2026-04-22T08:00:43Z</time></trkpt><trkpt lat="45.64031368824982" lon="11.030675879325393"><ele>1146.8</ele><time>2026-04-22T08:00:44Z</time></trkpt><trkpt lat="45.640281011121296" lon="11.030819524790813"><ele>1141.6</ele><time>2026-04-22T08:00:45Z</time></trkpt><trkpt lat="45.64022748512576" lon="11.030952700204113"><ele>1136.3999999999999</ele><time>2026-04-22T08:00:46Z</time></trkpt><trkpt lat="45.640157900348" lon="11.031068066245487"><ele>1131.2</ele><time>2026-04-22T08:00:47Z</time></trkpt><trkpt lat="45.640072332030456" lon="11.031155902087342"><ele>1126.0</ele><time>2026-04-22T08:00:48Z</time></trkpt><trkpt lat="45.63997778143961" lon="11.031221336357435"><ele>1126.0</ele><time>2026-04-22T08:00:49Z</time></trkpt><trkpt lat="45.63988134698868" lon="11.031277161040212"><ele>1126.0</ele><time>2026-04-22T08:00:50Z</time></trkpt><trkpt lat="45.639777843537814" lon="11.031309369002429"><ele>1126.0</ele><time>2026-04-22T08:00:51Z</time></trkpt><trkpt lat="45.639671796278435" lon="11.031335172107665"><ele>1126.0</ele><time>2026-04-22T08:00:52Z</time></trkpt><trkpt lat="45.63957053752529" lon="11.031351872285544"><ele>1126.0</ele><time>2026-04-22T08:00:53Z</time></trkpt><trkpt lat="45.63947251306307" lon="11.03137059596051"><ele>1128.6</ele><time>2026-04-22T08:00:54Z</time></trkpt><trkpt lat="45.639365054362266" lon="11.03137619784905"><ele>1131.1999999999998</ele><time>2026-04-22T08:00:55Z</time></trkpt><trkpt lat="45.63926969789768" lon="11.031349539434506"><ele>1133.8000000000002</ele><time>2026-04-22T08:00:56Z</time></trkpt><trkpt lat="45.63918417975946" lon="11.031305025590303"><ele>1136.4</ele><time>2026-04-22T08:00:57Z</time></trkpt><trkpt lat="45.639105092510874" lon="11.031223968931563"><ele>1139.0</ele><time>2026-04-22T08:00:58Z</time></trkpt><trkpt lat="45.63903663644634" lon="11.031138780870895"><ele>1139.0</ele><time>2026-04-22T08:00:59Z</time></trkpt><trkpt lat="45.63896948935474" lon="11.031029107861517"><ele>1139.0</ele><time>2026-04-22T08:01:00Z</time></trkpt><trkpt lat="45.63891788327225" lon="11.030941237364155"><ele>1139.0</ele><time>2026-04-22T08:01:01Z</time></trkpt><trkpt lat="45.638876767737685" lon="11.030842949803734"><ele>1139.0</ele><time>2026-04-22T08:01:02Z</time></trkpt><trkpt lat="45.63882104365355" lon="11.030754817578668"><ele>1139.0</ele><time>2026-04-22T08:01:03Z</time></trkpt><trkpt lat="45.63877148263585" lon="11.030676040105446"><ele>1139.0</ele><time>2026-04-22T08:01:04Z</time></trkpt><trkpt lat="45.63870333934282" lon="11.03062939294805"><ele>1140.1666666666667</ele><time>2026-04-22T08:01:05Z</time></trkpt><trkpt lat="45.63865587404865" lon="11.03056845268186"><ele>1141.3333333333335</ele><time>2026-04-22T08:01:06Z</time></trkpt><trkpt lat="45.63857022369294" lon="11.030623355672523"><ele>1142.5</ele><time>2026-04-22T08:01:07Z</time></trkpt><trkpt lat="45.638496402828" lon="11.030673647067658"><ele>1143.6666666666667</ele><time>2026-04-22T08:01:08Z</time></trkpt><trkpt lat="45.638421848440416" lon="11.030725411902457"><ele>1144.8333333333333</ele><time>2026-04-22T08:01:09Z</time></trkpt><trkpt lat="45.63834319703377" lon="11.03076989326313"><ele>1146.0</ele><time>2026-04-22T08:01:10Z</time></trkpt><trkpt lat="45.63825470637978" lon="11.030822922349893"><ele>1146.0</ele><time>2026-04-22T08:01:11Z</time></trkpt><trkpt lat="45.63815471757401" lon="11.030885994028347"><ele>1146.0</ele><time>2026-04-22T08:01:12Z</time></trkpt><trkpt lat="45.638051229177684" lon="11.030954223100473"><ele>1146.0</ele><time>2026-04-22T08:01:13Z</time></trkpt><trkpt lat="45.63794603117981" lon="11.031023636593961"><ele>1146.0</ele><time>2026-04-22T08:01:14Z</time></trkpt><trkpt lat="45.63784030262755" lon="11.031086309551704"><ele>1145.25</ele><time>2026-04-22T08:01:15Z</time></trkpt><trkpt lat="45.63771985979558" lon="11.03115617139477"><ele>1144.5</ele><time>2026-04-22T08:01:16Z</time></trkpt><trkpt lat="45.6375955386848" lon="11.03121746661437"><ele>1143.75</ele><time>2026-04-22T08:01:17Z</time></trkpt><trkpt lat="45.637476806259784" lon="11.031271662199941"><ele>1143.0</ele><time>2026-04-22T08:01:18Z</time></trkpt><trkpt lat="45.63736017332875" lon="11.031324940276685"><ele>1143.0</ele><time>2026-04-22T08:01:19Z</time></trkpt><trkpt lat="45.637235964352435" lon="11.03137047550108"><ele>1143.0</ele><time>2026-04-22T08:01:20Z</time></trkpt><trkpt lat="45.63710917216421" lon="11.031404586290751"><ele>1143.0</ele><time>2026-04-22T08:01:21Z</time></trkpt><trkpt lat="45.63699004466793" lon="11.031430239722267"><ele>1143.0</ele><time>2026-04-22T08:01:22Z</time></trkpt><trkpt lat="45.63687916025939" lon="11.031456891781419"><ele>1140.0</ele><time>2026-04-22T08:01:23Z</time></trkpt><trkpt lat="45.63677770439525" lon="11.031476529056617"><ele>1137.0</ele><time>2026-04-22T08:01:24Z</time></trkpt><trkpt lat="45.63666408208938" lon="11.03147390467333"><ele>1134.0</ele><time>2026-04-22T08:01:25Z</time></trkpt><trkpt lat="45.636549213333105" lon="11.031463533209585"><ele>1131.0</ele><time>2026-04-22T08:01:26Z</time></trkpt><trkpt lat="45.63643167147174" lon="11.031433433866992"><ele>1131.0</ele><time>2026-04-22T08:01:27Z</time></trkpt><trkpt lat="45.63631715939275" lon="11.031388293869739"><ele>1131.0</ele><time>2026-04-22T08:01:28Z</time></trkpt><trkpt lat="45.636207629687476" lon="11.031347188608219"><ele>1131.0</ele><time>2026-04-22T08:01:28.999Z</time></trkpt><trkpt lat="45.63610066370805" lon="11.031309325215181"><ele>1131.0</ele><time>2026-04-22T08:01:29.999Z</time></trkpt><trkpt lat="45.63599978416195" lon="11.031284378586463"><ele>1131.0</ele><time>2026-04-22T08:01:30.999Z</time></trkpt><trkpt lat="45.635906167107635" lon="11.03124933424199"><ele>1130.2</ele><time>2026-04-22T08:01:31.999Z</time></trkpt><trkpt lat="45.63579969443622" lon="11.031232647547464"><ele>1129.3999999999999</ele><time>2026-04-22T08:01:32.999Z</time></trkpt><trkpt lat="45.63569538694008" lon="11.031244727883225"><ele>1128.6</ele><time>2026-04-22T08:01:33.999Z</time></trkpt><trkpt lat="45.635598592173324" lon="11.031274295019184"><ele>1127.8</ele><time>2026-04-22T08:01:34.999Z</time></trkpt><trkpt lat="45.63551076625606" lon="11.03134346846026"><ele>1127.0</ele><time>2026-04-22T08:01:35.999Z</time></trkpt><trkpt lat="45.635428013068214" lon="11.031414616533995"><ele>1127.0</ele><time>2026-04-22T08:01:36.999Z</time></trkpt><trkpt lat="45.63534815658169" lon="11.03148632025275"><ele>1127.0</ele><time>2026-04-22T08:01:37.999Z</time></trkpt><trkpt lat="45.63529092010907" lon="11.031559593665994"><ele>1127.0</ele><time>2026-04-22T08:01:38.999Z</time></trkpt><trkpt lat="45.6352396123385" lon="11.031666758383917"><ele>1127.0</ele><time>2026-04-22T08:01:39.999Z</time></trkpt><trkpt lat="45.63522062704113" lon="11.03178160188306"><ele>1127.0</ele><time>2026-04-22T08:01:40.999Z</time></trkpt><trkpt lat="45.63522350864489" lon="11.031903910053384"><ele>1127.0</ele><time>2026-04-22T08:01:41.999Z</time></trkpt><trkpt lat="45.635289593684625" lon="11.032042225713035"><ele>1130.2</ele><time>2026-04-22T08:01:42.999Z</time></trkpt><trkpt lat="45.635382439766595" lon="11.03214731347782"><ele>1133.4</ele><time>2026-04-22T08:01:43.999Z</time></trkpt><trkpt lat="45.63546947338358" lon="11.032260062469044"><ele>1136.6</ele><time>2026-04-22T08:01:44.999Z</time></trkpt><trkpt lat="45.635551578277166" lon="11.032351056798662"><ele>1139.8</ele><time>2026-04-22T08:01:45.999Z</time></trkpt><trkpt lat="45.635630235827435" lon="11.032420307482546"><ele>1143.0</ele><time>2026-04-22T08:01:47Z</time></trkpt><trkpt lat="45.635699260299965" lon="11.03249543324034"><ele>1143.0</ele><time>2026-04-22T08:01:48Z</time></trkpt><trkpt lat="45.635752310461626" lon="11.032588985045866"><ele>1143.0</ele><time>2026-04-22T08:01:49Z</time></trkpt><trkpt lat="45.63579984106467" lon="11.032699103085376"><ele>1143.0</ele><time>2026-04-22T08:01:50Z</time></trkpt><trkpt lat="45.635835055569146" lon="11.032820366829624"><ele>1143.0</ele><time>2026-04-22T08:01:51Z</time></trkpt><trkpt lat="45.63582585457252" lon="11.032942111678802"><ele>1143.0</ele><time>2026-04-22T08:01:52Z</time></trkpt><trkpt lat="45.635825804665764" lon="11.033047450017342"><ele>1143.0</ele><time>2026-04-22T08:01:53Z</time></trkpt><trkpt lat="45.6358218019449" lon="11.033154734641267"><ele>1143.0</ele><time>2026-04-22T08:01:54Z</time></trkpt><trkpt lat="45.63576854528184" lon="11.033237514018953"><ele>1143.0</ele><time>2026-04-22T08:01:55Z</time></trkpt><trkpt lat="45.635695640067844" lon="11.03326838520105"><ele>1143.0</ele><time>2026-04-22T08:01:56Z</time></trkpt><trkpt lat="45.635614069052465" lon="11.033258965957987"><ele>1143.0</ele><time>2026-04-22T08:01:57Z</time></trkpt><trkpt lat="45.635524452559125" lon="11.033218331763234"><ele>1143.0</ele><time>2026-04-22T08:01:58Z</time></trkpt><trkpt lat="45.6354183429939" lon="11.033181831720286"><ele>1143.0</ele><time>2026-04-22T08:01:59Z</time></trkpt><trkpt lat="45.6353004112374" lon="11.033145545300666"><ele>1138.0</ele><time>2026-04-22T08:02:00Z</time></trkpt><trkpt lat="45.63517680464913" lon="11.033102037963527"><ele>1133.0</ele><time>2026-04-22T08:02:01Z</time></trkpt><trkpt lat="45.635057431176705" lon="11.033053921310591"><ele>1128.0</ele><time>2026-04-22T08:02:02Z</time></trkpt><trkpt lat="45.6349514233101" lon="11.033016793922231"><ele>1123.0</ele><time>2026-04-22T08:02:03Z</time></trkpt><trkpt lat="45.63485295260222" lon="11.032979079772202"><ele>1123.0</ele><time>2026-04-22T08:02:04Z</time></trkpt><trkpt lat="45.63475700872635" lon="11.032962455198087"><ele>1123.0</ele><time>2026-04-22T08:02:05Z</time></trkpt><trkpt lat="45.63465563778233" lon="11.032971700509144"><ele>1123.0</ele><time>2026-04-22T08:02:06Z</time></trkpt><trkpt lat="45.63455750026824" lon="11.033005045813253"><ele>1123.0</ele><time>2026-04-22T08:02:07Z</time></trkpt><trkpt lat="45.6344612643626" lon="11.03304310947572"><ele>1123.0</ele><time>2026-04-22T08:02:08Z</time></trkpt><trkpt lat="45.63435961976765" lon="11.033048976029361"><ele>1121.2</ele><time>2026-04-22T08:02:09Z</time></trkpt><trkpt lat="45.63424956914225" lon="11.033010951589489"><ele>1119.4</ele><time>2026-04-22T08:02:10Z</time></trkpt><trkpt lat="45.6341486541604" lon="11.032932299028422"><ele>1117.6000000000001</ele><time>2026-04-22T08:02:11Z</time></trkpt><trkpt lat="45.634054494962754" lon="11.032857215635042"><ele>1115.8</ele><time>2026-04-22T08:02:12Z</time></trkpt><trkpt lat="45.63395987100566" lon="11.032795188798877"><ele>1114.0</ele><time>2026-04-22T08:02:13Z</time></trkpt><trkpt lat="45.633862453000326" lon="11.03275857727894"><ele>1114.0</ele><time>2026-04-22T08:02:14Z</time></trkpt><trkpt lat="45.63376403072737" lon="11.032752936303556"><ele>1114.0</ele><time>2026-04-22T08:02:15Z</time></trkpt><trkpt lat="45.633665084309726" lon="11.03277611015528"><ele>1114.0</ele><time>2026-04-22T08:02:16Z</time></trkpt><trkpt lat="45.63357416601765" lon="11.032816979201005"><ele>1114.0</ele><time>2026-04-22T08:02:17Z</time></trkpt><trkpt lat="45.63348775833795" lon="11.032847085420885"><ele>1114.0</ele><time>2026-04-22T08:02:18Z</time></trkpt><trkpt lat="45.63340317250297" lon="11.032865997483157"><ele>1115.0</ele><time>2026-04-22T08:02:19Z</time></trkpt><trkpt lat="45.63332183758301" lon="11.032856862214688"><ele>1116.0</ele><time>2026-04-22T08:02:20Z</time></trkpt><trkpt lat="45.63324687520985" lon="11.032805690075575"><ele>1117.0</ele><time>2026-04-22T08:02:21Z</time></trkpt><trkpt lat="45.63318371673454" lon="11.032718100561388"><ele>1118.0</ele><time>2026-04-22T08:02:22Z</time></trkpt><trkpt lat="45.63315594882491" lon="11.032593648027019"><ele>1119.0</ele><time>2026-04-22T08:02:23Z</time></trkpt><trkpt lat="45.63315735270205" lon="11.032473415500014"><ele>1120.0</ele><time>2026-04-22T08:02:24Z</time></trkpt><trkpt lat="45.63317226158249" lon="11.032360526034473"><ele>1120.6</ele><time>2026-04-22T08:02:25Z</time></trkpt><trkpt lat="45.63319229964208" lon="11.03224203135092"><ele>1121.2</ele><time>2026-04-22T08:02:26Z</time></trkpt><trkpt lat="45.63322214787747" lon="11.032118355686295"><ele>1121.8</ele><time>2026-04-22T08:02:27Z</time></trkpt><trkpt lat="45.63325241901924" lon="11.031992356651507"><ele>1122.4</ele><time>2026-04-22T08:02:28Z</time></trkpt><trkpt lat="45.63328248954484" lon="11.031862449972037"><ele>1123.0</ele><time>2026-04-22T08:02:29Z</time></trkpt><trkpt lat="45.633315292606724" lon="11.031727150177575"><ele>1120.8</ele><time>2026-04-22T08:02:30Z</time></trkpt><trkpt lat="45.633343210213255" lon="11.031590423625456"><ele>1118.6</ele><time>2026-04-22T08:02:31Z</time></trkpt><trkpt lat="45.63338517796001" lon="11.031453709541672"><ele>1116.4</ele><time>2026-04-22T08:02:32Z</time></trkpt><trkpt lat="45.6333967939149" lon="11.031325489577105"><ele>1114.2</ele><time>2026-04-22T08:02:33Z</time></trkpt><trkpt lat="45.63342122182376" lon="11.03120848969445"><ele>1112.0</ele><time>2026-04-22T08:02:34Z</time></trkpt><trkpt lat="45.633424623062446" lon="11.03108665432794"><ele>1112.0</ele><time>2026-04-22T08:02:35Z</time></trkpt><trkpt lat="45.63340940707285" lon="11.03097287993203"><ele>1112.0</ele><time>2026-04-22T08:02:36Z</time></trkpt><trkpt lat="45.63337872367439" lon="11.030870142893225"><ele>1112.0</ele><time>2026-04-22T08:02:37Z</time></trkpt><trkpt lat="45.6333359296907" lon="11.03079057028161"><ele>1112.0</ele><time>2026-04-22T08:02:38Z</time></trkpt><trkpt lat="45.63327352239831" lon="11.030717660346202"><ele>1112.0</ele><time>2026-04-22T08:02:39Z</time></trkpt><trkpt lat="45.63319259065734" lon="11.030666475289252"><ele>1112.0</ele><time>2026-04-22T08:02:40Z</time></trkpt><trkpt lat="45.63311115841733" lon="11.030635026159791"><ele>1110.2</ele><time>2026-04-22T08:02:41Z</time></trkpt><trkpt lat="45.63301977471046" lon="11.030606303627895"><ele>1108.4</ele><time>2026-04-22T08:02:42Z</time></trkpt><trkpt lat="45.632927490823" lon="11.030581137295888"><ele>1106.6</ele><time>2026-04-22T08:02:43Z</time></trkpt><trkpt lat="45.63283488863158" lon="11.030547975830592"><ele>1104.8</ele><time>2026-04-22T08:02:44Z</time></trkpt><trkpt lat="45.63273693923529" lon="11.030511395892596"><ele>1103.0</ele><time>2026-04-22T08:02:45Z</time></trkpt><trkpt lat="45.6326302608414" lon="11.030484157362139"><ele>1103.0</ele><time>2026-04-22T08:02:46Z</time></trkpt><trkpt lat="45.63252074196113" lon="11.030461184069175"><ele>1103.0</ele><time>2026-04-22T08:02:47Z</time></trkpt><trkpt lat="45.63240938507005" lon="11.030442557069184"><ele>1103.0</ele><time>2026-04-22T08:02:48Z</time></trkpt><trkpt lat="45.63230174091565" lon="11.030428812311026"><ele>1103.0</ele><time>2026-04-22T08:02:49Z</time></trkpt><trkpt lat="45.632191202000406" lon="11.030424099809581"><ele>1103.0</ele><time>2026-04-22T08:02:50Z</time></trkpt><trkpt lat="45.63207562666748" lon="11.03042312341016"><ele>1104.2</ele><time>2026-04-22T08:02:51Z</time></trkpt><trkpt lat="45.63196178150722" lon="11.03039057408336"><ele>1105.4</ele><time>2026-04-22T08:02:52Z</time></trkpt><trkpt lat="45.631855151952365" lon="11.030333408162004"><ele>1106.6000000000001</ele><time>2026-04-22T08:02:53Z</time></trkpt><trkpt lat="45.63175881174265" lon="11.030261270248285"><ele>1107.8</ele><time>2026-04-22T08:02:54Z</time></trkpt><trkpt lat="45.63167232032454" lon="11.030179088853494"><ele>1109.0</ele><time>2026-04-22T08:02:55Z</time></trkpt><trkpt lat="45.63159565557519" lon="11.030093687253945"><ele>1109.0</ele><time>2026-04-22T08:02:56Z</time></trkpt><trkpt lat="45.63152230995711" lon="11.03001178690184"><ele>1109.0</ele><time>2026-04-22T08:02:57Z</time></trkpt><trkpt lat="45.63145499375443" lon="11.029945397810604"><ele>1109.0</ele><time>2026-04-22T08:02:58Z</time></trkpt><trkpt lat="45.631379769296494" lon="11.029885627131263"><ele>1109.0</ele><time>2026-04-22T08:02:59Z</time></trkpt><trkpt lat="45.63129822779973" lon="11.029842767704906"><ele>1109.0</ele><time>2026-04-22T08:03:00Z</time></trkpt><trkpt lat="45.63121094240553" lon="11.029817837298216"><ele>1109.0</ele><time>2026-04-22T08:03:01Z</time></trkpt><trkpt lat="45.63112980756505" lon="11.029828643834792"><ele>1108.6666666666667</ele><time>2026-04-22T08:03:02Z</time></trkpt><trkpt lat="45.63105630871569" lon="11.029868174550106"><ele>1108.3333333333335</ele><time>2026-04-22T08:03:03Z</time></trkpt><trkpt lat="45.63099009482982" lon="11.029945039716653"><ele>1108.0</ele><time>2026-04-22T08:03:04Z</time></trkpt><trkpt lat="45.630937073988385" lon="11.030046185614951"><ele>1107.6666666666667</ele><time>2026-04-22T08:03:05Z</time></trkpt><trkpt lat="45.630893616071994" lon="11.030162247027192"><ele>1107.3333333333333</ele><time>2026-04-22T08:03:06Z</time></trkpt><trkpt lat="45.63084752520942" lon="11.030280104245048"><ele>1107.0</ele><time>2026-04-22T08:03:07Z</time></trkpt><trkpt lat="45.63079692968788" lon="11.030392327049752"><ele>1107.0</ele><time>2026-04-22T08:03:08Z</time></trkpt><trkpt lat="45.63073519600837" lon="11.030494815846787"><ele>1107.0</ele><time>2026-04-22T08:03:09Z</time></trkpt><trkpt lat="45.63066130689804" lon="11.030585436003078"><ele>1107.0</ele><time>2026-04-22T08:03:10Z</time></trkpt><trkpt lat="45.63058102758632" lon="11.030656982061766"><ele>1107.0</ele><time>2026-04-22T08:03:11Z</time></trkpt><trkpt lat="45.630495903488125" lon="11.030719154022147"><ele>1107.0</ele><time>2026-04-22T08:03:12Z</time></trkpt><trkpt lat="45.630410310875234" lon="11.030783962485945"><ele>1107.0</ele><time>2026-04-22T08:03:13Z</time></trkpt><trkpt lat="45.6303270842617" lon="11.030843781314644"><ele>1107.0</ele><time>2026-04-22T08:03:14Z</time></trkpt><trkpt lat="45.630239867014005" lon="11.030889255668352"><ele>1107.0</ele><time>2026-04-22T08:03:15Z</time></trkpt><trkpt lat="45.63015044276497" lon="11.030920506851665"><ele>1107.0</ele><time>2026-04-22T08:03:15.999Z</time></trkpt><trkpt lat="45.63005967793785" lon="11.030949246593758"><ele>1107.0</ele><time>2026-04-22T08:03:16.999Z</time></trkpt><trkpt lat="45.62997847106207" lon="11.03097578515286"><ele>1107.0</ele><time>2026-04-22T08:03:17.999Z</time></trkpt><trkpt lat="45.62991139064844" lon="11.031023936442265"><ele>1107.0</ele><time>2026-04-22T08:03:18.999Z</time></trkpt><trkpt lat="45.629850513105474" lon="11.031106944089391"><ele>1107.0</ele><time>2026-04-22T08:03:19.999Z</time></trkpt><trkpt lat="45.62980493371123" lon="11.031213945561117"><ele>1107.0</ele><time>2026-04-22T08:03:20.999Z</time></trkpt><trkpt lat="45.62977598060058" lon="11.031333728096945"><ele>1107.0</ele><time>2026-04-22T08:03:21.999Z</time></trkpt><trkpt lat="45.62975188912126" lon="11.031454943025329"><ele>1107.0</ele><time>2026-04-22T08:03:22.999Z</time></trkpt><trkpt lat="45.62972837321371" lon="11.031581900219702"><ele>1106.5</ele><time>2026-04-22T08:03:23.999Z</time></trkpt><trkpt lat="45.62969715935521" lon="11.031704311106127"><ele>1106.0</ele><time>2026-04-22T08:03:24.999Z</time></trkpt><trkpt lat="45.629652013801426" lon="11.031801969482393"><ele>1105.5</ele><time>2026-04-22T08:03:25.999Z</time></trkpt><trkpt lat="45.6295982218173" lon="11.031888342414486"><ele>1105.0</ele><time>2026-04-22T08:03:26.999Z</time></trkpt><trkpt lat="45.62953051333892" lon="11.03195585843518"><ele>1104.5</ele><time>2026-04-22T08:03:27.999Z</time></trkpt><trkpt lat="45.62946153998844" lon="11.031998907467885"><ele>1104.0</ele><time>2026-04-22T08:03:28.999Z</time></trkpt><trkpt lat="45.62939124894431" lon="11.032016283814912"><ele>1104.0</ele><time>2026-04-22T08:03:29.999Z</time></trkpt><trkpt lat="45.629326102547964" lon="11.032010996120333"><ele>1104.0</ele><time>2026-04-22T08:03:30.999Z</time></trkpt><trkpt lat="45.62925745311413" lon="11.031993011809954"><ele>1104.0</ele><time>2026-04-22T08:03:31.999Z</time></trkpt><trkpt lat="45.62918690598703" lon="11.031967250068648"><ele>1104.0</ele><time>2026-04-22T08:03:32.999Z</time></trkpt><trkpt lat="45.62911957384354" lon="11.031941311400574"><ele>1104.0</ele><time>2026-04-22T08:03:33.999Z</time></trkpt><trkpt lat="45.62899099324804" lon="11.031910359094939"><ele>1104.0</ele><time>2026-04-22T08:03:35.999Z</time></trkpt><trkpt lat="45.628917535515775" lon="11.031901096189186"><ele>1104.0</ele><time>2026-04-22T08:03:36.999Z</time></trkpt><trkpt lat="45.62884569643873" lon="11.031962740425385"><ele>1104.0</ele><time>2026-04-22T08:03:37.999Z</time></trkpt><trkpt lat="45.62877439603871" lon="11.0320131545526"><ele>1104.0</ele><time>2026-04-22T08:03:38.999Z</time></trkpt><trkpt lat="45.62870606046578" lon="11.03208157315035"><ele>1104.0</ele><time>2026-04-22T08:03:39.999Z</time></trkpt><trkpt lat="45.628646755943876" lon="11.032161156333357"><ele>1104.0</ele><time>2026-04-22T08:03:40.999Z</time></trkpt><trkpt lat="45.628593034258245" lon="11.032246669287531"><ele>1104.0</ele><time>2026-04-22T08:03:41.999Z</time></trkpt><trkpt lat="45.628542739676114" lon="11.032324847712083"><ele>1104.4</ele><time>2026-04-22T08:03:42.999Z</time></trkpt><trkpt lat="45.62849325001347" lon="11.032405874523127"><ele>1104.8000000000002</ele><time>2026-04-22T08:03:43.999Z</time></trkpt><trkpt lat="45.628445373053694" lon="11.032482070873751"><ele>1105.1999999999998</ele><time>2026-04-22T08:03:44.999Z</time></trkpt><trkpt lat="45.628330319829196" lon="11.032590153305769"><ele>1105.6</ele><time>2026-04-22T08:03:46.999Z</time></trkpt><trkpt lat="45.62826710038293" lon="11.03260732954288"><ele>1106.0</ele><time>2026-04-22T08:03:47.999Z</time></trkpt><trkpt lat="45.62812848874927" lon="11.032565435801008"><ele>1106.0</ele><time>2026-04-22T08:03:49.999Z</time></trkpt><trkpt lat="45.6280400557813" lon="11.032420158299637"><ele>1106.0</ele><time>2026-04-22T08:03:51.999Z</time></trkpt><trkpt lat="45.62799424961846" lon="11.0323249965199"><ele>1106.0</ele><time>2026-04-22T08:03:53Z</time></trkpt><trkpt lat="45.62796745804582" lon="11.0322244680844"><ele>1106.0</ele><time>2026-04-22T08:03:54Z</time></trkpt><trkpt lat="45.62792118886113" lon="11.032116724479431"><ele>1106.0</ele><time>2026-04-22T08:03:55Z</time></trkpt><trkpt lat="45.627869048484015" lon="11.032018710993658"><ele>1106.0</ele><time>2026-04-22T08:03:56Z</time></trkpt><trkpt lat="45.627833904067536" lon="11.031942600392382"><ele>1106.0</ele><time>2026-04-22T08:03:57Z</time></trkpt><trkpt lat="45.62771662626083" lon="11.031872105054848"><ele>1106.0</ele><time>2026-04-22T08:03:59Z</time></trkpt><trkpt lat="45.62764638188007" lon="11.031871093126764"><ele>1106.0</ele><time>2026-04-22T08:04:00Z</time></trkpt><trkpt lat="45.62757639817492" lon="11.031881320382785"><ele>1106.0</ele><time>2026-04-22T08:04:01Z</time></trkpt><trkpt lat="45.62751941714426" lon="11.031951303530178"><ele>1106.0</ele><time>2026-04-22T08:04:02Z</time></trkpt><trkpt lat="45.62747461066809" lon="11.032035344114545"><ele>1106.6666666666667</ele><time>2026-04-22T08:04:03Z</time></trkpt><trkpt lat="45.6274404394469" lon="11.03212609811105"><ele>1107.3333333333335</ele><time>2026-04-22T08:04:04Z</time></trkpt><trkpt lat="45.627409507745554" lon="11.032233414527074"><ele>1108.0</ele><time>2026-04-22T08:04:05Z</time></trkpt><trkpt lat="45.627377208217055" lon="11.032336032414118"><ele>1108.6666666666667</ele><time>2026-04-22T08:04:06Z</time></trkpt><trkpt lat="45.62733987940789" lon="11.032439389590936"><ele>1109.3333333333333</ele><time>2026-04-22T08:04:07Z</time></trkpt><trkpt lat="45.627303263483235" lon="11.032546087080073"><ele>1110.0</ele><time>2026-04-22T08:04:08Z</time></trkpt><trkpt lat="45.627240702618806" lon="11.032622029350488"><ele>1110.5</ele><time>2026-04-22T08:04:09Z</time></trkpt><trkpt lat="45.6271794879581" lon="11.03268122136713"><ele>1111.0</ele><time>2026-04-22T08:04:10Z</time></trkpt><trkpt lat="45.62711211819761" lon="11.032717722217958"><ele>1111.5</ele><time>2026-04-22T08:04:11Z</time></trkpt><trkpt lat="45.62705377027035" lon="11.032765224303084"><ele>1112.0</ele><time>2026-04-22T08:04:12Z</time></trkpt><trkpt lat="45.62693854567601" lon="11.032836486434407"><ele>1112.5</ele><time>2026-04-22T08:04:14Z</time></trkpt><trkpt lat="45.62688346377592" lon="11.032889599073549"><ele>1113.0</ele><time>2026-04-22T08:04:15Z</time></trkpt><trkpt lat="45.626813812504246" lon="11.032911551607095"><ele>1113.0</ele><time>2026-04-22T08:04:16Z</time></trkpt><trkpt lat="45.626690384445084" lon="11.032917774922554"><ele>1113.0</ele><time>2026-04-22T08:04:18Z</time></trkpt><trkpt lat="45.62662331087486" lon="11.032924479213829"><ele>1113.0</ele><time>2026-04-22T08:04:19Z</time></trkpt><trkpt lat="45.626518632732335" lon="11.033001073455635"><ele>1113.0</ele><time>2026-04-22T08:04:21Z</time></trkpt><trkpt lat="45.626425916578896" lon="11.033119051469612"><ele>1113.0</ele><time>2026-04-22T08:04:23Z</time></trkpt><trkpt lat="45.62637148182919" lon="11.033193017668237"><ele>1113.0</ele><time>2026-04-22T08:04:24Z</time></trkpt><trkpt lat="45.62630566569642" lon="11.033257422245319"><ele>1113.0</ele><time>2026-04-22T08:04:25Z</time></trkpt><trkpt lat="45.626231472691664" lon="11.033298064576536"><ele>1113.0</ele><time>2026-04-22T08:04:26Z</time></trkpt><trkpt lat="45.626161086863334" lon="11.033326892433278"><ele>1113.0</ele><time>2026-04-22T08:04:27Z</time></trkpt><trkpt lat="45.62608683627619" lon="11.033320425702108"><ele>1113.0</ele><time>2026-04-22T08:04:28Z</time></trkpt><trkpt lat="45.62601932902654" lon="11.033351097567781"><ele>1113.0</ele><time>2026-04-22T08:04:29Z</time></trkpt><trkpt lat="45.62595428662847" lon="11.033341642551441"><ele>1113.0</ele><time>2026-04-22T08:04:30Z</time></trkpt><trkpt lat="45.625893178262295" lon="11.033319150618526"><ele>1112.0</ele><time>2026-04-22T08:04:31Z</time></trkpt><trkpt lat="45.62579275923412" lon="11.033237798263679"><ele>1111.0</ele><time>2026-04-22T08:04:33Z</time></trkpt><trkpt lat="45.625719931780615" lon="11.033088360202212"><ele>1110.0</ele><time>2026-04-22T08:04:35Z</time></trkpt><trkpt lat="45.62568303817477" lon="11.03299908461137"><ele>1109.0</ele><time>2026-04-22T08:04:36Z</time></trkpt><trkpt lat="45.62564900841433" lon="11.032915988449139"><ele>1108.0</ele><time>2026-04-22T08:04:37Z</time></trkpt><trkpt lat="45.62558804194078" lon="11.032767203451748"><ele>1108.0</ele><time>2026-04-22T08:04:39Z</time></trkpt><trkpt lat="45.62549332340228" lon="11.032660178203594"><ele>1108.0</ele><time>2026-04-22T08:04:41Z</time></trkpt><trkpt lat="45.62543119020888" lon="11.032637649491832"><ele>1108.0</ele><time>2026-04-22T08:04:42Z</time></trkpt><trkpt lat="45.62531359906294" lon="11.032648715597134"><ele>1108.0</ele><time>2026-04-22T08:04:44Z</time></trkpt><trkpt lat="45.62519207434414" lon="11.032659996400412"><ele>1108.0</ele><time>2026-04-22T08:04:46Z</time></trkpt><trkpt lat="45.62512758002192" lon="11.032635861715203"><ele>1106.4285714285713</ele><time>2026-04-22T08:04:47Z</time></trkpt><trkpt lat="45.625065413040836" lon="11.03259633899875"><ele>1104.8571428571427</ele><time>2026-04-22T08:04:48Z</time></trkpt><trkpt lat="45.62501004319639" lon="11.032538881823742"><ele>1103.2857142857142</ele><time>2026-04-22T08:04:49Z</time></trkpt><trkpt lat="45.624956185742114" lon="11.032485022606092"><ele>1101.7142857142858</ele><time>2026-04-22T08:04:50Z</time></trkpt><trkpt lat="45.62490033968505" lon="11.032431543181584"><ele>1100.1428571428573</ele><time>2026-04-22T08:04:51Z</time></trkpt><trkpt lat="45.62484790616469" lon="11.032379966463004"><ele>1098.5714285714287</ele><time>2026-04-22T08:04:52Z</time></trkpt><trkpt lat="45.62479191466036" lon="11.032328359440244"><ele>1097.0</ele><time>2026-04-22T08:04:53Z</time></trkpt><trkpt lat="45.62474175242418" lon="11.032271963308009"><ele>1097.0</ele><time>2026-04-22T08:04:54Z</time></trkpt><trkpt lat="45.62469022874613" lon="11.032209758323312"><ele>1097.0</ele><time>2026-04-22T08:04:55Z</time></trkpt><trkpt lat="45.62464082259384" lon="11.032148337712163"><ele>1097.0</ele><time>2026-04-22T08:04:56Z</time></trkpt><trkpt lat="45.624531525700924" lon="11.032080422418195"><ele>1097.0</ele><time>2026-04-22T08:04:58Z</time></trkpt><trkpt lat="45.62440642617066" lon="11.032070490310618"><ele>1097.0</ele><time>2026-04-22T08:05:00Z</time></trkpt><trkpt lat="45.62434266281752" lon="11.032083168658371"><ele>1097.0</ele><time>2026-04-22T08:05:01Z</time></trkpt><trkpt lat="45.62427621815673" lon="11.032106167840592"><ele>1098.2857142857142</ele><time>2026-04-22T08:05:02Z</time></trkpt><trkpt lat="45.624209333442714" lon="11.032131356522411"><ele>1099.5714285714287</ele><time>2026-04-22T08:05:03Z</time></trkpt><trkpt lat="45.624142053913" lon="11.032140510488274"><ele>1100.857142857143</ele><time>2026-04-22T08:05:04Z</time></trkpt><trkpt lat="45.62406981142243" lon="11.032141669752097"><ele>1102.142857142857</ele><time>2026-04-22T08:05:05Z</time></trkpt><trkpt lat="45.624001771542595" lon="11.032134254880534"><ele>1103.4285714285716</ele><time>2026-04-22T08:05:06Z</time></trkpt><trkpt lat="45.623936837881445" lon="11.032104905527746"><ele>1104.7142857142858</ele><time>2026-04-22T08:05:07Z</time></trkpt><trkpt lat="45.62387381472501" lon="11.032055432667429"><ele>1106.0</ele><time>2026-04-22T08:05:08Z</time></trkpt><trkpt lat="45.623823807831855" lon="11.031994216271615"><ele>1106.0</ele><time>2026-04-22T08:05:09Z</time></trkpt><trkpt lat="45.6237776995861" lon="11.031927710147981"><ele>1106.0</ele><time>2026-04-22T08:05:10Z</time></trkpt><trkpt lat="45.62368752846447" lon="11.031816561163293"><ele>1106.0</ele><time>2026-04-22T08:05:12Z</time></trkpt><trkpt lat="45.62357501097103" lon="11.031761168105549"><ele>1106.0</ele><time>2026-04-22T08:05:14Z</time></trkpt><trkpt lat="45.62345729557918" lon="11.031799780462553"><ele>1106.0</ele><time>2026-04-22T08:05:16Z</time></trkpt><trkpt lat="45.6233564481419" lon="11.031900466683295"><ele>1107.0</ele><time>2026-04-22T08:05:18Z</time></trkpt><trkpt lat="45.623240064779104" lon="11.031969766545163"><ele>1108.0</ele><time>2026-04-22T08:05:20Z</time></trkpt><trkpt lat="45.623127087004306" lon="11.031924886342637"><ele>1109.0</ele><time>2026-04-22T08:05:22Z</time></trkpt><trkpt lat="45.62305994101573" lon="11.03179233339462"><ele>1110.0</ele><time>2026-04-22T08:05:24Z</time></trkpt><trkpt lat="45.6230124300852" lon="11.031654968775229"><ele>1109.8333333333333</ele><time>2026-04-22T08:05:26Z</time></trkpt><trkpt lat="45.62294041741253" lon="11.031528899062247"><ele>1109.6666666666667</ele><time>2026-04-22T08:05:28Z</time></trkpt><trkpt lat="45.622829011173444" lon="11.031451259848398"><ele>1109.5</ele><time>2026-04-22T08:05:29.999Z</time></trkpt><trkpt lat="45.622764755205594" lon="11.031421147202824"><ele>1109.3333333333335</ele><time>2026-04-22T08:05:30.999Z</time></trkpt><trkpt lat="45.62270277591779" lon="11.031391155296474"><ele>1109.1666666666667</ele><time>2026-04-22T08:05:31.999Z</time></trkpt><trkpt lat="45.62264481090365" lon="11.03135070392902"><ele>1109.0</ele><time>2026-04-22T08:05:32.999Z</time></trkpt><trkpt lat="45.62259575739542" lon="11.031289900803996"><ele>1108.9999999999998</ele><time>2026-04-22T08:05:33.999Z</time></trkpt><trkpt lat="45.62255083229342" lon="11.031220762445937"><ele>1109.0</ele><time>2026-04-22T08:05:34.999Z</time></trkpt><trkpt lat="45.62250962241234" lon="11.031147049433775"><ele>1109.0</ele><time>2026-04-22T08:05:35.999Z</time></trkpt><trkpt lat="45.622475862427244" lon="11.031065746229826"><ele>1109.0</ele><time>2026-04-22T08:05:36.999Z</time></trkpt><trkpt lat="45.62244351770087" lon="11.030985099447422"><ele>1109.0</ele><time>2026-04-22T08:05:37.999Z</time></trkpt><trkpt lat="45.62241205336917" lon="11.030904425861126"><ele>1108.9999999999998</ele><time>2026-04-22T08:05:38.999Z</time></trkpt><trkpt lat="45.62233748252523" lon="11.03079485244395"><ele>1109.0</ele><time>2026-04-22T08:05:40.999Z</time></trkpt><trkpt lat="45.62226507147117" lon="11.030726728030036"><ele>1108.8</ele><time>2026-04-22T08:05:42.999Z</time></trkpt><trkpt lat="45.62219254883856" lon="11.03065936265471"><ele>1108.6000000000001</ele><time>2026-04-22T08:05:45.999Z</time></trkpt><trkpt lat="45.622128256650655" lon="11.030622546351895"><ele>1108.4</ele><time>2026-04-22T08:05:48.999Z</time></trkpt><trkpt lat="45.62210009267119" lon="11.030337003820055"><ele>1108.2</ele><time>2026-04-22T08:06:39Z</time></trkpt><trkpt lat="45.6221278999441" lon="11.030240633118265"><ele>1108.0</ele><time>2026-04-22T08:06:41Z</time></trkpt><trkpt lat="45.622187916592445" lon="11.03019003410075"><ele>1108.0</ele><time>2026-04-22T08:06:43Z</time></trkpt><trkpt lat="45.622264135406766" lon="11.030187890985951"><ele>1108.0</ele><time>2026-04-22T08:06:45Z</time></trkpt><trkpt lat="45.62235648023361" lon="11.030210267686353"><ele>1108.0</ele><time>2026-04-22T08:06:47Z</time></trkpt><trkpt lat="45.622435804745855" lon="11.030201301340323"><ele>1108.0</ele><time>2026-04-22T08:06:49Z</time></trkpt><trkpt lat="45.62251864319304" lon="11.030167038124144"><ele>1108.0</ele><time>2026-04-22T08:06:52Z</time></trkpt><trkpt lat="45.62251848641323" lon="11.030011947340252"><ele>1108.0</ele><time>2026-04-22T08:06:54Z</time></trkpt><trkpt lat="45.62259276094747" lon="11.029945179751808"><ele>1108.0</ele><time>2026-04-22T08:06:57Z</time></trkpt><trkpt lat="45.62266720979822" lon="11.029965487386624"><ele>1108.0</ele><time>2026-04-22T08:07:00Z</time></trkpt><trkpt lat="45.62273609070334" lon="11.0299914668472"><ele>1108.0</ele><time>2026-04-22T08:07:05Z</time></trkpt><trkpt lat="45.62267753537178" lon="11.030034610671041"><ele>1108.0</ele><time>2026-04-22T08:13:41Z</time></trkpt><trkpt lat="45.6226120281703" lon="11.030025102620176"><ele>1108.0</ele><time>2026-04-22T08:13:49Z</time></trkpt><trkpt lat="45.62254263276954" lon="11.0300320285371"><ele>1108.0</ele><time>2026-04-22T08:13:58.999Z</time></trkpt><trkpt lat="45.622452616127276" lon="11.030080626257252"><ele>1108.0</ele><time>2026-04-22T08:14:06.999Z</time></trkpt><trkpt lat="45.622417255056476" lon="11.030158664724258"><ele>1108.0</ele><time>2026-04-22T08:14:14.999Z</time></trkpt><trkpt lat="45.62240956297373" lon="11.03025159620197"><ele>1108.0</ele><time>2026-04-22T08:14:18.999Z</time></trkpt><trkpt lat="45.62234900932109" lon="11.030306467844095"><ele>1108.0</ele><time>2026-04-22T08:14:25Z</time></trkpt><trkpt lat="45.6222870116124" lon="11.030256122777665"><ele>1108.0</ele><time>2026-04-22T08:14:31Z</time></trkpt><trkpt lat="45.62222542546888" lon="11.030233370315809"><ele>1108.0</ele><time>2026-04-22T08:14:38Z</time></trkpt><trkpt lat="45.622180231392974" lon="11.030304895929843"><ele>1108.0</ele><time>2026-04-22T08:14:53Z</time></trkpt><trkpt lat="45.62208567770159" lon="11.030410751782041"><ele>1108.0</ele><time>2026-04-22T08:28:26.416Z</time></trkpt></trkseg></trk></gpx>